     2.11           OBSERVATION DATA    G (GPS)             RINEX VERSION / TYPE
teqc 2010Oct21 OPUS Account 20111028 16:11:52UTC            PGM / RUN BY / DATE
F 1519                                                      MARKER NAME
2036                                                        MARKER NUMBER
CSMIDDLETON NGS                                             OBSERVER / AGENCY
0220379089 TRIMBLE R7 2.28                                  REC # / TYPE / VERS
60124975 TRM41249.00 NONE                                   ANT # / TYPE
  -715658.3282 -5594161.1764  2968876.3719                  APPROX POSITION XYZ
        2.0010        0.0000        0.0000                  ANTENNA: DELTA H/E/N
     1     1                                                WAVELENGTH FACT L1/2
     5    L1    L2    C1    P1    P2                        # / TYPES OF OBSERV
    15                                                      LEAP SECONDS
  2011     8    24    16     3   30.0000000     GPS         TIME OF FIRST OBS
                                                            END OF HEADER
 11  8 24 16  3 30.0000000  0  9G03G06G07G08G10G13G16G19G23
    169238.21558    116957.84055  21175143.9304                   21175141.6684
    232403.62157    164042.14154  23001196.5864                   23001194.5904
   -200667.73058   -148457.19156  21895262.0234                   21895259.3834
   -227634.59856   -168094.82053  23776426.9144                   23776426.3404
     60760.80556     39773.50453  23922001.4224                   23922002.2624
      1007.93458     -3798.52057  19930826.7274                   19930823.7194
    285341.84857    200086.23054  23489147.3204                   23489144.5314
    -78874.42258    -61764.37556  20856044.5554                   20856040.4384
    187075.93858    130702.88756  20493073.7424                   20493068.8204
 11  8 24 16  4  0.0000000  0 11G03G06G07G08G10G11G13G16G19G23G28
    219338.78147    155997.19945  21184677.3754                   21184675.6214
    301685.28947    218027.80944  23014380.1804                   23014379.8794
   -261831.43047   -196117.21946  21883622.6094                   21883620.3524
   -301456.94946   -225618.67243  23762380.1334                   23762380.0354
     78532.58646     53621.53942  23925383.5084                   23925383.7194
   -130327.80956    -85547.46153  24332605.8984                   24332606.1564
      1106.62948     -3721.64147  19930845.6884                   19930842.4884
    368798.18447    265117.06344  23505027.9224                   23505026.5234
   -102777.53948    -80390.18046  20851496.1334                   20851492.4454
    242317.72748    173748.37146  20503585.8364                   20503581.1844
   -119337.14857    -77980.14854  24304532.5864                   24304532.0554
 11  8 24 16  4 30.0000000  0 11G03G06G07G08G10G11G13G16G19G23G28
    269483.27747    195070.76245  21194219.6724                   21194218.3054
    370852.39847    271924.21544  23027542.6414                   23027540.2274
   -323450.90648   -244132.38746  21871896.5164                   21871894.1454
   -375845.35546   -283583.62943  23748224.1334                   23748223.9104
     96212.73046     67398.24243  23928747.8364                   23928749.5124
   -212578.60946   -149638.91843  24316954.2424                   24316953.6254
      1300.55548     -3570.56647  19930882.6174                   19930879.6604
    451736.55147    329744.29344  23520810.1094                   23520809.0514
   -126574.78948    -98933.47746  20846967.9534                   20846963.5514
    297573.56348    216804.82046  20514100.8914                   20514096.2894
   -193977.95747   -136141.79744  24290328.8524                   24290328.5704
 11  8 24 16  5  0.0000000  0 11G03G06G07G08G10G11G13G16G19G23G28
    319680.42247    234185.37545  21203771.9844                   21203770.9024
    439912.98447    325737.59844  23040684.9614                   23040683.3364
   -385514.23447   -292493.40646  21860086.1094                   21860083.5314
   -450789.09846   -341981.31643  23733963.1484                   23733962.7504
    113809.80546     81110.17243  23932098.1954                   23932096.4694
   -295421.28146   -214191.60243  24301189.2664                   24301188.2114
      1600.91848     -3336.54347  19930939.5474                   19930936.5744
    534166.34446    393975.19144  23536496.5784                   23536495.2424
   -150254.89848   -117385.51246  20842461.8914                   20842457.3484
    352852.47748    259879.23446  20524619.8984                   20524616.2664
   -268882.88746   -194509.28144  24276074.6724                   24276075.1334
 11  8 24 16  5 30.0000000  0 11G03G06G07G08G10G11G13G16G19G23G28
    369941.99648    273350.19945  21213336.4844                   21213334.4654
    508878.38747    379476.82844  23053807.6644                   23053806.7194
   -448006.41847   -341188.62946  21848194.3594                   21848191.9064
   -526273.99646   -400800.69543  23719599.3054                   23719598.9774
    131336.25446     94767.16043  23935431.9384                   23935431.1844
   -378839.48846   -279192.76243  24285315.0864                   24285313.9224
      2022.29348     -3008.23847  19931019.8984                   19931017.0004
    616099.57847    457819.19144  23552087.8204                   23552086.6804
   -173802.91048   -135734.60246  20837980.6024                   20837975.9614
    408166.82848    302981.27746  20535145.8594                   20535142.5664
   -344037.92247   -253071.69543  24261773.6954                   24261772.0634
 11  8 24 16  6  0.0000000  0 11G03G06G07G08G10G11G13G16G19G23G28
    420287.72747    312580.62145  21222916.7274                   21222915.2664
    577768.37547    433157.29744  23066917.0634                   23066916.9734
   -510905.35247   -390200.77746  21836225.4064                   21836222.8134
   -602278.17246   -460024.66043  23705136.1334                   23705135.2384
    148811.78946    108384.40643  23938757.7504                   23938758.6564
   -462809.16846   -344623.63343  24269335.9224                   24269335.5554
      2586.71548     -2568.45746  19931127.2344                   19931124.2274
    697556.62146    521292.16444  23567589.4454                   23567586.5594
   -197196.25448   -153963.17246  20833529.1884                   20833524.7344
    463536.46148    346126.41446  20545682.0084                   20545678.6334
   -419421.33246   -311812.00443  24247428.6484                   24247427.0164
 11  8 24 16  6 30.0000000  0 11G03G06G07G08G10G11G13G16G19G23G28
    470746.34447    351898.97745  21232519.5864                   21232517.3094
    646610.97347    486800.80144  23080018.1414                   23080016.8444
   -574179.10547   -439505.00046  21824184.8594                   21824182.2774
   -678770.80546   -519629.29343  23690579.5474                   23690579.1134
    166265.17646    121984.37543  23942078.8444                   23942079.6024
   -547297.29346   -410458.46543  24253259.1094                   24253258.3324
      3325.12148     -1993.10247  19931268.0234                   19931264.5354
    778566.82846    584416.93044  23583005.3444                   23583002.1054
   -220403.05948   -172046.39546  20829112.7274                   20829108.4224
    518990.52048    389337.33246  20556234.7664                   20556231.2344
   -495001.54746   -370705.67643  24233045.5164                   24233043.9414
 11  8 24 16  7  0.0000000  0 11G03G06G07G08G10G11G13G16G19G23G28
    521338.76247    391321.60245  21242146.3984                   21242144.0704
    715427.65247    540424.14545  23093113.9384                   23093112.2974
   -637803.78147   -489082.67246  21812077.3364                   21812075.0634
   -755728.25446   -579596.07443  23675934.7664                   23675934.8244
    183717.46546    135583.49242  23945399.7424                   23945399.1174
   -632277.76246   -476676.98843  24237087.2814                   24237087.0634
      4261.27348     -1263.65646  19931445.9144                   19931442.3754
    859152.00447    647210.49643  23598339.1564                   23598335.7344
   -243399.07848   -189965.37946  20824736.9224                   20824732.5984
    574550.63348    432630.87546  20566807.4224                   20566803.5204
   -570755.40246   -429734.62943  24218630.8054                   24218629.3484
 11  8 24 16  7 30.0000000  0 11G03G06G07G08G10G11G13G16G19G23G28
    572089.03547    430867.20345  21251803.8054                   21251801.5824
    784242.05147    594045.66444  23106208.3364                   23106207.5084
   -701751.65247   -538912.19146  21799908.7584                   21799905.9064
   -833124.10246   -639904.50443  23661206.9924                   23661207.0204
    201193.02746    149200.69143  23948725.3834                   23948725.0474
   -717721.99646   -543256.88743  24220826.6644                   24220827.2074
      5421.56348      -359.55946  19931666.7734                   19931663.6414
    939336.94146    709692.17643  23613597.1954                   23613594.9454
   -266157.53148   -207699.24646  20820405.9384                   20820401.9264
    630240.99648    476025.90246  20577405.6024                   20577400.9884
   -646656.46946   -488878.34043  24204186.4534                   24204186.0394
 11  8 24 16  8  0.0000000  0 11G03G06G07G08G10G11G13G16G19G23G28
    623013.91447    470548.88345  21261494.6724                   21261492.9804
    853070.48447    647678.19944  23119306.1804                   23119304.4734
   -766003.29747   -588978.39846  21787681.9304                   21787679.3714
   -910939.29346   -700539.70342  23646399.5084                   23646398.2734
    218708.60246    162849.17643  23952059.3524                   23952057.7504
   -803608.71946   -610181.52743  24204483.4064                   24204483.8984
      6825.29348       734.24246  19931933.9384                   19931930.8054
   1019139.05946    771875.53143  23628783.0944                   23628781.0474
   -288658.50048   -225232.47346  20816123.7734                   20816120.0354
    686079.06648    519536.02746  20588031.0864                   20588026.3014
   -722685.85546   -548122.02043  24189717.3444                   24189718.1094
 11  8 24 16  8 30.0000000  0 11G03G06G07G08G10G11G13G16G19G23G28
    674127.69148    510377.74645  21271221.8204                   21271219.6644
    921926.54747    701332.21144  23132408.7504                   23132408.8404
   -830541.57047   -639267.96146  21775400.4304                   21775398.0514
   -989157.40245   -761488.81642  23631513.7734                   23631513.1764
    236278.37546    176539.86743  23955402.4534                   23955400.2194
   -889918.97746   -677436.29743  24188058.7584                   24188057.8984
      8488.92648      2030.55147  19932250.4614                   19932247.6254
   1098573.23047    833772.16443  23643900.2584                   23643896.1684
   -310885.12948   -242551.95346  20811894.6564                   20811890.2464
    742079.53148    563172.71146  20598687.7424                   20598683.1914
   -798826.89546   -607452.82442  24175230.7504                   24175229.0084
 11  8 24 16  9  0.0000000  0 11G03G06G07G08G10G11G13G16G19G23G28
    725442.91047    550363.58645  21280986.3754                   21280984.0744
    990823.49246    755018.07444  23145518.9534                   23145518.1994
   -895349.96147   -689767.99645  21763067.6644                   21763064.9064
  -1067762.98045   -822739.84442  23616555.4774                   23616552.9534
    253915.85546    190283.30143  23958758.6884                   23958757.0394
   -976634.89846   -745007.10543  24171558.4534                   24171557.7624
     10427.82848      3541.36747  19932619.3984                   19932616.8914
   1177653.02347    895392.69943  23658948.1174                   23658944.0944
   -332821.11748   -259644.94146  20807720.3984                   20807716.0164
    798255.30148    606945.97746  20609377.4454                   20609373.0124
   -875064.05546   -666858.42243  24160723.1644                   24160722.1374
 11  8 24 16  9 30.0000000  0 11G03G06G07G08G10G11G13G16G19G23G28
    776968.90248    590513.66445  21290791.1644                   21290789.5084
   1059770.31647    808742.80144  23158639.6254                   23158638.4264
   -960416.40247   -740469.12146  21750686.5164                   21750683.0594
  -1146744.34446   -884283.68042  23601526.6954                   23601523.7734
    271629.74646    204086.27343  23962129.4924                   23962127.9304
  -1063743.14546   -812883.63343  24154981.7114                   24154982.1764
     12653.34048      5275.50847  19933042.9614                   19933040.0354
   1256388.28547    956744.77344  23673930.8674                   23673927.5354
   -354454.80948   -276502.35546  20803603.2274                   20803599.0044
    854615.68448    650863.11746  20620102.3834                   20620098.7934
   -951386.57446   -726330.42643  24146199.0394                   24146197.3164
 11  8 24 16 10  0.0000000  0 11G03G06G07G08G10G11G13G16G19G23G28
    828716.00847    630836.05545  21300638.3754                   21300636.8244
   1128776.94546    862514.12544  23171770.6484                   23171770.0634
  -1025727.08647   -791360.57446  21738258.2894                   21738255.2934
  -1226088.37146   -946110.24243  23586428.6884                   23586425.7344
    289430.94546    217957.34843  23965517.3444                   23965516.5084
  -1151228.58246   -881054.09443  24138333.6724                   24138334.7114
     15178.63348      7243.24246  19933523.6644                   19933520.5554
   1334790.59447   1017837.38744  23688851.0474                   23688848.0904
   -375772.89148   -293113.85946  20799546.5234                   20799542.3834
    911171.82048    694932.78946  20630865.4064                   20630860.8444
  -1027781.02346   -785858.56643  24131661.9064                   24131659.6374
 11  8 24 16 10 30.0000000  0 11G03G06G07G08G10G11G13G16G19G23G28
    880692.44947    671337.12145  21310529.5784                   21310528.1914
   1197851.30146    916338.23844  23184915.4844                   23184916.0514
  -1091271.05548   -842433.80546  21725785.4694                   21725782.5204
  -1305784.75046  -1008211.32443  23571263.1414                   23571262.7814
    307327.44146    231902.59043  23968922.2664                   23968922.5744
  -1239078.24246   -949508.32843  24121616.2664                   24121617.0004
     18014.16848      9452.72346  19934063.2504                   19934060.1174
   1412868.54346   1078677.32044  23703708.9454                   23703706.5704
   -396764.19948   -309470.71146  20795552.2814                   20795547.8554
    967932.03548    739161.48446  20641666.2034                   20641661.7304
  -1104237.13346   -845434.68743  24117112.4304                   24117109.0634
 11  8 24 16 11  0.0000000  0 11G03G06G07G08G10G11G13G16G19G23G28
    932905.56347    712022.63745  21320465.5944                   21320462.7584
   1267000.70347    970220.81645  23198074.5234                   23198074.3094
  -1157037.73047   -893680.56246  21713270.7734                   21713267.7114
  -1385823.63746  -1070579.21543  23556032.6564                   23556032.1804
    325326.85546    245928.02343  23972348.6954                   23972347.1374
  -1327279.98446  -1018236.94143  24104832.2894                   24104831.1804
     21169.43448     11911.34846  19934663.5084                   19934660.0044
   1490630.46146   1139270.97344  23718505.9774                   23718505.1054
   -417418.25848   -325564.79746  20791621.7424                   20791618.1994
   1024904.09848    783555.25846  20652507.6174                   20652503.4224
  -1180745.19146   -905051.40643  24102553.4064                   24102550.8484
 11  8 24 16 11 30.0000000  0 11G03G06G07G08G10G11G13G16G19G23G28
    985362.83247    752898.38745  21330447.5084                   21330445.3094
   1336232.60247   1024167.68445  23211249.2274                   23211248.5864
  -1223015.96947   -945092.18046  21700715.0084                   21700712.3834
  -1466194.62946  -1133205.98043  23540738.3054                   23540738.1294
    343436.79746    260039.64143  23975794.4534                   23975794.8954
  -1415821.28147  -1087230.17643  24087983.6254                   24087983.8134
     24654.34448     14626.83646  19935327.0314                   19935323.5004
   1568084.99646   1199625.07444  23733245.9694                   23733244.1914
   -437724.85248   -341388.12546  20787757.3984                   20787753.9264
   1082096.23048    828120.50446  20663390.7114                   20663386.8244
  -1257295.26246   -964700.84843  24087986.4224                   24087984.8794
 11  8 24 16 12  0.0000000  0 11G03G06G07G08G10G11G13G16G19G23G28
   1038069.27047    793968.28945  21340477.3524                   21340475.6724
   1405552.05947   1078182.77044  23224440.1094                   23224439.1214
  -1289197.09847   -996661.90246  21688121.6094                   21688118.6914
  -1546889.99646  -1196085.43443  23525382.5084                   23525381.1054
    361662.90646    274241.70343  23979262.2734                   23979263.0984
  -1504692.00046  -1156480.02743  24071071.7814                   24071072.7464
     28476.69548     17605.26646  19936054.2034                   19936050.9144
   1645238.49246   1259744.60544  23747926.9224                   23747925.7894
   -457675.63348   -356934.19546  20783961.2344                   20783957.1524
   1139513.64548    872861.29346  20674316.9454                   20674313.1644
  -1333879.66447  -1024376.98843  24073413.2504                   24073412.6644
 11  8 24 16 12 30.0000000  0 11G03G06G07G08G10G11G13G16G19G23G28
   1091030.00048    835236.34045  21350555.3834                   21350554.8594
   1474964.16047   1132270.08244  23237648.9534                   23237648.0824
  -1355572.81248  -1048383.21946  21675490.8284                   21675487.8674
  -1627901.76946  -1259211.43943  23509965.2424                   23509963.9304
    380010.65646    288538.58243  23982753.7114                   23982754.3054
  -1593882.39147  -1225979.03943  24054099.3674                   24054100.5314
     32644.05548     20852.52746  19936847.4304                   19936844.2814
   1722096.81646   1319634.08644  23762552.5394                   23762551.1764
   -477262.85248   -372196.96946  20780233.7424                   20780229.6804
   1197162.22748    917782.21946  20685286.9224                   20685282.8714
  -1410490.85547  -1084074.00044  24058834.7734                   24058833.9344
 11  8 24 16 13  0.0000000  0 11G03G06G07G08G10G11G13G16G19G23G28
   1144250.12547    876706.51645  21360683.0314                   21360680.5314
   1544473.28146   1186432.97344  23250875.8134                   23250874.9454
  -1422134.80148  -1100249.71546  21662824.0314                   21662821.4224
  -1709222.80146  -1322578.47343  23494490.8754                   23494488.2114
    398484.71146    302933.87543  23986268.9064                   23986270.0004
  -1683382.52747  -1295719.37143  24037069.0474                   24037067.7664
     37163.71148     24374.30546  19937707.2664                   19937704.2344
   1798665.87546   1379298.19143  23777123.6484                   23777121.1994
   -496478.64848   -387170.32046  20776577.6484                   20776573.3284
   1255047.27348    962887.41846  20696302.3284                   20696298.0354
  -1487121.55947  -1143786.21544  24044251.0864                   24044251.4224
 11  8 24 16 13 30.0000000  0 11G03G06G07G08G10G11G13G16G19G23G28
   1197734.20347    918382.37545  21370860.6724                   21370857.9064
   1614084.83246   1240675.69144  23264122.5704                   23264122.5004
  -1488874.86748  -1152254.97346  21650124.4614                   21650121.3834
  -1790845.80546  -1386180.84043  23478958.5864                   23478954.9104
    417090.15246    317431.55943  23989809.8054                   23989810.8634
  -1773182.63346  -1365693.44943  24019980.5634                   24019981.3754
     42042.55148     28175.96546  19938635.6564                   19938632.2234
   1874951.55946   1438741.45744  23791640.9614                   23791637.8984
   -515315.18448   -401848.13346  20772992.7974                   20772988.4414
   1313173.84848   1008180.80946  20707363.7584                   20707359.3754
  -1563764.51246  -1203507.93444  24029666.3204                   24029666.7584
 11  8 24 16 14  0.0000000  0 11G03G06G07G08G10G11G13G16G19G23G28
   1251484.71147    960265.82845  21381088.7664                   21381087.8554
   1683800.43447   1294999.48044  23277389.3444                   23277389.2074
  -1555787.44947  -1204394.63746  21637391.0784                   21637387.9064
  -1872765.32046  -1450014.22743  23463370.8594                   23463368.0274
    435829.55547    332033.65243  23993376.1804                   23993375.8404
  -1863275.53146  -1435895.67643  24002835.3054                   24002836.5434
     47285.30948     32261.20346  19939633.4304                   19939629.9844
   1950957.25846   1497966.58643  23806104.7194                   23806101.2734
   -533767.66048   -416226.69546  20769481.7424                   20769477.7584
   1371544.48848   1053664.37546  20718471.2114                   20718466.3094
  -1640415.00846  -1263235.59044  24015080.8364                   24015079.5474
 11  8 24 16 14 30.0000000  0 11G03G06G07G08G10G11G13G16G19G23G28
   1305504.60947   1002359.20745  21391368.8524                   21391367.3404
   1753623.46146   1349406.94544  23290676.1564                   23290676.0554
  -1622865.77347  -1256663.46946  21624626.6254                   21624624.3594
  -1954975.59046  -1514074.16843  23447725.3134                   23447725.9304
    454706.24246    346742.69943  23996967.3284                   23996967.9104
  -1953653.10546  -1506319.69944  23985637.4304                   23985637.1134
     52897.26648     36634.12946  19940701.4534                   19940698.5084
   2026686.96946   1556976.66043  23820514.6724                   23820512.8834
   -551830.04348   -430301.28546  20766044.0864                   20766039.8484
   1430162.77748   1099340.90246  20729626.0394                   20729621.4064
  -1717067.50046  -1322964.73843  24000494.3134                   24000492.9384
 11  8 24 16 15  0.0000000  0 11G03G06G07G08G10G11G13G16G19G23G28
   1359796.98047   1044664.89845  21401700.5164                   21401697.5744
   1823556.47347   1403900.16044  23303984.3444                   23303982.7664
  -1690103.65247  -1309056.58646  21611831.4614                   21611828.5084
  -2037471.06246  -1578356.32843  23432028.0944                   23432027.3914
    473722.82847    361560.71543  24000586.9614                   24000586.8244
  -2044307.50846  -1576959.44943  23968387.3674                   23968386.9414
     58883.71548     41298.86346  19941840.5314                   19941837.1484
   2102144.68846   1615774.79743  23834873.9144                   23834871.5664
   -569496.65248   -444067.48846  20762681.9454                   20762677.7544
   1489031.68448   1145212.72746  20740827.9384                   20740823.3284
  -1793716.86746  -1382691.53143  23985909.2734                   23985907.5474
 11  8 24 16 15 30.0000000  0 11G03G06G07G08G10G11G13G16G19G23G28
   1414362.89148   1087183.75845  21412084.1254                   21412082.1954
   1893600.67647   1458479.96144  23317312.9614                   23317313.3834
  -1757496.32047  -1361570.35545  21599007.2194                   21599003.9614
  -2120247.41445  -1642857.34043  23416274.4064                   23416274.2544
    492880.80547    376488.94943  24004233.3754                   24004232.5084
  -2135232.60546  -1647810.13743  23951084.0314                   23951083.2504
     65247.90648     46257.95746  19943051.6484                   19943048.2854
   2177332.75846   1674362.83243  23849182.6254                   23849180.6914
   -586763.25448   -457521.98846  20759396.5004                   20759392.4534
   1548153.10948   1191281.30546  20752078.4844                   20752073.9964
  -1870359.53146  -1442413.05143  23971324.3754                   23971323.8874
 11  8 24 16 16  0.0000000  0 11G03G06G07G08G10G11G13G16G19G23G28
   3044622.46547   2357515.81645  21722312.5944                   21722311.2544
   3539175.80947   2740746.21144  23630456.2114                   23630455.4064
   -249616.03947   -186598.69945  21885947.2274                   21885944.0634
   -627877.53546   -479971.68742  23700264.1644                   23700262.6024
   2087601.92247   1619128.74244  24307697.7424                   24307698.2274
   -650998.29346   -491263.84043  24233523.3134                   24233524.4494
   1647414.41448   1279114.93846  20244127.8594                   20244124.8014
   3827671.87146   2960341.27343  24163230.6954                   24163230.0354
    971795.12148    756939.04746  21055980.6644                   21055976.4224
   3182947.12548   2465146.73046  21063169.8674                   21063165.4964
   -371568.18446   -274523.66443  24256533.7664                   24256534.1804
 11  8 24 16 16 30.0000000  0 11G03G06G07G08G10G11G13G16G19G23G28
   3099738.55547   2400463.38345  21732800.7194                   21732799.3164
   3609445.32847   2795501.58244  23643827.8594                   23643826.7234
   -317304.41847   -239342.87145  21873066.2274                   21873064.2344
   -711204.91746   -544902.02843  23684407.3754                   23684405.4534
   2107047.08647   1634280.74244  24311398.3984                   24311398.8014
   -742446.02046   -562521.79743  24216123.0784                   24216121.4454
   1654544.73448   1284671.01646  20245484.8364                   20245482.0314
   3902327.79346   3018514.67643  24177436.0314                   24177434.7074
    955339.64548    744116.57846  21052849.0864                   21052844.8984
   3242577.43448   2511611.85546  21074517.2664                   21074513.0784
   -448186.22346   -334225.96943  24241953.0554                   24241953.7734
 11  8 24 16 17  0.0000000  0 11G03G06G07G08G10G11G13G16G19G23G28
   3155131.57047   2443626.74645  21743341.3524                   21743339.4304
   3679829.68446   2850346.52044  23657221.1174                   23657218.1644
   -385133.23047   -292196.52745  21860158.9774                   21860156.4964
   -794801.31246   -610042.06242  23668500.8674                   23668496.5314
   2126637.71947   1649546.13744  24315126.2894                   24315127.1684
   -834145.82047   -633976.11343  24198673.3134                   24198671.7384
   1662063.44548   1290529.71146  20246915.6884                   20246912.1994
   3976721.14846   3076483.46144  24191594.0314                   24191592.3524
    939295.85248    731614.91446  21049795.8364                   21049791.9024
   3302465.26248   2558277.63746  21085913.7424                   21085909.1484
   -524786.36346   -393914.41443  24227377.1094                   24227377.8874
 11  8 24 16 17 30.0000000  0 11G03G06G07G08G10G11G13G16G19G23G28
   3210800.61347   2487005.14145  21753933.9694                   21753931.2234
   3750327.27346   2905279.62544  23670636.1024                   23670635.3164
   -453100.33647   -345157.88345  21847225.3134                   21847222.4614
   -878665.09046   -675390.50842  23652541.7504                   23652537.8594
   2146373.07047   1664924.25444  24318881.8054                   24318882.8714
   -926093.68446   -705623.78143  24181175.5004                   24181174.6454
   1669971.56648   1296691.87146  20248420.3754                   20248417.3984
   4050851.99246   3134247.71544  24205701.2894                   24205699.0394
    923665.26248    719435.22746  21046821.6254                   21046817.4884
   3362609.02348   2605142.86746  21097358.5634                   21097355.5554
   -601367.79346   -453588.21544  24212805.3834                   24212804.5594
 11  8 24 16 18  0.0000000  0 11G03G06G07G08G10G11G13G16G19G23G28
   3266744.56647   2530597.77744  21764579.7344                   21764579.1174
   3820937.32047   2960300.32044  23684073.0554                   23684071.5904
   -521202.86347   -398224.76245  21834264.6334                   21834264.2114
   -962794.37946   -740945.71943  23636531.5234                   23636530.2114
   2166252.39547   1680414.56644  24322664.8834                   24322665.5984
  -1018284.92647   -777461.05543  24163631.4144                   24163631.7544
   1678270.24248   1303158.34446  20249999.6334                   20249996.2464
   4124721.06346   3191807.96144  24219758.0004                   24219755.6294
    908449.85548    707579.05546  21043926.0394                   21043921.5704
   3423008.49648   2652207.33246  21108852.1024                   21108847.8554
   -677928.41847   -513245.78544  24198237.1564                   24198235.0784
 11  8 24 16 18 30.0000000  0 11G03G06G07G08G10G11G13G16G19G23G28
   3322963.40247   2574404.59445  21775277.8444                   21775276.8364
   3891659.68046   3015408.57844  23697531.0004                   23697531.3754
   -589437.52047   -451394.59845  21821280.7734                   21821278.4064
  -1047186.47746   -806705.77742  23620471.9694                   23620471.8164
   2186275.65646   1696017.05944  24326475.3914                   24326475.5514
  -1110715.11347   -849484.50844  24146043.1484                   24146042.5434
   1686961.66848   1309930.85247  20251653.5314                   20251650.7934
   4198329.24646   3249164.90644  24233765.3984                   24233763.4534
    893652.06647    696048.27746  21041110.0864                   21041105.6454
   3483663.75848   2699471.11746  21120394.3754                   21120390.6294
   -754466.30146   -572885.66844  24183672.0004                   24183670.4454
 11  8 24 16 19  0.0000000  0 11G03G06G07G08G10G11G13G16G19G23G28
   3379456.74247   2618425.30945  21786029.3284                   21786026.3484
   3962494.09046   3070604.13744  23711010.5634                   23711010.2934
   -657800.43447   -504664.39545  21808271.7194                   21808268.4844
  -1131838.46946   -872668.23442  23604363.0554                   23604361.5944
   2206442.79746   1711731.67644  24330312.7114                   24330313.6884
  -1203379.06247   -921690.14144  24128410.0474                   24128409.2344
   1696047.94548   1317011.04346  20253382.7114                   20253379.4964
   4271677.40646   3306319.17644  24247723.4384                   24247722.5904
    879274.26247    684844.77346  21038374.3364                   21038370.0554
   3544575.01248   2746934.36746  21131985.4844                   21131981.2664
   -830979.08246   -632506.01244  24169111.2114                   24169109.5664
 11  8 24 16 19 30.0000000  0 11G03G06G07G08G10G11G13G16G19G23G28
   3436223.06347   2662658.76244  21796831.3524                   21796829.8714
   4033439.43446   3125886.12544  23724510.7274                   23724511.3204
   -726289.40647   -558032.42245  21795239.2274                   21795236.1174
  -1216748.53146   -938831.93043  23588204.3444                   23588202.9844
   2226753.12547   1727557.84444  24334178.2894                   24334178.6134
  -1296272.59446   -994074.62943  24110731.8594                   24110731.1844
   1705529.89148   1324399.55946  20255186.2424                   20255184.6914
   4344766.15646   3363271.31644  24261632.0164                   24261630.1454
    865317.89848    673969.68446  21035718.5554                   21035713.7464
   3605741.31348   2794596.38746  21143625.0554                   21143620.4494
   -907465.29346   -692105.60943  24154555.7664                   24154555.0474
 11  8 24 16 20  0.0000000  0 11G03G06G07G08G10G11G13G16G19G23G28
   3493261.19548   2707104.01645  21807685.3444                   21807684.9414
   4104494.32846   3181253.48444  23738033.1484                   23738033.5634
   -794901.97747   -611496.79345  21782182.7194                   21782179.6134
  -1301915.28146  -1005195.55543  23571999.3754                   23571996.6174
   2247204.95747   1743494.30944  24338069.3984                   24338069.4304
  -1389392.24246  -1066635.32043  24093012.6484                   24093012.5044
   1715408.18048   1332096.89546  20257066.5864                   20257063.7154
   4417595.27346   3420021.17243  24275490.9064                   24275489.0124
    851784.28148    663424.00846  21033143.0864                   21033139.6254
   3667161.57448   2842456.26646  21155313.1174                   21155308.5044
   -983924.03146   -751683.89144  24140006.1174                   24140005.7584
 11  8 24 16 20 30.0000000  0 11G03G06G07G08G10G11G13G16G19G23G28
   3550570.55547   2751760.63345  21818591.6174                   21818589.0434
   4175657.86746   3236705.57844  23751574.1254                   23751573.8834
   -863635.52047   -665055.40245  21769102.8444                   21769100.5354
  -1387336.09045  -1071757.15243  23555743.3834                   23555741.5864
   2267797.86346   1759540.66044  24341989.0004                   24341989.0904
  -1482733.38347  -1139368.61744  24075250.1484                   24075249.4534
   1725684.35248   1340104.28146  20259022.2344                   20259019.6374
   4490165.31345   3476569.09843  24289299.5314                   24289298.9924
    838675.57048    653209.42246  21030648.8054                   21030644.3484
   3728835.47748   2890513.79746  21167049.1724                   21167044.6174
  -1060353.79746   -811239.53144  24125463.1804                   24125462.2544
 11  8 24 16 21  0.0000000  0 11G03G06G07G08G10G11G13G16G19G23G28
   3608149.76247   2796627.50045  21829547.6804                   21829544.9924
   4246928.80146   3292241.28543  23765137.1414                   23765135.5824
   -932487.12947   -718706.01645  21756000.5084                   21755997.6884
  -1473009.41845  -1138515.62542  23539440.3444                   23539439.2464
   2288530.94946   1775696.23043  24345934.0234                   24345934.5984
  -1576291.87947  -1212271.27044  24057446.9694                   24057446.0314
   1736359.55148   1348422.57047  20261053.8364                   20261051.2464
   4562476.26256   3532915.26653  24303060.3754                   24303059.8554
    825992.86748    643326.77746  21028235.6024                   21028231.4454
   3790762.15648   2938768.28546  21178833.8204                   21178828.9454
  -1136753.01646   -870771.34844  24110924.6804                   24110923.6454
 11  8 24 16 21 30.0000000  0 11G03G06G07G08G10G11G13G16G19G23G28
   3665998.05547   2841704.05145  21840556.4454                   21840555.2114
   4318306.82446   3347860.46544  23778720.0164                   23778717.9304
  -1001453.95347   -772446.37945  21742876.1804                   21742874.5434
  -1558932.89845  -1205468.90242  23523089.7584                   23523088.3594
   2309403.53946   1791960.53543  24349906.2424                   24349906.3134
  -1670063.57446  -1285339.99643  24039601.7814                   24039601.1454
   1747434.59048   1357052.44546  20263161.3914                   20263158.4804
   4634529.04746   3589060.14843  24316771.5704                   24316770.3914
    813738.01648    633777.52746  21025903.3444                   21025898.8794
   3852941.28948   2987219.49646  21190666.2504                   21190662.0084
  -1213120.11046   -930278.11543  24096392.1334                   24096390.8444
 11  8 24 16 22  0.0000000  0 11G03G06G07G08G10G11G13G16G19G23G28
   3724114.30548   2886989.39545  21851615.8674                   21851614.3484
   4389790.82046   3403562.20744  23792322.8984                   23792323.9024
  -1070533.16847   -826274.35545  21729731.3594                   21729728.9024
  -1645104.42246  -1272615.55943  23506693.6024                   23506690.5314
   2330414.85246   1808332.95343  24353904.2344                   24353905.0044
  -1764043.89147  -1358571.37944  24021718.4774                   24021718.1884
   1758910.98048   1365995.05546  20265345.3134                   20265342.1764
   4706323.99246   3645004.17643  24330433.4694                   24330431.4264
    801912.71148    624562.95746  21023652.7114                   21023648.0164
   3915371.89848   3035866.65646  21202546.7034                   21202542.3714
  -1289453.71946   -989758.80543  24081866.9064                   24081864.4494
 11  8 24 16 22 30.0000000  0 11G03G06G07G08G10G11G13G16G19G23G28
   3782496.74247   2932482.12545  21862725.3204                   21862722.8444
   4461378.93446   3459345.07043  23805945.5084                   23805946.4344
  -1139722.98047   -880188.49645  21716565.4144                   21716562.1134
  -1731522.67646  -1339954.39543  23490246.5474                   23490246.4264
   2351563.18046   1824812.08643  24357928.4384                   24357928.7774
  -1858229.39847  -1431962.60543  24003795.3914                   24003795.0164
   1770788.73048   1375250.41846  20267605.6254                   20267602.4964
   4777860.73846   3700746.93444  24344047.7344                   24344044.5474
    790517.45747    615683.52346  21021484.1254                   21021479.8834
   3978052.42648   3084708.57846  21214473.8674                   21214469.9654
  -1365753.08246  -1049212.85543  24067347.1564                   24067346.2814
 11  8 24 16 23  0.0000000  0 11G03G06G07G08G10G11G13G16G19G23G28
   3841143.80548   2978181.07045  21873885.9844                   21873883.6804
   4533069.67246   3515207.93843  23819586.6804                   23819589.0314
  -1209020.82047   -934186.80945  21703378.6884                   21703375.3914
  -1818186.38746  -1407484.57043  23473755.5704                   23473755.0044
   2372846.98446   1841396.83243  24361979.0004                   24361977.8284
  -1952616.32847  -1505510.71943  23985833.7894                   23985833.8134
   1783068.56348   1384819.09046  20269942.0394                   20269939.1884
   4849139.40646   3756288.69144  24357611.7034                   24357610.0704
    779553.59048    607140.25846  21019398.1724                   21019393.4534
   4040981.83248   3133744.44146  21226448.8594                   21226445.6454
  -1442017.30546  -1108639.52343  24052834.8204                   24052833.6764
 11  8 24 16 23 30.0000000  0 11G03G06G07G08G10G11G13G16G19G23G28
   3900055.05147   3024085.87145  21885096.4064                   21885095.5394
   4604862.28546   3571150.10943  23833249.1644                   23833249.6254
  -1278423.87147   -988267.12145  21690171.0164                   21690168.4494
  -1905093.37546  -1475204.25843  23457217.4304                   23457215.3444
   2394265.76646   1858086.73843  24366054.1644                   24366054.2344
  -2047199.97747  -1579212.23043  23967835.5864                   23967834.3404
   1795751.85948   1394702.14146  20272355.6094                   20272352.5944
   4920160.58246   3811629.76243  24371125.8834                   24371123.7664
    769022.65248    598934.30946  21017394.3284                   21017389.3324
   4104159.75848   3182973.94146  21238471.3674                   21238468.0124
  -1518244.53946  -1168037.31244  24038327.8524                   24038328.2274
 11  8 24 16 24  0.0000000  0 11G03G06G07G08G10G11G13G16G19G23G28
   3959228.73447   3070195.14845  21896357.1334                   21896354.2774
   4676755.39146   3627170.63343  23846929.6254                   23846930.4694
  -1347929.33647  -1042427.20745  21676945.0234                   21676943.5704
  -1992241.44546  -1543111.81643  23440633.3284                   23440629.9774
   2415818.58246   1874881.08243  24370155.5394                   24370156.3404
  -2141976.80947  -1653064.20343  23949799.7194                   23949797.9304
   1808838.88748   1404899.79746  20274846.1334                   20274842.8284
   4990924.51646   3866770.42643  24384591.7274                   24384590.6134
    758925.46548    591066.35546  21015472.7664                   21015468.6214
   4167584.51648   3232395.77746  21250540.1094                   21250536.9774
  -1594434.02746  -1227405.71144  24023829.9534                   24023829.2934
 11  8 24 16 24 30.0000000  0 11G03G06G07G08G10G11G13G16G19G23G28
   4018662.21548   3116506.92245  21907667.3914                   21907663.5124
   4748746.67246   3683267.64543  23860629.5704                   23860628.2974
  -1417535.94548  -1096666.10245  21663699.4924                   21663696.9924
  -2079629.75046  -1611206.60543  23424004.7974                   23424002.1994
   2437503.08245   1891778.07043  24374282.8134                   24374283.4804
  -2236943.69147  -1727064.27343  23931727.3594                   23931727.5434
   1822329.55147   1415411.97746  20277413.3914                   20277410.3484
   5061430.07847   3921709.78943  24398008.9924                   24398003.9844
    749262.62148    583536.85546  21013633.9304                   21013629.1994
   4231254.62948   3282008.80146  21262656.4924                   21262652.9024
  -1670585.77046  -1286744.68043  24009338.4694                   24009337.7974
 11  8 24 16 25  0.0000000  0 11G03G06G07G08G10G11G13G16G19G23G28
   4078354.46548   3163020.30545  21919025.7034                   21919023.8134
   4820835.32446   3739440.55143  23874347.2894                   23874346.0704
  -1487240.80947  -1150981.57845  21650434.6884                   21650431.6684
  -2167256.18447  -1679486.87943  23407329.7504                   23407329.0864
   2459318.36346   1908776.88343  24378433.4224                   24378434.3874
  -2332096.16047  -1801208.97343  23913621.1174                   23913621.2734
   1836224.58247   1426239.23846  20280057.6884                   20280054.8204
   5131678.08647   3976448.43042  24411376.7814                   24411369.7424
    740035.26648    576346.69546  21011878.2814                   21011873.0944
   4295168.97748   3331812.12546  21274819.2734                   21274815.0124
  -1746698.23846  -1346053.04743  23994855.8984                   23994853.4344
 11  8 24 16 25 30.0000000  0 11G03G06G07G08G10G11G13G16G19G23G28
   4138304.12548   3209734.29745  21930433.7344                   21930432.0634
   4893019.73446   3795688.00944  23888085.1254                   23888082.1764
  -1557041.69547  -1205371.89145  21637152.0234                   21637149.0824
  -2255119.37547  -1747951.69944  23390610.3054                   23390609.9574
   2481262.95746   1925876.48043  24382609.6954                   24382611.9144
  -2427430.30947  -1875495.29743  23895479.4614                   23895478.7974
   1850524.29748   1437381.85246  20282778.7974                   20282776.0044
   5201668.62547   4030986.41043  24424696.9144                   24424688.7504
    731244.44548    569496.69546  21010205.4304                   21010201.4844
   4359326.57848   3381805.01246  21287028.2584                   21287023.3714
  -1822770.33247  -1405329.96544  23980379.7034                   23980377.9654
 11  8 24 16 26  0.0000000  0 11G03G06G07G08G10G11G13G16G19G23G28
   4198509.95347   3256647.87545  21941890.5554                   21941888.3404
   4965298.81347   3852009.32044  23901838.6954                   23901837.5394
  -1626935.80547  -1259834.84445  21623851.5474                   21623848.5704
  -2343217.24647  -1816599.30143  23373845.5864                   23373844.6414
   2503335.68845   1943075.91443  24386809.8134                   24386811.7304
  -2522941.93047  -1949919.90643  23877304.6484                   23877303.8714
   1865229.73848   1448840.59846  20285577.0864                   20285574.4384
   5271401.75046   4085323.78543  24437964.7274                   24437961.0824
    722891.30548    562987.75446  21008615.9774                   21008612.3404
   4423726.44948   3431986.66846  21299283.1564                   21299279.1214
  -1898800.76246  -1464574.42344  23965910.2504                   23965910.6844
 11  8 24 16 26 30.0000000  0 11G03G06G07G08G10G11G13G16G19G23G28
   4258971.00847   3303760.34845  21953395.8134                   21953395.0554
   5037671.78547   3908403.80544  23915611.6174                   23915611.1844
  -1696919.95747  -1314367.93745  21610533.4774                   21610531.3204
  -2431547.16047  -1885427.78943  23357036.2664                   23357034.8954
   2525535.99646   1960374.74243  24391035.0634                   24391035.1134
  -2618626.71147  -2024479.43043  23859097.0004                   23859094.8054
   1880341.97748   1460616.32046  20288453.2424                   20288450.0904
   5340878.41046   4139461.38743  24451186.0004                   24451184.3984
    714976.90248    556820.66446  21007109.5784                   21007105.5704
   4488367.60948   3482356.33646  21311583.7194                   21311579.8484
  -1974788.34846  -1523785.42644  23951450.5554                   23951450.3874
 11  8 24 16 27  0.0000000  0 11G03G06G07G08G10G11G13G16G19G23G28
   4319684.26247   3351069.30945  21964948.9224                   21964948.5084
   5110135.94947   3964869.28144  23929401.6804                   23929400.4144
  -1766993.19548  -1368970.46545  21597199.5784                   21597195.9414
  -2520108.87947  -1954436.88743  23340183.4454                   23340179.2664
   2547861.09046   1977770.84843  24395284.3594                   24395284.1604
  -2714482.03147  -2099171.79344  23840855.7114                   23840856.1884
   1895860.07048   1472708.30946  20291405.9694                   20291403.0904
   5410097.34845   4193398.21543  24464356.4304                   24464356.2854
    707501.15648    550995.39846  21005686.8284                   21005682.9534
   4553247.28548   3532911.85246  21323930.2274                   21323926.0474
  -2050733.40646  -1582963.33643  23936998.4534                   23936998.5744
 11  8 24 16 27 30.0000000  0 11G03G06G07G08G10G11G13G16G19G23G28
   4380650.06347   3398575.06345  21976551.5164                   21976548.5234
   5182691.60247   4021406.10244  23943209.2504                   23943207.0904
  -1837151.08248  -1423638.94546  21583849.1414                   21583846.4884
  -2608898.68047  -2023623.77343  23323287.6724                   23323283.9844
   2570311.49646   1995264.61343  24399556.8984                   24399555.1454
  -2810501.97746  -2173992.47744  23822583.3754                   23822581.3874
   1911786.27748   1485118.30546  20294436.8204                   20294433.8834
   5479060.51246   4247135.60943  24477481.6414                   24477479.4844
    700466.81648    545514.07846  21004348.9924                   21004344.6214
   4618366.87548   3583654.32046  21336322.4614                   21336318.0634
  -2126632.73846  -1642105.64544  23922555.9614                   23922554.9024
 11  8 24 16 28  0.0000000  0 11G03G06G07G08G10G11G13G16G19G23G28
   4441864.97347   3446274.94945  21988199.6414                   21988197.9774
   5255335.59446   4078011.74643  23957031.1334                   23957030.8054
  -1907392.90648  -1478372.84846  21570482.3284                   21570479.8594
  -2697916.55147  -2092988.32843  23306348.5944                   23306346.7504
   2592884.24647   2012853.67643  24403851.2194                   24403850.9144
  -2906684.59847  -2248939.96944  23804281.6094                   23804281.1644
   1928118.74248   1497844.86346  20297544.5784                   20297541.8554
   5547766.24646   4300672.45743  24490555.9774                   24490552.1484
    693872.59048    540375.72746  21003093.7344                   21003089.4884
   4683722.84448   3634580.99645  21348758.6024                   21348754.8984
  -2202487.76647  -1701213.41444  23908121.9534                   23908119.5864
 11  8 24 16 28 30.0000000  0 11G03G06G07G08G10G11G13G16G19G23G28
   4503326.50047   3494166.96145  21999895.5634                   21999893.8874
   5328065.43146   4134684.27143  23970871.5474                   23970870.4304
  -1977717.52348  -1533171.23846  21557100.6024                   21557097.3754
  -2787162.06246  -2162530.26243  23289364.8364                   23289364.0474
   2615576.85247   2030536.16043  24408170.1644                   24408169.6254
  -3003026.81246  -2324011.76643  23785947.4614                   23785945.6764
   1944856.93448   1510887.57446  20300729.5864                   20300726.9024
   5616213.71146   4354008.00443  24503582.2734                   24503577.7974
    687718.47348    535580.29746  21001922.6884                   21001918.4414
   4749312.74248   3685689.94546  21361239.8284                   21361236.5394
  -2278298.55946  -1760286.73044  23893694.7814                   23893693.8134
 11  8 24 16 29  0.0000000  0 11G03G06G07G08G10G11G13G16G19G23G28
   4565032.62147   3542249.60545  22011637.1804                   22011634.3244
   5400879.41846   4191422.35543  23984727.1254                   23984726.1804
  -2048122.52348  -1588032.27746  21543702.5004                   21543699.8794
  -2876633.43446  -2232248.17243  23272339.0394                   23272337.9104
   2638387.48846   2048310.62543  24412510.5084                   24412508.8794
  -3099525.01246  -2399205.14544  23767584.3204                   23767583.7774
   1962001.07048   1524246.62146  20303992.1174                   20303989.2624
   5684402.96146   4407142.35543  24516557.4454                   24516554.0634
    682004.94948    531128.19146  21000835.0864                   21000831.1994
   4815135.09048   3736980.03546  21373765.8284                   21373762.0944
  -2354064.21546  -1819324.85244  23879275.8754                   23879276.0984
 11  8 24 16 29 30.0000000  0 11G03G06G07G08G10G11G13G16G19G23G28
   4626982.12547   3590521.85245  22023425.7034                   22023424.3794
   5473776.56546   4248225.21143  23998599.3674                   23998598.3834
  -2118605.00048  -1642953.69546  21530290.1644                   21530287.5084
  -2966328.74647  -2302140.63343  23255270.2504                   23255269.0084
   2661315.16846   2066176.30143  24416873.6024                   24416873.2734
  -3196174.90647  -2474516.70343  23749192.5554                   23749191.4534
   1979551.73847   1537922.44946  20307331.8594                   20307329.3404
   5752334.18046   4460075.60543  24529483.1174                   24529481.8444
    676733.07448    527020.21946  20999832.3914                   20999828.2774
   4881188.91448   3788450.49246  21386335.3914                   21386331.3634
  -2429783.66046  -1878326.96144  23864867.1884                   23864867.3444
 11  8 24 16 30  0.0000000  0 11G03G06G07G08G10G11G13G16G19G23G28
   4689172.91047   3638982.16445  22035260.6484                   22035259.8204
   5546755.01246   4305091.46543  24012485.4144                   24012486.6214
  -2189162.74248  -1697933.75446  21516863.5554                   21516860.3754
  -3056246.45346  -2372206.39143  23238160.2894                   23238156.9694
   2684358.51247   2084132.04743  24421258.6484                   24421259.3554
  -3292972.85946  -2549943.65244  23730771.8914                   23730770.8634
   1997509.08647   1551915.13746  20310749.3754                   20310746.7034
   5820007.62946   4512808.11743  24542361.8444                   24542360.7274
    671903.03948    523256.52346  20998913.2974                   20998909.0784
   4947472.29348   3840099.82046  21398948.9144                   21398945.4104
  -2505456.23447  -1937292.57044  23850467.6954                   23850467.1024
 11  8 24 16 30 30.0000000  0 11G03G06G07G08G10G11G13G16G19G23G28
   4751604.80548   3687630.33245  22047141.5864                   22047139.0824
   5619814.48046   4362020.82443  24026388.6254                   24026389.5084
  -2259792.20348  -1752969.68746  21503423.2034                   21503419.9574
  -3146383.00847  -2442442.65243  23221008.1334                   23221005.5514
   2707517.00047   2102177.57843  24425665.8754                   24425665.4844
  -3389913.72347  -2625481.91044  23712324.5554                   23712321.7934
   2015873.73848   1566225.23446  20314243.7114                   20314240.8554
   5887424.30546   4565340.57444  24555190.0234                   24555188.8714
    667516.74648    519838.60946  20998078.1484                   20998074.5664
   5013985.33248   3891928.09846  21411605.9534                   21411602.7384
  -2581080.16846  -1996220.26244  23836077.2344                   23836076.6804
 11  8 24 16 31  0.0000000  0 11G03G06G07G08G10G11G13G16G19G23G28
   4814276.44548   3736465.32845  22059067.7194                   22059065.8284
   5692954.24646   4419012.75843  24040307.7584                   24040306.8134
  -2330490.36348  -1808059.15646  21489969.5784                   21489966.8014
  -3236736.67647  -2512848.05943  23203814.3054                   23203812.2704
   2730789.51247   2120311.87943  24430094.7974                   24430093.7974
  -3486992.75447  -2701127.88744  23693851.5944                   23693849.8954
   2034647.05548   1580853.75446  20317816.3204                   20317813.3954
   5954585.21546   4617673.67643  24567970.5164                   24567969.8984
    663575.21548    516767.26246  20997328.2974                   20997324.2814
   5080727.33248   3943934.79345  21424307.1094                   21424302.0274
  -2656653.85547  -2055108.80144  23821695.9144                   23821694.4304
 11  8 24 16 31 30.0000000  0 11G03G06G07G08G10G11G13G16G19G23G28
   4877185.98047   3785485.69145  22071039.1414                   22071037.6994
   5766172.13746   4476065.59843  24054241.4384                   24054240.2424
  -2401255.18448  -1863200.57446  21476503.7034                   21476500.6094
  -3327305.89847  -2583421.44943  23186579.3364                   23186577.4224
   2754174.19547   2138533.60943  24434544.5474                   24434545.3094
  -3584206.80147  -2776879.03144  23675352.5394                   23675349.3984
   2053828.42248   1595800.23846  20321466.7194                   20321463.2344
   6021490.06346   4669807.28143  24580702.2584                   24580700.8284
    660078.29748    514042.37946  20996662.8674                   20996659.0394
   5147696.23848   3996118.28546  21437050.6414                   21437046.1094
  -2732177.25447  -2113958.16044  23807324.5234                   23807323.6214
 11  8 24 16 32  0.0000000  0 11G03G06G07G08G10G11G13G16G19G23G28
   4940332.97347   3834691.09445  22083054.7894                   22083053.8014
   5839468.22346   4533179.37143  24068188.2504                   24068187.3324
  -2472082.44148  -1918390.64146  21463025.7664                   21463023.0514
  -3418087.47746  -2654160.30543  23169303.8284                   23169303.3204
   2777671.09046   2156842.80943  24439015.1884                   24439016.0904
  -3681550.40647  -2852731.17244  23656827.9534                   23656827.3984
   2073419.28148   1611065.79746  20325194.8674                   20325191.2344
   6088140.37146   4721742.50043  24593386.4614                   24593383.9774
    657028.67648    511666.02746  20996082.5004                   20996078.8134
   5214891.78948   4048478.38746  21449837.2344                   21449833.1804
  -2807647.71147  -2172766.28944  23792963.3284                   23792962.1884
 11  8 24 16 32 30.0000000  0 11G03G06G07G08G10G11G13G16G19G23G28
   5003717.38747   3884081.50445  22095116.1484                   22095116.0044
   5912842.62947   4590354.17244  24082151.6414                   24082151.4304
  -2542968.34848  -1973626.40246  21449536.5554                   21449533.6954
  -3509077.77746  -2725061.82043  23151988.9614                   23151987.7074
   2801280.48446   2175239.63743  24443508.5164                   24443508.6094
  -3779018.04347  -2928679.90644  23638280.0634                   23638278.8284
   2093421.63348   1626651.98446  20329001.1484                   20328998.1334
   6154537.85947   4773480.73043  24606021.5004                   24606018.8754
    654427.96948    509639.46946  20995588.0784                   20995583.4574
   5282314.35548   4101015.35945  21462667.8134                   21462662.5944
  -2883062.92647  -2231531.38744  23778611.8364                   23778611.4224
 11  8 24 16 33  0.0000000  0 11G03G06G07G08G10G11G13G16G19G23G28
   5067338.35547   3933656.23445  22107223.8984                   22107222.9064
   5986294.64146   4647589.40644  24096128.7504                   24096128.8594
  -2613909.52748  -2028905.23046  21436036.5164                   21436033.8364
  -3600274.23046  -2796123.93743  23134634.3674                   23134632.7664
   2825001.40646   2193723.34443  24448021.8204                   24448024.0634
  -3876605.01246  -3004721.68044  23619711.1884                   23619709.1524
   2113836.22348   1642559.41046  20332886.2814                   20332882.7384
   6220683.68846   4825022.80943  24618608.6254                   24618606.0864
    652277.57848    507963.82446  20995178.6884                   20995174.3554
   5349963.27747   4153728.73045  21475540.3594                   21475536.4534
  -2958421.55547  -2290252.35544  23764271.8284                   23764271.4804
 11  8 24 16 33 30.0000000  0 11G03G06G07G08G10G11G13G16G19G23G28
   5131194.42647   3983414.15645  22119374.4384                   22119373.4024
   6059823.03146   4704884.16844  24110121.1884                   24110120.6914
  -2684903.25448  -2084225.02046  21422527.0164                   21422524.3954
  -3691674.85247  -2867345.15644  23117242.1564                   23117240.1094
   2848832.35946   2212292.75843  24452556.7274                   24452557.0864
  -3974307.14546  -3080853.18744  23601118.3134                   23601116.4654
   2134663.13748   1658788.12146  20336848.8134                   20336845.8444
   6286578.07046   4876368.99643  24631147.3834                   24631145.0594
    650578.15648    506639.57446  20994855.0554                   20994850.8164
   5417837.05947   4206617.30945  21488456.5084                   21488452.5354
  -3033722.69147  -2348928.60244  23749942.8594                   23749941.1454
 11  8 24 16 34  0.0000000  0 11G03G06G07G08G10G11G13G16G19G23G28
   5195284.33647   4033354.26645  22131571.1334                   22131569.8914
   6133426.88746   4762237.72743  24124128.2504                   24124127.1414
  -2755946.41448  -2139583.32846  21409008.0314                   21409005.0084
  -3783277.28147  -2938723.66444  23099810.3364                   23099808.9454
   2872772.53146   2230947.44142  24457112.1884                   24457111.3914
  -4072119.59446  -3157070.65644  23582505.2344                   23582503.2854
   2155903.02048   1675338.64546  20340890.9694                   20340887.8484
   6352222.21546   4927520.19543  24643639.1804                   24643637.5664
    649330.57048    505667.41846  20994617.8524                   20994613.4924
   5485935.10248   4259680.64845  21501415.5234                   21501411.8524
  -3108964.91047  -2407558.89144  23735623.9844                   23735623.2234
 11  8 24 16 34 30.0000000  0 11G03G06G07G08G10G11G13G16G19G23G28
   5259607.80947   4083476.40245  22143811.6954                   22143810.6564
   6207106.11746   4819650.07043  24138147.8754                   24138147.7974
  -2827035.05548  -2194977.06646  21395480.4614                   21395477.5864
  -3875078.05547  -3010256.71144  23082341.7194                   23082339.3404
   2896822.00046   2249687.19142  24461689.7664                   24461688.3524
  -4170037.34047  -3233370.13744  23563871.9614                   23563871.6334
   2177557.19548   1692211.99646  20345011.2504                   20345008.5984
   6417617.28746   4978477.33543  24656083.4384                   24656080.9884
    648536.52348    505048.66446  20994466.1954                   20994462.3324
   5554257.19148   4312918.58646  21514416.3134                   21514413.1844
  -3184145.94947  -2466141.50444  23721316.6644                   23721315.3954
 11  8 24 16 35  0.0000000  0 11G03G06G07G08G10G11G13G16G19G23G28
   5324163.62947   4133779.57844  22156095.5634                   22156093.9144
   6280859.60946   4877120.23444  24152182.4144                   24152182.7544
  -2898166.16448  -2250403.90246  21381944.8284                   21381941.5164
  -3967074.98447  -3081942.62544  23064835.1094                   23064833.5744
   2920979.45646   2268511.09943  24466286.5554                   24466286.8204
  -4268055.70347  -3309748.04744  23545220.2344                   23545218.8914
   2199626.13348   1709408.54346  20349211.0394                   20349208.3794
   6482764.26246   5029241.10243  24668480.5864                   24668479.0554
    648196.90248    504784.00846  20994402.5784                   20994397.7854
   5622802.13348   4366330.16046  21527460.5634                   21527456.7234
  -3259264.67647  -2524675.60243  23707022.8364                   23707020.6374
 11  8 24 16 35 30.0000000  0 11G03G06G07G08G10G11G13G16G19G23G28
   5388951.32847   4184263.44545  22168424.7114                   22168423.8874
   6354687.70346   4934648.48843  24166231.0474                   24166232.6484
  -2969335.45748  -2305860.49246  21368401.5634                   21368398.2894
  -4059264.80147  -3153778.80544  23047291.6094                   23047290.7774
   2945245.12946   2287419.40243  24470905.0164                   24470904.2384
  -4366169.36747  -3386200.20344  23526549.3594                   23526548.3714
   2222111.48448   1726929.56346  20353490.2814                   20353487.5514
   6547664.93846   5079812.91843  24680831.7504                   24680829.9304
    648314.04348    504875.28946  20994424.5314                   20994420.3164
   5691570.28148   4419915.65646  21540546.7894                   21540544.0944
  -3334318.70747  -2583159.23444  23692741.1174                   23692740.0354
 11  8 24 16 36  0.0000000  0 11G03G06G07G08G10G11G13G16G19G23G28
   5453971.75847   4234928.69544  22180798.1804                   22180794.6644
   6428591.09446   4992235.43043  24180294.5084                   24180295.7704
  -3040538.42648  -2361343.32446  21354851.9614                   21354849.1214
  -4151643.12547  -3225761.89544  23029712.9384                   23029710.9184
   2969619.81646   2306412.55543  24475541.3834                   24475542.4614
  -4464371.93447  -3462721.62144  23507861.3204                   23507858.9774
   2245015.12948   1744776.52046  20357848.3054                   20357845.9534
   6612321.99246   5130194.96943  24693135.1884                   24693133.8484
    648889.82448    505323.92646  20994533.9774                   20994529.8524
   5760562.38348   4473675.65246  21553676.4064                   21553671.9804
  -3409305.41447  -2641590.38744  23678471.2894                   23678469.3014
 11  8 24 16 36 30.0000000  0 11G03G06G07G08G10G11G13G16G19G23G28
   5519223.12147   4285773.84044  22193215.3984                   22193212.0704
   6502568.25845   5049879.88343  24194371.9534                   24194372.9344
  -3111772.19148  -2416850.12546  21341296.0314                   21341294.5554
  -4244207.93747  -3297890.27044  23012098.3204                   23012097.0004
   2994102.18445   2325489.61743  24480199.8054                   24480202.5394
  -4562659.41847  -3539309.23444  23489158.4694                   23489156.4734
   2268336.79348   1762949.20346  20362286.4384                   20362283.3674
   6676735.55146   5180387.32043  24705392.6254                   24705391.8134
    649924.96148    506130.51646  20994730.5084                   20994726.6644
   5829776.89148   4527608.94546  21566847.0704                   21566843.1844
  -3484223.62147  -2699968.16044  23664214.4844                   23664212.9924
 11  8 24 16 37  0.0000000  0 11G03G06G07G08G10G11G13G16G19G23G28
   5584704.91047   4336798.58645  22205675.8754                   22205673.1094
   6576619.22346   5107581.80543  24208464.5314                   24208464.7854
  -3183033.06648  -2472378.06646  21327735.5784                   21327733.9494
  -4336956.02047  -3370161.48045  22994448.9844                   22994448.0084
   3018691.78145   2344650.21943  24484880.9064                   24484881.8794
  -4661026.51647  -3615958.85244  23470439.8754                   23470438.1094
   2292078.08248   1781448.87946  20366804.4454                   20366801.3954
   6740907.20746   5230391.18043  24717603.6254                   24717602.7584
    651420.89148    507296.16846  20995015.9384                   20995011.3754
   5899213.41848   4581715.26246  21580060.0394                   21580056.4694
  -3559071.41047  -2758291.08644  23649971.5084                   23649970.2384
 11  8 24 16 37 30.0000000  0 11G03G06G07G08G10G11G13G16G19G23G28
   5650416.57447   4388002.44944  22218179.9144                   22218177.2774
   6650743.51646   5165340.92643  24222569.3134                   24222569.0864
  -3254317.17248  -2527924.12546  21314170.8364                   21314168.3054
  -4429884.42647  -3442573.18045  22976765.0944                   22976763.1604
   3043387.76655   2363893.75453  24489579.9224                   24489581.0274
  -4759468.13347  -3692666.53144  23451706.8444                   23451706.8674
   2316239.77348   1800276.13746  20371402.2034                   20371398.9774
   6804838.36346   5280207.58643  24729770.2974                   24729768.1094
    653378.88748    508821.86346  20995388.3914                   20995384.0394
   5968871.30147   4635994.05545  21593315.5234                   21593310.7074
  -3633847.19147  -2816557.91444  23635741.5314                   23635740.5204
 11  8 24 16 38  0.0000000  0 11G03G06G07G08G10G11G13G16G19G23G28
   5716357.79347   4439385.14845  22230727.9224                   22230727.1334
   6724940.96946   5223157.07843  24236688.6644                   24236688.6914
  -3325620.48848  -2583485.13746  21300602.5554                   21300600.0084
  -4522989.42247  -3515122.50445  22959048.2894                   22959046.8484
   3068190.47746   2383220.48443  24494301.8594                   24494300.6214
  -4857978.77047  -3769427.99244  23432960.3834                   23432959.6024
   2340823.00848   1819431.86746  20376079.5864                   20376076.8324
   6868530.67247   5329837.87544  24741890.7814                   24741888.6954
    655800.62148    510708.91846  20995849.0234                   20995845.1054
   6038750.67647   4690445.43845  21606613.2814                   21606608.8284
  -3708548.60247  -2874766.77344  23621526.9614                   23621526.2194
 11  8 24 16 38 30.0000000  0 11G03G06G07G08G10G11G13G16G19G23G28
   5782529.28947   4490947.32445  22243320.1094                   22243318.9344
   6799212.65247   5281031.06644  24250822.5314                   24250822.3714
  -3396938.03548  -2639057.23846  21287030.8444                   21287027.8714
  -4616266.93747  -3587806.25445  22941298.2584                   22941295.9264
   3093100.37946   2402630.77043  24499040.2734                   24499041.6454
  -4956551.84847  -3846238.12544  23414203.0634                   23414202.0434
   2365830.17248   1838917.92646  20380838.9304                   20380835.9804
   6931987.18446   5379284.43043  24753965.6954                   24753963.6954
    658688.68048    512959.34046  20996398.6644                   20996394.4304
   6108852.30547   4745070.00445  21619952.6884                   21619949.4884
  -3783172.60247  -2932915.30944  23607326.8054                   23607325.0514
 11  8 24 16 39  0.0000000  0 11G03G06G07G08G10G11G13G16G19G23G28
   5848931.94947   4542689.58245  22255956.4384                   22255955.3914
   6873560.06347   5338964.05144  24264971.9304                   24264971.0634
  -3468264.22748  -2694636.08646  21273458.4924                   21273454.9924
  -4709712.11347  -3660620.64544  22923516.0164                   22923512.8594
   3118118.98046   2422125.68443  24503800.6094                   24503801.4454
  -5055180.43747  -3923091.50444  23395434.4384                   23395432.8634
   2391263.77048   1858736.25846  20385678.7274                   20385676.0984
   6995211.45746   5428549.98043  24765996.8674                   24765995.7664
    662046.32448    515575.65646  20997037.7344                   20997032.8284
   6179177.80548   4799869.01645  21633335.5164                   21633331.7114
  -3857715.73847  -2991000.81244  23593140.4064                   23593140.2234
 11  8 24 16 39 30.0000000  0 11G03G06G07G08G10G11G13G16G19G23G28
   5915567.50847   4594613.32045  22268636.7274                   22268635.9384
   6947984.91447   5396957.36344  24279133.6484                   24279133.7304
  -3539593.35248  -2750217.20746  21259884.5314                   21259882.0824
  -4803319.75847  -3733561.64545  22905702.6414                   22905700.5634
   3143248.02346   2441706.75043  24508583.8984                   24508583.6054
  -5153857.47347  -3999982.62944  23376657.0944                   23376656.6094
   2417126.83648   1878889.25446  20390600.2584                   20390597.3754
   7058206.84846   5477637.27743  24777984.4304                   24777984.0234
    665876.68048    518560.33246  20997766.4064                   20997762.0514
   6249728.66048   4854843.62145  21646760.9144                   21646758.4144
  -3932174.04347  -3049020.23444  23578972.3364                   23578971.0634
 11  8 24 16 40  0.0000000  0 11G03G06G07G08G10G11G13G16G19G23G28
   5982434.75847   4646717.62944  22281361.0314                   22281358.6174
   7022486.46946   5455010.46543  24293309.3594                   24293310.6994
  -3610921.98048  -2805797.94546  21246310.8284                   21246308.8284
  -4897086.79747  -3806626.83245  22887859.5314                   22887857.6024
   3168486.71546   2461373.16843  24513386.2114                   24513387.1454
  -5252577.94147  -4076907.60544  23357870.5944                   23357869.5514
   2443419.82048   1899377.24646  20395603.6094                   20395601.0944
   7120974.30946   5526546.93043  24789927.4224                   24789927.5124
    670180.64848    521914.06346  20998585.8134                   20998581.1644
   6320503.92648   4909993.09846  21660229.5784                   21660226.5394
  -4006545.94947  -3106972.30144  23564819.8364                   23564818.2234
 11  8 24 16 40 30.0000000  0 11G03G06G07G08G10G11G13G16G19G23G28
   6049533.15647   4699002.04744  22294129.3524                   22294128.1454
   7097064.52746   5513123.21543  24307502.7034                   24307501.1804
  -3682245.92248  -2861375.02746  21232738.5864                   21232736.3634
  -4991009.99247  -3879813.69545  22869986.2584                   22869985.5944
   3193834.68846   2481124.77043  24518209.5084                   24518210.7894
  -5351336.96547  -4153862.60244  23339077.6484                   23339076.0314
   2470143.59048   1920200.92646  20400688.9844                   20400686.3874
   7183515.29346   5575280.10943  24801829.7664                   24801828.9734
    674959.53548    525637.86746  20999494.7114                   20999490.7464
   6391503.24648   4965317.14846  21673740.9694                   21673736.7344
  -4080829.80547  -3164855.80144  23550683.4924                   23550682.4224
 11  8 24 16 41  0.0000000  0 11G03G06G07G08G10G11G13G16G19G23G28
   6116861.22747   4751465.39544  22306941.7424                   22306939.4804
   7171717.71946   5571294.44943  24321707.1564                   24321707.0044
  -3753562.82848  -2916946.62146  21219167.4224                   21219164.9654
  -5085087.44547  -3953120.76645  22852084.1094                   22852083.0824
   3219289.95346   2500959.94143  24523053.8364                   24523054.6054
  -5450130.43747  -4230844.46944  23320278.0394                   23320275.9734
   2497297.78548   1941359.99246  20405856.3204                   20405853.8204
   7245830.38746   5623837.22743  24813687.5554                   24813686.7384
    680213.38348    529731.74646  21000495.2814                   21000490.6374
   6462724.88748   5020814.46546  21687293.5004                   21687289.6254
  -4155024.86747  -3222670.12544  23536564.5004                   23536563.1954
 11  8 24 16 41 30.0000000  0 11G03G06G07G08G10G11G13G16G19G23G28
   6184417.56346   4804106.61344  22319796.8444                   22319795.1684
   7246445.18846   5629523.57442  24335927.5554                   24335926.5984
  -3824869.46148  -2972510.23046  21205598.2034                   21205595.5824
  -5179316.84047  -4026546.24645  22834152.6564                   22834151.7194
   3244852.10246   2520878.42643  24527918.9924                   24527918.5044
  -5548953.37547  -4307849.25444  23301472.1094                   23301472.0354
   2524882.79348   1962854.75446  20411105.9534                   20411103.3364
   7307920.54746   5672219.09843  24825503.2664                   24825502.6764
    685942.66848    534196.11346  21001585.2974                   21001580.8094
   6534167.99648   5076484.32445  21700888.5164                   21700885.3284
  -4229130.09847  -3280414.39144  23522462.8204                   23522461.4774
 11  8 24 16 42  0.0000000  0 11G03G06G07G08G10G11G13G16G19G23G28
   6252199.15647   4856923.41444  22332695.7424                   22332694.2304
   7321244.31346   5687808.51642  24350160.4774                   24350160.5234
  -3896164.25448  -3028064.61346  21192031.4384                   21192028.6564
  -5273697.36347  -4100089.48845  22816193.0944                   22816190.6644
   3270518.02747   2540877.77043  24532802.2344                   24532802.8484
  -5647803.26247  -4384875.08644  23282661.5864                   23282661.3554
   2552896.84448   1984683.84846  20416436.5474                   20416434.1844
   7369785.05946   5720425.07043  24837276.3204                   24837274.9774
    692146.37547    539030.17246  21002765.9384                   21002761.1214
   6605829.45347   5132324.35945  21714524.5634                   21714521.1254
  -4303145.82847  -3338088.95344  23508378.1334                   23508377.6994
 11  8 24 16 42 30.0000000  0 10G03G06G07G08G10G11G13G19G23G28
   6320203.28947   4909913.60544  22345636.3674                   22345635.3834
   7396112.35246   5746147.16043  24364408.5634                   24364407.7704
  -3967445.38348  -3083608.35546  21178467.1174                   21178464.4414
  -5368227.52747  -4173749.33245  22798204.0394                   22798201.8914
   3296284.87946   2560955.77343  24537704.7894                   24537706.4414
  -5746676.96547  -4461919.46144  23263846.7894                   23263846.7854
   2581338.59848   2006846.22346  20421849.0554                   20421846.8204
    698823.44947    544233.03946  21004036.0314                   21004031.5474
   6677707.05148   5188332.78945  21728202.3134                   21728199.2034
  -4377072.46547  -3395694.09444  23494310.8914                   23494310.2734
 11  8 24 16 43  0.0000000  0 10G03G06G07G08G10G11G13G19G23G28
   6388426.62147   4963074.56344  22358619.2734                   22358617.8094
   7471046.86746   5804537.57843  24378668.8524                   24378667.4654
  -4038711.68048  -3139140.55146  21164905.4064                   21164903.0554
  -5462906.49647  -4247525.14545  22780186.4844                   22780185.4224
   3322149.81646   2581110.17243  24542627.4924                   24542627.9774
  -5845571.89847  -4538980.37944  23245028.5164                   23245027.5744
   2610206.23848   2029340.44946  20427342.5704                   20427340.0434
    705972.32448    549803.58246  21005396.5084                   21005392.1334
   6749797.55148   5244507.10945  21741921.5704                   21741917.7074
  -4450910.82847  -3453230.44544  23480259.9694                   23480259.4024
 11  8 24 16 43 30.0000000  0 10G03G06G07G08G10G11G13G19G23G28
   6456871.15247   5016407.94944  22371643.4064                   22371641.2154
   7546049.66046   5862981.27043  24392941.8834                   24392941.9414
  -4109956.77348  -3194656.20746  21151348.2274                   21151345.5634
  -5557728.64547  -4321412.51645  22762143.3444                   22762140.8014
   3348114.86746   2601342.55143  24547567.7344                   24547569.4414
  -5944479.80147  -4616051.42244  23226205.8444                   23226205.4614
   2639502.92648   2052168.98846  20432917.2274                   20432914.7974
    713596.57447    555744.55546  21006847.2114                   21006842.9884
   6822103.07048   5300848.99646  21755681.1804                   21755677.1644
  -4524656.80147  -3510694.80944  23466226.8134                   23466225.5474
 11  8 24 16 44  0.0000000  0 10G03G06G07G08G10G11G13G19G23G28
   6525537.63347   5069914.23444  22384710.2734                   22384708.4534
   7621122.39546   5921479.34043  24407227.6804                   24407227.4344
  -4181175.28148  -3250151.14546  21137795.4694                   21137792.5314
  -5652689.49647  -4395407.93745  22744072.6884                   22744070.4024
   3374181.11346   2621653.82843  24552528.5554                   24552528.3754
  -6043394.50847  -4693127.75444  23207382.9844                   23207381.9964
   2669230.71548   2075333.46146  20438574.4064                   20438572.3634
    721698.65248    562057.82846  21008390.1094                   21008384.5124
   6894624.40248   5357359.01645  21769481.6024                   21769477.9614
  -4598307.07447  -3568084.60944  23452210.9384                   23452209.6804
 11  8 24 16 44 30.0000000  0 10G03G06G07G08G10G11G13G19G23G28
   6594426.49247   5123593.81344  22397820.0004                   22397817.1604
   7696265.25846   5980032.09043  24421526.6254                   24421526.6954
  -4252362.63748  -3305621.81246  21124249.6884                   21124246.3594
  -5747784.80947  -4469508.14845  22725977.4144                   22725975.5704
   3400348.96146   2642044.28543  24557508.7734                   24557509.2074
  -6142309.72347  -4770204.49644  23188560.2734                   23188559.7234
   2699391.37548   2098835.22746  20444313.9774                   20444310.9734
    730280.54747    568745.03146  21010021.7344                   21010017.6134
   6967362.04348   5414037.60945  21783323.3524                   21783319.7664
  -4671859.03547  -3625397.81644  23438214.7034                   23438213.0314
 11  8 24 16 45  0.0000000  0 10G03G06G07G08G10G11G13G19G23G28
   6663538.97747   5177447.64544  22410971.5084                   22410969.5124
   7771479.80146   6038640.72344  24435839.9534                   24435840.0234
  -4323513.02048  -3361063.66846  21110710.1644                   21110706.7034
  -5843009.42248  -4543709.10545  22707856.1254                   22707854.7734
   3426619.69147   2662514.85543  24562507.6484                   24562509.1914
  -6241218.20347  -4847275.98044  23169738.6804                   23169736.7074
   2729987.44948   2122676.28146  20450136.1254                   20450133.7274
    739344.95748    575808.18446  21011747.8674                   21011742.8364
   7040316.99248   5470885.52745  21797205.8914                   21797202.4964
  -4745309.19947  -3682631.72744  23424238.1564                   23424236.1254
 11  8 24 16 45 30.0000000  0 10G03G06G07G08G10G11G13G19G23G28
   6732869.76247   5231471.54344  22424164.5234                   22424163.3244
   7846761.54746   6097301.73843  24450165.1094                   24450163.9734
  -4394626.81648  -3416477.01246  21097177.3914                   21097174.8324
  -5938364.43048  -4618011.67645  22689710.8444                   22689708.9494
   3452988.43846   2683061.83243  24567526.1414                   24567525.8204
  -6340119.40647  -4924341.77744  23150918.2194                   23150916.8594
   2761014.69948   2146853.31646  20456040.4454                   20456037.8754
    748888.66848    583244.82446  21013562.8054                   21013558.7544
   7113484.54348   5527899.11745  21811129.0634                   21811125.3954
  -4818660.17247  -3739788.31244  23410279.1254                   23410277.8364
 11  8 24 16 46  0.0000000  0 10G03G06G07G08G10G11G13G19G23G28
   6802417.38347   5285664.44944  22437398.9694                   22437396.7384
   7922109.69146   6156014.50043  24464504.3594                   24464502.3364
  -4465700.89848  -3471859.41446  21083652.1094                   21083649.6174
  -6033847.24648  -4692413.83645  22671540.7504                   22671539.5164
   3479454.07046   2703684.32043  24572562.3984                   24572562.2704
  -6439008.53147  -5001398.20344  23132099.8204                   23132097.7584
   2792473.37148   2171366.51246  20462026.9384                   20462024.1094
    758912.09448    591055.27046  21015470.8834                   21015466.0354
   7186863.65248   5585077.55145  21825092.9844                   21825089.8094
  -4891910.70747  -3796866.62544  23396340.6484                   23396339.0824
 11  8 24 16 46 30.0000000  0 10G03G06G07G08G10G11G13G19G23G28
   6872180.08247   5340024.93444  22450674.5394                   22450673.8914
   7997522.44146   6214777.57843  24478854.6254                   24478853.5554
  -4536732.77748  -3527208.92246  21070136.0234                   21070132.9454
  -6129455.69948  -4766913.90245  22653346.8834                   22653345.0824
   3506014.84046   2724380.89543  24577617.2734                   24577617.9534
  -6537881.98847  -5078442.38344  23113285.3674                   23113283.2934
   2824362.47748   2196215.12146  20468095.3134                   20468092.8984
    769414.60248    599239.03546  21017469.1884                   21017464.4614
   7260452.20348   5642419.18445  21839096.1334                   21839092.6644
  -4965060.76647  -3853866.64544  23382420.0394                   23382419.5634
 11  8 24 16 47  0.0000000  0 10G03G06G07G08G10G11G13G19G23G28
   6942156.86747   5394552.21544  22463989.5314                   22463988.9534
   8072998.90246   6273590.38743  24493217.5084                   24493217.0204
  -4607719.05948  -3582522.90646  21056627.5234                   21056624.1884
  -6225187.09848  -4841509.78545  22635129.2894                   22635127.9574
   3532669.65247   2745150.75043  24582689.5944                   24582690.5124
  -6636735.04347  -5155470.69544  23094474.0314                   23094470.2734
   2856682.44948   2221399.46546  20474245.7034                   20474242.3954
    780396.36348    607796.24246  21019559.2034                   21019554.9774
   7334248.91047   5699923.02745  21853139.3674                   21853135.8484
  -5038108.79747  -3910787.14544  23368519.9454                   23368517.0824
 11  8 24 16 47 30.0000000  0 10G03G06G07G08G10G11G13G19G23G28
   7012347.77347   5449246.35544  22477347.1024                   22477346.6094
   8148539.74246   6332453.32443  24507591.9064                   24507592.6054
  -4678655.00448  -3637797.67246  21043128.5314                   21043125.3444
  -6321037.14548  -4916198.12545  22616890.4384                   22616888.8204
   3559418.93446   2765994.23843  24587778.8134                   24587779.5984
  -6735561.48847  -5232478.27744  23075667.2894                   23075665.5274
   2889434.20348   2246920.25046  20480478.4224                   20480476.1764
    791859.10248    616728.22346  21021740.3284                   21021736.3364
   7408254.45347   5757589.57845  21867221.5394                   21867219.7814
  -5111052.64147  -3967626.49244  23354638.9224                   23354638.3054
 11  8 24 16 48  0.0000000  0 10G03G06G07G08G10G11G13G19G23G28
   7082753.13747   5504107.62944  22490745.0314                   22490744.5394
   8224145.64846   6391366.96943  24521979.7974                   24521979.0784
  -4749535.58648  -3693029.28146  21029640.2504                   21029637.1804
  -6417001.85548  -4990975.79345  22598628.6174                   22598627.3484
   3586263.02746   2786911.64543  24592888.0704                   24592888.0434
  -6834354.82047  -5309460.04344  23056867.8984                   23056864.8244
   2922619.60948   2272778.95746  20486793.0634                   20486790.4614
    803804.84448    626036.58646  21024013.2974                   21024009.3284
   7482469.05547   5815419.04745  21881344.7584                   21881342.3984
  -5183889.61347  -4024382.54344  23340778.4144                   23340776.4414
 11  8 24 16 48 30.0000000  0 10G03G06G07G08G10G11G13G19G23G28
   7153372.11746   5559135.35244  22504183.2664                   22504183.4224
   8299816.08246   6450330.85943  24536378.5704                   24536380.1564
  -4820357.38748  -3748215.10246  21016163.3754                   21016160.2624
  -6513078.16448  -5065840.43745  22580346.5234                   22580345.0234
   3613201.43846   2807902.50043  24598014.0394                   24598013.6484
  -6933110.56647  -5386412.53144  23038075.5164                   23038074.0784
   2956238.48048   2298975.43846  20493190.4844                   20493187.9734
    816234.05148    635721.66046  21026378.4774                   21026374.2274
   7556891.80147   5873410.69545  21895507.1954                   21895504.4694
  -5256618.02747  -4081054.00444  23326938.8134                   23326937.1454
 11  8 24 16 49  0.0000000  0 10G03G06G07G08G10G11G13G19G23G28
   7224204.08247   5614328.98844  22517663.1024                   22517661.8404
   8375551.27746   6509345.19942  24550790.6804                   24550792.3484
  -4891115.89848  -3803351.59046  21002698.5864                   21002695.2504
  -6609262.23448  -5140789.02045  22562042.5474                   22562041.0354
   3640233.68746   2828966.43743  24603157.7584                   24603158.3874
  -7031822.95347  -5463331.19944  23019289.9534                   23019289.1484
   2990291.60948   2325510.30946  20499670.4224                   20499667.7704
    829147.97747    645784.44146  21028835.9774                   21028831.6374
   7631522.79347   5931564.59045  21909709.6724                   21909705.8874
  -5329236.22747  -4137639.57044  23313119.7814                   23313117.0904
 11  8 24 16 49 30.0000000  0 10G03G06G07G08G10G11G13G19G23G28
   7295249.22747   5669688.77744  22531182.6334                   22531181.5514
   8451351.68045   6568410.33242  24565215.1414                   24565215.4844
  -4961806.57847  -3858435.23046  20989246.6094                   20989243.4844
  -6705549.72748  -5215818.22745  22543719.3524                   22543717.9304
   3667359.78946   2850103.57042  24608319.2664                   24608319.1684
  -7130485.89547  -5540211.38744  23000515.9614                   23000514.0704
   3024780.45348   2352384.68046  20506233.6644                   20506231.0044
    842548.04748    656226.03546  21031386.2274                   21031381.8244
   7706361.84847   5989880.63745  21923950.9924                   21923946.6954
  -5401741.69947  -4194137.29744  23299322.6804                   23299320.9184
 11  8 24 16 50  0.0000000  0 10G03G06G07G08G10G11G13G19G23G28
   7366506.56647   5725213.87944  22544742.1724                   22544741.1054
   8527216.35946   6627525.57443  24579653.3204                   24579652.8524
  -5032425.91448  -3913463.27746  20975808.2114                   20975805.5704
  -6801937.91048  -5290925.88346  22525378.1804                   22525375.6174
   3694578.98045   2871313.33642  24613498.6414                   24613499.8524
  -7229094.55547  -5617049.30144  22981751.3754                   22981750.5314
   3059704.73448   2379598.38746  20512879.3754                   20512877.0434
    856434.34448    667046.50446  21034028.4694                   21034024.5944
   7781407.70347   6048357.80545  21938231.1174                   21938226.8954
  -5474133.18747  -4250546.21544  23285546.7814                   23285545.5434
 11  8 24 16 50 30.0000000  0 10G03G06G07G08G10G11G13G19G23G28
   7437973.16847   5780902.06344  22558341.9384                   22558341.0004
   8603143.00446   6686689.18443  24594100.8054                   24594100.1914
  -5102972.17247  -3968434.38346  20962383.9304                   20962380.6804
  -6898425.30547  -5366110.84845  22507017.1174                   22507014.9184
   3721888.78546   2892593.57842  24618696.6094                   24618695.3244
  -7327645.96146  -5693842.57044  22962997.5634                   22962996.6054
   3095063.14848   2407150.33246  20519607.6414                   20519605.7814
    870805.75048    678245.00446  21036763.7734                   21036759.1254
   7856657.73047   6106994.10545  21952551.1644                   21952547.4414
  -5546411.17247  -4306866.64844  23271793.1334                   23271791.2424
 11  8 24 16 51  0.0000000  0 10G03G06G07G08G10G11G13G19G23G28
   7509646.95747   5836751.75044  22571981.2114                   22571979.4064
   8679130.26646   6745899.95743  24608560.8364                   24608561.7934
  -5173442.45748  -4023346.29746  20948973.4304                   20948970.7274
  -6995009.95748  -5441371.60245  22488637.4774                   22488634.7114
   3749287.42245   2913943.05942  24623910.7424                   24623910.3244
  -7426136.08647  -5770588.08244  22944254.4614                   22944255.5944
   3130854.04748   2435039.30946  20526418.6564                   20526416.3524
    885661.56348    689820.96546  21039590.6174                   21039585.5944
   7932110.52747   6165788.39145  21966908.8284                   21966905.3554
  -5618575.31647  -4363098.41044  23258060.1644                   23258059.7704
 11  8 24 16 51 30.0000000  0 10G03G06G07G08G10G11G13G19G23G28
   7581525.42647   5892760.85244  22585658.9454                   22585657.5234
   8755175.54746   6805155.96543  24623032.7584                   24623032.4614
  -5243835.03948  -4078197.64546  20935578.3284                   20935575.7424
  -7091690.70748  -5516707.22345  22470239.6484                   22470237.6214
   3776771.88346   2935359.41042  24629140.0554                   24629141.0204
  -7524561.44947  -5847283.14144  22925525.7194                   22925525.0394
   3167076.13748   2463264.26646  20533311.5164                   20533309.3404
    901000.14148    701773.09446  21042509.1254                   21042505.1414
   8007763.19547   6224738.40245  21981305.5784                   21981302.2704
  -5690626.29747  -4419241.99244  23244349.6564                   23244348.4184
 11  8 24 16 52  0.0000000  0 10G03G06G07G08G10G11G13G19G23G28
   7653607.45347   5948928.61744  22599376.1884                   22599374.0824
   8831277.82446   6864456.37543  24637513.8444                   24637513.7344
  -5314146.49248  -4132985.78146  20922198.5554                   20922196.1914
  -7188464.72348  -5592115.52346  22451823.9224                   22451822.4494
   3804341.21546   2956841.91443  24634386.2974                   24634388.1484
  -7622917.81647  -5923924.41044  22906809.1024                   22906809.5434
   3203728.64148   2491824.62146  20540286.4534                   20540284.2114
    916821.73848    714101.59446  21045520.1484                   21045515.6914
   8083614.07847   6283842.88745  21995739.7114                   21995736.7974
  -5762563.03147  -4475296.55144  23230660.2664                   23230658.5124
 11  8 24 16 52 30.0000000  0 10G03G06G07G08G10G11G13G19G23G28
   7725890.24246   6005252.79343  22613130.2424                   22613129.1724
   8907435.67646   6923800.11743  24652005.5234                   24652005.5394
  -5384374.68448  -4187709.03946  20908834.4534                   20908832.3324
  -7285330.11348  -5667595.02046  22433391.6334                   22433390.1724
   3831992.98846   2978388.72743  24639649.3444                   24639650.0354
  -7721201.68047  -6000509.23844  22888106.7424                   22888104.5984
   3240810.66448   2520719.63746  20547343.4454                   20547340.3674
    933125.28148    726805.62946  21048622.7894                   21048618.0664
   8159661.09447   6343100.19145  22010210.4694                   22010208.6374
  -5834385.33247  -4531261.94544  23216992.5394                   23216991.2544
 11  8 24 16 53  0.0000000  0 10G03G06G07G08G10G11G13G19G23G28
   7798371.98047   6061732.04743  22626922.9924                   22626922.2424
   8983647.52746   6983185.93843  24666508.6174                   24666507.1724
  -5454516.47348  -4242364.98046  20895486.9064                   20895484.7774
  -7382284.28548  -5743143.68746  22414941.2114                   22414939.7704
   3859725.80946   2999998.63343  24644927.3674                   24644928.2344
  -7819408.52747  -6077034.00444  22869418.0474                   22869416.7234
   3278321.33648   2549948.68846  20554481.4144                   20554478.6524
    949910.13748    739884.72346  21051816.8524                   21051812.3244
   8235902.60247   6402509.07845  22024718.9774                   22024716.5474
  -5906092.96546  -4587138.01244  23203346.8054                   23203345.6134
 11  8 24 16 53 30.0000000  0 10G03G06G07G08G10G11G13G19G23G28
   7871049.82047   6118364.05543  22640753.1254                   22640752.9884
   9059910.53556   7042611.54353  24681020.8984                   24681018.7154
  -5524570.82048  -4296952.77046  20882156.2814                   20882153.6524
  -7479326.30548  -5818760.81645  22396474.9774                   22396473.5664
   3887536.46146   3021669.18043  24650219.3444                   24650220.9144
  -7917535.88347  -6153496.85244  22850745.4224                   22850743.8554
   3316258.23048   2579509.84846  20561700.5634                   20561697.4964
    967174.30948    753337.30546  21055101.8674                   21055097.9884
   8312335.12547   6462066.77745  22039264.2734                   22039260.9184
  -5977686.98846  -4642925.50444  23189722.5944                   23189722.0234
 11  8 24 16 54  0.0000000  0 10G03G06G07G08G10G11G13G19G23G28
   7943921.05946   6175146.76243  22654619.8834                   22654619.3244
   9136222.32046   7102075.23043  24695542.6804                   24695541.0704
  -5594535.74648  -4351470.89146  20868842.5394                   20868839.6254
  -7576455.09448  -5894445.56246  22377992.0394                   22377990.3554
   3915422.33645   3043398.36342  24655524.7664                   24655527.9344
  -8015580.72347  -6229895.36744  22832087.4454                   22832085.0274
   3354619.48848   2609401.68046  20569000.1644                   20568997.7774
    984916.52048    767162.38346  21058478.3204                   21058474.7344
   8388956.07047   6521771.30145  22053844.9614                   22053841.5554
  -6049167.69947  -4698624.72744  23176121.2274                   23176119.4224
 11  8 24 16 54 30.0000000  0 10G03G06G07G08G10G11G13G19G23G28
   8016980.59847   6232076.16043  22668523.8444                   22668523.8204
   9212578.71146   7161573.61343  24710072.4224                   24710072.4494
  -5664411.30548  -4405919.36346  20855545.4064                   20855542.5394
  -7673671.30148  -5970198.43746  22359492.4534                   22359490.3594
   3943379.05546   3065182.70342  24660844.4304                   24660847.0124
  -8113541.59847  -6306228.46544  22813446.5864                   22813445.1294
   3393401.37948   2639621.27346  20576379.9224                   20576377.3364
   1003133.08648    781357.10246  21061944.7344                   21061940.9534
   8465760.70747   6581618.95345  22068460.2424                   22068458.2624
  -6120537.60546  -4754237.59444  23162539.8444                   23162538.0124
 11  8 24 16 55  0.0000000  0  9G03G07G08G10G11G13G19G23G28
   9665643.09047   7516748.18044  22982254.1564                   22982251.6884
  -4158773.38747  -3232694.98846  21142058.6804                   21142055.9344
  -6195550.28148  -4818415.80146  22640769.7114                   22640767.6334
   5546822.57046   4314619.03942  24965970.2734                   24965971.8874
  -6635992.23047  -5154891.24244  23094615.3984                   23094613.1844
   5008020.36748   3897765.89846  20883631.7344                   20883629.1334
   2597241.64148   2023519.59846  21365293.7504                   21365288.9264
  10118163.83647   7869205.67645  22382901.9614                   22382899.6054
  -4616375.22746  -3582162.96544  23448772.9534                   23448769.9344
 11  8 24 16 55 30.0000000  0  9G03G07G08G10G11G13G19G23G28
   9739069.36747   7573963.39143  22996226.8134                   22996223.9224
  -4228465.93748  -3287000.88346  21128797.1414                   21128793.8524
  -6292938.84847  -4894302.97346  22622236.9064                   22622235.8324
   5574910.68446   4336505.84842  24971316.5314                   24971315.9494
  -6733777.53547  -5231087.51244  23076006.7424                   23076004.5514
   5047635.74248   3928634.97346  20891170.2894                   20891168.3754
   2616400.48847   2038448.56646  21368939.6094                   21368934.0664
  10195325.93047   7929331.86345  22397585.9454                   22397582.6764
  -4687527.20646  -3637606.01744  23435231.9694                   23435229.6294
 11  8 24 16 56  0.0000000  0  9G03G07G08G10G11G13G19G23G28
   9812675.86747   7631319.03944  23010233.2734                   23010231.6524
  -4298063.32048  -3341232.59046  21115552.5314                   21115549.5084
  -6390410.57047  -4970254.94946  22603688.3984                   22603686.9964
   5603061.55547   4358441.50843  24976673.2894                   24976671.2344
  -6831469.51647  -5307211.10944  23057416.6644                   23057414.2034
   5087665.71148   3959827.12146  20898788.0554                   20898785.5704
   2636028.56347   2053743.15246  21372674.4844                   21372669.9384
  10272663.55947   7989594.79345  22412302.7424                   22412299.9304
  -4758570.00046  -3692964.00844  23421713.0164                   23421711.7194
 11  8 24 16 56 30.0000000  0  9G03G07G08G10G11G13G19G23G28
   9886464.93447   7688816.93844  23024274.6564                   23024272.6994
  -4367558.80548  -3395384.91046  21102327.9534                   21102325.3674
  -6487958.94547  -5046266.63746  22585125.9774                   22585124.1024
   5631277.35546   4380427.75843  24982042.8364                   24982040.6994
  -6929060.10247  -5383255.63744  23038845.2034                   23038843.9654
   5128113.69548   3991344.98046  20906484.8204                   20906483.0514
   2656129.29748   2069406.05546  21376499.7344                   21376495.0784
  10350178.70747   8049996.10545  22427053.2734                   22427051.5044
  -4829499.32847  -3748233.57445  23408215.9454                   23408214.8284
 11  8 24 16 57  0.0000000  0 10G03G24G07G08G10G11G13G19G23G28
   9960435.07046   7746455.92644  23038350.0864                   23038349.2704
   2997298.95357   2355524.65653  24486412.4614                   24486415.8714
  -4436948.77048  -3449455.00446  21089123.6174                   21089120.6644
  -6585580.94547  -5122335.68746  22566548.6724                   22566547.4414
   5659557.28146   4402463.96943  24987422.9614                   24987423.1804
  -7026544.35547  -5459217.36744  23020294.4144                   23020293.0004
   5168978.94548   4023187.98846  20914261.2894                   20914259.7854
   2676702.80147   2085437.35546  21380414.6024                   21380409.9694
  10427869.97347   8110534.61745  22441837.4454                   22441834.8094
  -4900314.08247  -3803413.87945  23394741.0394                   23394739.5354
 11  8 24 16 57 30.0000000  0 10G03G24G07G08G10G11G13G19G23G28
  10034578.10947   7804229.59844  23052460.4144                   23052459.0354
   2900406.02346   2280023.81643  24467973.6724                   24467975.9064
  -4506236.77048  -3503445.64846  21075938.7974                   21075935.5274
  -6683280.36347  -5198465.08246  22547957.3364                   22547955.9844
   5687893.10946   4424543.71543  24992815.5864                   24992817.1914
  -7123924.71147  -5535098.10944  23001763.8054                   23001762.2114
   5210254.05148   4055350.34846  20922115.6644                   20922114.0744
   2697741.93447   2101831.47346  21384418.1884                   21384413.8134
  10505729.61747   8171204.37145  22456654.0784                   22456651.7274
  -4971020.26247  -3858509.56645  23381285.6564                   23381284.4184
 11  8 24 16 58  0.0000000  0 10G03G24G07G08G10G11G13G19G23G28
  10108886.10247   7862131.85544  23066601.0004                   23066600.1914
   2803347.95746   2204394.32843  24449504.6724                   24449506.7384
  -4575425.93748  -3557359.27346  21062772.1954                   21062769.1914
  -6781061.07447  -5274657.79745  22529350.2114                   22529348.8674
   5716276.64846   4446660.68843  24998215.9534                   24998219.2034
  -7221203.08247  -5610899.38744  22983251.5784                   22983251.4534
   5251931.78148   4087826.46946  20930047.0084                   20930044.7344
   2719239.60247   2118582.89546  21388509.3284                   21388505.0594
  10583749.58248   8231999.02745  22471501.1334                   22471498.8794
  -5041623.62147  -3913525.13345  23367849.8754                   23367849.0824
 11  8 24 16 58 30.0000000  0 10G03G24G07G08G10G11G13G19G23G28
  10183353.87147   7920158.64844  23080771.2114                   23080770.3204
   2706124.84446   2128636.22343  24431003.6254                   24431005.9694
  -4644517.00448  -3611196.46146  21049624.6174                   21049621.8674
  -6878924.15247  -5350914.71545  22510727.6414                   22510725.2304
   5744702.87946   4468810.89143  25003626.6414                   25003628.4844
  -7318378.82847  -5686620.71144  22964760.5864                   22964759.0044
   5294007.76648   4120612.88746  20938053.8594                   20938051.3524
   2741191.64847   2135688.37946  21392685.6254                   21392681.9344
  10661924.19547   8292914.20345  22486377.2274                   22486373.5634
  -5112127.31647  -3968463.04345  23354433.5234                   23354431.6564
 11  8 24 16 59  0.0000000  0 10G03G24G07G08G10G11G13G19G23G28
  10257976.79746   7978306.28544  23094971.1094                   23094970.7504
   2608738.12546   2052750.59443  24412471.4064                   24412472.8554
  -4713509.60547  -3664956.92246  21036495.8364                   21036493.1134
  -6976870.10947  -5427236.20745  22492088.7894                   22492087.2664
   5773167.60546   4490991.07843  25009042.5554                   25009044.5784
  -7415450.65247  -5762261.04744  22946287.5164                   22946286.8244
   5336478.01648   4153706.53946  20946135.8364                   20946133.4224
   2763594.56347   2153145.17246  21396949.0474                   21396945.5434
  10740249.27747   8353946.60545  22501281.8674                   22501279.3484
  -5182533.75847  -4023325.17245  23341035.8284                   23341033.7814
 11  8 24 16 59 30.0000000  0 10G03G24G07G08G10G11G13G19G23G28
  10332751.16047   8036571.91843  23109200.5864                   23109198.8754
   2511189.29046   1976738.60043  24393907.5704                   24393909.9344
  -4782402.89548  -3718639.98446  21023385.6094                   21023383.6724
  -7074898.16847  -5503621.68445  22473434.8134                   22473433.3014
   5801667.12547   4513198.37943  25014466.8054                   25014467.8094
  -7512416.37947  -5837818.72344  22927835.7974                   22927833.8754
   5379339.40648   4187104.98046  20954292.1024                   20954289.4104
   2786445.52347   2170951.09446  21401297.9694                   21401293.4494
  10818720.77347   8415093.09045  22516214.5314                   22516212.0314
  -5252844.69147  -4078112.86745  23327656.3284                   23327654.3324
 11  8 24 17  0  0.0000000  0 10G03G24G07G08G10G11G13G19G23G28
  10407672.60946   8094952.17644  23123458.3754                   23123455.6914
   2413479.38746   1900601.19143  24375313.2504                   24375316.6334
  -4851196.68448  -3772245.52046  21010294.8674                   21010292.0314
  -7173008.79747  -5580071.49645  22454764.9384                   22454763.4574
   5830196.73847   4535429.15243  25019895.6254                   25019897.5864
  -7609274.53947  -5913292.59444  22909404.6334                   22909402.4964
   5422588.14148   4220805.23046  20962521.6174                   20962519.8444
   2809740.98447   2189103.38346  21405730.9064                   21405726.4614
  10897334.23447   8476350.21945  22531174.2664                   22531172.1174
  -5323062.02747  -4132827.63345  23314293.8984                   23314292.4614
 11  8 24 17  0 30.0000000  0  9G03G24G07G08G11G13G19G23G28
  10482739.44546   8153445.73844  23137742.9064                   23137740.9384
   2315612.51646   1824341.44143  24356689.3444                   24356692.8674
  -4919887.90247  -3825771.15246  20997223.4694                   20997220.3954
  -7271198.84447  -5656583.20745  22436079.7974                   22436078.5044
  -7706020.69947  -5988679.18044  22890994.2274                   22890992.4964
   5466223.38748   4254806.66046  20970825.2814                   20970822.7854
   2833480.41448   2207601.61346  21410248.2034                   21410243.7974
  10976088.18847   8537716.81645  22546160.3984                   22546157.9884
  -5393185.41447  -4187469.19944  23300949.9384                   23300949.6094
 11  8 24 17  1  0.0000000  0  9G03G24G07G08G11G13G19G23G28
  10557946.73047   8212048.74244  23152054.5634                   23152052.9454
   2217589.44546   1747959.98843  24338037.4454                   24338039.8244
  -4988476.57448  -3879216.85246  20984171.0004                   20984167.6884
  -7369469.19947  -5733157.46945  22417379.6884                   22417378.2664
  -7802653.91847  -6063977.75844  22872606.2194                   22872603.3954
   5510240.56648   4289105.71946  20979201.4924                   20979199.6374
   2857659.68048   2226442.59046  21414849.5634                   21414845.2464
  11054977.46947   8599188.85544  22561172.3204                   22561170.0234
  -5463217.71547  -4242039.73444  23287622.6254                   23287621.5354
 11  8 24 17  1 30.0000000  0  9G03G24G07G08G11G13G19G23G28
  10633295.24647   8270761.80944  23166392.9224                   23166391.3554
   2119416.43846   1671461.65243  24319356.3204                   24319357.7194
  -5056957.53548  -3932578.62546  20971139.7734                   20971136.6054
  -7467814.76247  -5809790.35245  22398665.4924                   22398662.5904
  -7899167.71547  -6139183.25044  22854239.7894                   22854237.8594
   5554641.43048   4323703.75446  20987650.4384                   20987648.4964
   2882280.27348   2245627.46546  21419534.2664                   21419530.4494
  11134002.88747   8660766.99244  22576211.0704                   22576206.9964
  -5533156.03147  -4296537.07044  23274313.7194                   23274313.4344
 11  8 24 17  2  0.0000000  0  9G03G24G07G08G11G13G19G23G28
  10708785.46947   8329585.34444  23180758.3204                   23180757.3834
   2021099.71146   1594851.33643  24300646.4774                   24300647.5394
  -5125325.32447  -3985852.21946  20958130.0394                   20958126.9024
  -7566230.77747  -5886478.16045  22379937.6024                   22379935.4734
  -7995555.50447  -6214290.60544  22835897.8134                   22835896.0744
   5599426.78948   4358601.37546  20996173.5704                   20996171.2384
   2907343.67648   2265157.37146  21424304.1804                   21424299.4494
  11213164.94947   8722451.57044  22591274.4454                   22591270.7074
  -5602997.66047  -4350959.08244  23261024.4304                   23261021.3134
 11  8 24 17  2 30.0000000  0  9G03G24G07G08G11G13G19G23G28
  10784415.31646   8388517.60044  23195148.9144                   23195149.5434
   1922642.86346   1518131.85243  24281910.8134                   24281912.6914
  -5193577.34447  -4039035.59046  20945141.5394                   20945138.6254
  -7664714.77747  -5963218.89845  22361196.5634                   22361194.5554
  -8091813.49247  -6289296.78144  22817581.1954                   22817578.2154
   5644595.30148   4393797.57846  21004768.6484                   21004766.4654
   2932848.83647   2285031.51246  21429157.7974                   21429153.3914
  11292461.30147   8784240.81644  22606364.6094                   22606360.8364
  -5672742.59847  -4405305.74544  23247751.9534                   23247749.6374
 11  8 24 17  3  0.0000000  0  9G03G24G07G08G11G13G19G23G28
  10860180.71547   8447555.49244  23209567.3754                   23209566.6134
   1824047.05946   1441304.09043  24263147.9924                   24263149.4884
  -5261713.07048  -4092128.36346  20932176.2274                   20932173.0394
  -7763266.78547  -6040012.64845  22342442.4384                   22342440.7814
  -8187940.07847  -6364200.59044  22799288.0394                   22799286.3714
   5690143.11348   4429289.33646  21013436.3444                   21013434.1134
   2958792.35247   2305247.21146  21434093.9924                   21434090.3914
  11371887.49247   8846131.22745  22621478.6724                   22621476.7544
  -5742392.91447  -4459578.66044  23234497.3054                   23234495.3634
 11  8 24 17  3 30.0000000  0  9G03G24G07G08G11G13G19G23G28
  10936077.48846   8506695.74643  23224010.0004                   23224008.9614
   1725314.29746   1364369.51243  24244359.7114                   24244362.5474
  -5329731.52748  -4145129.75446  20919232.8674                   20919229.6994
  -7861886.19147  -6116858.91845  22323675.6884                   22323674.1254
  -8283933.25047  -6439000.43744  22781021.8984                   22781020.6724
   5736067.09848   4465074.20346  21022175.2274                   21022173.4884
   2985170.99248   2325801.95746  21439113.8914                   21439109.6914
  11451440.02047   8908120.07045  22636617.7424                   22636615.4454
  -5811950.10247  -4513779.03144  23221261.8284                   23221259.2664
 11  8 24 17  4  0.0000000  0  9G03G24G07G08G11G13G19G23G28
  11012104.89146   8565937.77344  23238479.3914                   23238477.4774
   1626448.71946   1287331.50043  24225545.7504                   24225548.3014
  -5397629.64148  -4198037.37146  20906312.0784                   20906308.5514
  -7960570.21947  -6193755.51645  22304896.7894                   22304895.3404
  -8379788.36747  -6513692.70344  22762780.4064                   22762778.8984
   5782366.15248   4501151.34846  21030985.3524                   21030983.3834
   3011984.11748   2346695.27046  21444216.7274                   21444212.3014
  11531117.34847   8970206.15245  22651780.0004                   22651777.1684
  -5881413.71147  -4567906.46544  23208043.1954                   23208040.5394
 11  8 24 17  4 30.0000000  0  9G03G24G07G08G11G13G19G23G28
  11088260.41846   8625279.69544  23252970.5394                   23252968.8754
   1527453.90646   1210192.78543  24206708.2664                   24206711.1764
  -5465404.48448  -4250848.93746  20893414.9924                   20893412.1334
  -8059316.74647  -6270700.85245  22286106.3834                   22286104.2344
  -8475501.66047  -6588274.47344  22744566.9694                   22744565.4304
   5829038.81648   4537519.58646  21039867.0634                   21039865.2464
   3039230.66047   2367926.33646  21449401.4694                   21449396.9574
  11610917.16447   9032387.69545  22666964.2894                   22666963.5554
  -5950783.87547  -4621961.09044  23194842.2894                   23194840.3404
 11  8 24 17  5  0.0000000  0  9G03G24G07G08G11G13G19G23G28
  11164540.30146   8684718.47344  23267484.6564                   23267485.9614
   1428331.62546   1132954.73843  24187845.3914                   24187848.7544
  -5533055.50848  -4303564.00846  20880541.2424                   20880538.2424
  -8158125.07047  -6347694.34445  22267303.6724                   22267301.6294
  -8571071.04347  -6662744.11745  22726380.5784                   22726378.7074
   5876081.54348   4574176.23046  21048819.2814                   21048816.9844
   3066907.30147   2389492.53546  21454668.1334                   21454663.6844
  11690835.57847   9094661.66445  22682172.9144                   22682170.3874
  -6020062.57847  -4675944.43444  23181658.5704                   23181656.7584
 11  8 24 17  5 30.0000000  0  9G03G24G07G08G11G13G19G23G28
  11240943.87546   8744253.61343  23282023.7114                   23282023.2464
   1329087.32046   1055621.57444  24168960.4534                   24168964.1884
  -5600578.09848  -4356179.02046  20867692.0704                   20867688.6914
  -8256991.28947  -6424732.91845  22248489.3914                   22248487.0474
  -8666491.05147  -6737097.33244  22708223.0474                   22708221.6724
   5923494.52048   4611121.35246  21057841.9924                   21057839.7234
   3095014.53147   2411394.26646  21460016.5864                   21460012.7344
  11770871.87147   9157027.48045  22697403.7504                   22697401.5124
  -6089247.81647  -4729854.98444  23168492.8204                   23168491.8594
 11  8 24 17  6  0.0000000  0  9G03G24G07G08G11G13G19G23G28
  11317468.79746   8803883.33243  23296586.3364                   23296587.7034
   1229723.80146    978195.52343  24150051.7034                   24150054.8674
  -5667970.68448  -4408692.71146  20854867.9304                   20854864.7734
  -8355914.00047  -6501815.52745  22229664.9304                   22229663.4224
  -8761758.77747  -6811331.91044  22690093.9774                   22690091.9454
   5971275.37148   4648353.12146  21066933.8914                   21066931.6414
   3123550.03147   2433629.69146  21465446.7034                   21465442.3984
  11851023.18047   9219482.89845  22712655.8834                   22712653.4454
  -6158340.25046  -4783693.20344  23155344.9384                   23155343.7274
 11  8 24 17  6 30.0000000  0  9G03G24G07G08G11G13G19G23G28
  11394112.30146   8863605.46543  23311170.7734                   23311169.9224
   1130243.94546    900678.82443  24131121.7504                   24131125.2344
  -5735231.03548  -4461103.37546  20842068.5784                   20842065.5984
  -8454891.48847  -6578940.81645  22210830.7584                   22210828.5984
  -8856871.02747  -6885445.34044  22671994.6954                   22671991.8054
   6019421.83648   4685869.79346  21076096.1884                   21076093.8204
   3152511.50447   2456197.05546  21470957.9534                   21470954.2664
  11931286.77347   9282025.82045  22727929.8674                   22727927.4264
  -6227340.69546  -4837459.75444  23142214.9924                   23142213.0634
 11  8 24 17  7  0.0000000  0  9G03G24G07G08G11G13G19G23G28
  11470870.09046   8923416.66443  23325778.1884                   23325776.8984
   1030649.11746    823072.53143  24112168.8054                   24112171.9884
  -5802358.74248  -4513410.68046  20829295.1414                   20829291.7424
  -8553923.41447  -6656108.52345  22191986.0314                   22191983.4574
  -8951826.20747  -6959436.35544  22653925.0944                   22653923.4844
   6067929.94148   4723668.26246  21085326.6724                   21085324.6134
   3181895.93048   2479093.98846  21476549.6414                   21476545.9654
  12011658.19547   9344652.77045  22743224.2274                   22743221.8954
  -6296251.31646  -4891156.32044  23129101.9224                   23129099.2274
 11  8 24 17  7 30.0000000  0  9G03G24G07G08G11G13G19G23G28
  11547737.82046   8983313.52744  23340405.7194                   23340406.1914
    930940.91846    745377.90243  24093195.3524                   24093199.3984
  -5869352.95748  -4565613.96146  20816546.1954                   20816543.4064
  -8653009.53547  -6733318.46145  22173130.5864                   22173128.8754
  -9046622.39847  -7033303.51244  22635886.2894                   22635883.7584
   6116796.09847   4761745.73446  21094625.7344                   21094623.7934
   3211699.77048   2502317.75446  21482221.3444                   21482217.0984
  12092133.65247   9407360.76644  22758538.2504                   22758535.6214
  -6365074.09447  -4944784.41844  23116005.5314                   23116002.5784
 11  8 24 17  8  0.0000000  0  9G03G24G07G08G11G13G19G23G28
  11624712.51246   9043293.78543  23355053.9924                   23355054.2034
    831121.43446    667596.54344  24074199.5554                   24074203.9534
  -5936212.24248  -4617712.10546  20803823.1024                   20803821.0004
  -8752148.86347  -6810569.87145  22154264.2504                   22154263.3094
  -9141257.44147  -7107045.04744  22617877.8754                   22617874.3404
   6166016.95348   4800099.57446  21103992.4534                   21103989.8914
   3241919.89547   2525865.91046  21487971.1884                   21487967.3014
  12172709.19947   9470146.74244  22773871.5704                   22773868.3404
  -6433810.62547  -4998345.32444  23102925.0084                   23102923.0314
 11  8 24 17  8 30.0000000  0  9G03G24G07G08G11G13G19G23G28
  11701789.05146   9103353.31344  23369721.3444                   23369720.4884
    731191.89546    589729.44144  24055184.1724                   24055187.0554
  -6002937.03948  -4669705.46146  20791126.2814                   20791122.7344
  -8851341.77047  -6887862.99245  22135387.8914                   22135387.0474
  -9235730.12547  -7180660.07444  22599900.2664                   22599897.5514
   6215588.54748   4838726.74246  21113425.6254                   21113423.2664
   3272552.41447   2549735.36746  21493800.7974                   21493796.4064
  12253379.98447   9533006.91445  22789222.9614                   22789220.7814
  -6502463.62147  -5051841.13344  23089860.8594                   23089859.0664
 11  8 24 17  9  0.0000000  0  9G03G24G07G08G11G13G19G23G28
  11778963.77746   9163489.41843  23384406.2584                   23384407.1764
    631154.22746    511778.06644  24036147.7274                   24036152.1724
  -6069525.88348  -4721592.89146  20778454.7974                   20778451.7384
  -8950587.41047  -6965197.26245  22116502.9064                   22116500.7304
  -9330038.21947  -7254146.87944  22581954.5944                   22581951.7974
   6265506.91448   4877624.10246  21122925.1414                   21122922.8754
   3303594.32447   2573923.83246  21499708.4224                   21499703.5274
  12334142.41447   9595938.55145  22804592.2114                   22804589.3014
  -6571034.64147  -5105273.02744  23076811.7344                   23076810.1254
 11  8 24 17  9 30.0000000  0  9G03G24G07G08G11G13G19G23G28
  11856232.96946   9223699.03943  23399109.3204                   23399110.5824
    531010.04346    433743.67643  24017090.7424                   24017093.7704
  -6135978.73848  -4773374.34846  20765808.8524                   20765805.6214
  -9049885.37547  -7042572.25445  22097606.8834                   22097605.3874
  -9424179.66447  -7327503.80145  22564039.9064                   22564036.9614
   6315768.70747   4916789.08646  21132489.6804                   21132487.0514
   3335041.98047   2598428.48046  21505692.9534                   21505687.6844
  12414992.12547   9658938.15245  22819977.3284                   22819975.9104
  -6639525.50847  -5158642.50044  23063778.8914                   23063777.0234
 11  8 24 17 10  0.0000000  0  9G03G24G07G08G11G13G19G23G28
  11933593.69146   9283979.98843  23413832.1174                   23413831.7274
    430762.07846    355628.47743  23998013.9454                   23998017.2384
  -6202293.32848  -4825048.04346  20753189.6724                   20753186.5274
  -9149234.46147  -7119987.12145  22078701.2344                   22078699.8364
  -9518152.05547  -7400729.02344  22546157.0554                   22546154.9024
   6366371.32447   4956219.62946  21142118.5394                   21142116.9534
   3366892.74248   2623247.27046  21511753.7734                   21511748.6094
  12495926.10947   9722003.43445  22835378.4304                   22835377.0784
  -6707937.54747  -5211950.52744  23050760.2664                   23050758.7344
 11  8 24 17 10 30.0000000  0  9G03G24G07G08G11G13G19G23G28
  12011041.55546   9344328.84643  23428570.4144                   23428570.0904
    330411.86746    277433.60243  23978917.9144                   23978920.1804
  -6268469.12548  -4876613.60946  20740596.7424                   20740593.3984
  -9248634.29747  -7197441.53945  22059786.5474                   22059784.0784
  -9611953.75447  -7473821.22744  22528306.6174                   22528306.2154
   6417310.45348   4995912.43046  21151811.5704                   21151810.1134
   3399143.22747   2648377.50446  21517891.2504                   21517886.1684
  12576940.02047   9785131.01245  22850794.6334                   22850793.4264
  -6776273.06247  -5265198.93745  23037756.3444                   23037754.1294
 11  8 24 17 11  0.0000000  0  9G03G24G07G08G11G13G19G23G28
  12088575.35546   9404744.68043  23443324.6884                   23443325.2814
    229963.85946    199162.48444  23959803.4844                   23959806.3134
  -6334502.69148  -4928068.33246  20728031.0784                   20728027.9304
  -9348081.43447  -7274932.75845  22040862.0084                   22040860.2504
  -9705580.00047  -7546776.72344  22510490.1254                   22510490.6024
   6468585.75848   5035867.15246  21161569.6254                   21161568.2034
   3431792.53547   2673818.51246  21524103.3054                   21524099.4804
  12658032.29347   9848319.64545  22866226.2974                   22866224.7194
  -6844531.04747  -5318386.94145  23024767.6804                   23024765.6844
 11  8 24 17 11 30.0000000  0  9G03G24G07G08G11G13G19G23G28
  12166195.74246   9465227.97343  23458094.2504                   23458095.6374
    129423.98047    120819.82844  23940671.8754                   23940673.2344
  -6400389.15648  -4979408.44146  20715493.4774                   20715489.8284
  -9447571.02746  -7352457.07445  22021929.3284                   22021927.9454
  -9799024.84047  -7619590.86745  22492708.0864                   22492707.7424
   6520197.15248   5076083.78546  21171391.0704                   21171389.6684
   3464841.65647   2699571.02746  21530392.3444                   21530389.0744
  12739203.43447   9911569.71545  22881673.1414                   22881671.4654
  -6912709.41047  -5371512.91045  23011793.5864                   23011791.3284
 11  8 24 17 12  0.0000000  0  9G03G24G07G08G11G13G19G23G28
  12243903.44546   9525779.29743  23472882.3364                   23472881.4144
     28799.00846     42410.87143  23921523.3594                   23921523.9224
  -6466122.71148  -5030629.39146  20702984.7344                   20702981.6334
  -9547097.79746  -7430010.38345  22002989.8834                   22002988.7154
  -9892281.37547  -7692258.25445  22474962.3204                   22474961.6844
   6572146.05548   5116563.37146  21181276.8524                   21181275.0234
   3498291.77748   2725636.01646  21536757.8674                   21536753.8754
  12820454.07047   9974881.73045  22897135.1644                   22897131.8524
  -6980805.14847  -5424574.48845  22998835.3754                   22998833.7344
 11  8 24 17 12 30.0000000  0  9G03G24G07G08G11G13G19G23G28
  12321698.00046   9586398.36743  23487686.5394                   23487684.4494
    -71905.95747    -36060.43043  23902359.7664                   23902359.6604
  -6531699.04747  -5081727.83246  20690505.4924                   20690502.8364
  -9646657.96547  -7507589.69545  21984045.2814                   21984042.9414
  -9985344.35547  -7764774.83245  22457252.8984                   22457251.9654
   6624431.83647   5157305.50046  21191226.0944                   21191224.5274
   3532142.91047   2752013.48046  21543199.5554                   21543195.4264
  12901783.50847  10038255.10945  22912611.2664                   22912608.9304
  -7048816.50447  -5477570.30545  22985892.9614                   22985891.6994
 11  8 24 17 13  0.0000000  0  9G03G24G07G08G11G13G19G23G28
  12399582.63347   9647087.61743  23502508.0784                   23502506.6524
   -172681.73846   -114586.92643  23883181.4844                   23883181.1914
  -6597110.28948  -5132697.62946  20678058.5474                   20678055.9534
  -9746243.25047  -7585188.60245  21965094.0234                   21965092.3444
 -10078204.86747  -7837133.63745  22439582.3524                   22439580.6024
   6677058.48047   5198313.21145  21201240.7664                   21201238.4304
   3566399.12548   2778706.61346  21549718.1484                   21549714.2624
  12983195.21547  10101692.65644  22928103.3754                   22928101.1294
  -7116738.78547  -5530496.70345  22972967.5394                   22972965.7894
 11  8 24 17 13 30.0000000  0  9G03G24G07G08G11G13G19G23G28
  12477560.63347   9707849.62544  23517346.8444                   23517345.9694
   -273519.73446   -193161.79343  23863991.8054                   23863993.3324
  -6662348.62548  -5183532.69946  20665643.8054                   20665641.5944
  -9845846.44147  -7662801.47345  21946139.8364                   21946138.5164
 -10170853.95747  -7909327.68745  22421951.5784                   22421948.9614
   6730028.91047   5239588.80145  21211320.5004                   21211318.4654
   3601063.55148   2805717.83646  21556315.2504                   21556310.6994
  13064691.53147  10165196.06344  22943612.0164                   22943609.5164
  -7184566.57047  -5583349.47745  22960060.4064                   22960059.4964
 11  8 24 17 14  0.0000000  0  9G03G24G07G08G11G13G19G23G28
  12555636.75047   9768688.10944  23532203.7894                   23532204.3054
   -374409.38346   -271776.95943  23844793.8204                   23844793.8794
  -6727404.53948  -5234225.62946  20653264.3444                   20653261.4654
  -9945458.29747  -7740421.07445  21927185.0314                   21927183.0634
 -10263281.27747  -7981348.94944  22404363.7424                   22404361.0904
   6783348.06648   5281136.12946  21221467.2424                   21221464.3794
   3636141.24648   2833051.09446  21562990.1334                   21562985.0744
  13146277.06347  10228769.02044  22959136.4224                   22959135.1094
  -7252293.48447  -5636123.64145  22947172.3984                   22947170.3364
 11  8 24 17 14 30.0000000  0  9G03G24G07G08G11G13G19G23G28
  12633814.99646   9829606.14843  23547079.7034                   23547080.8954
   -475340.91446   -350424.82843  23825587.5704                   23825589.3484
  -6792269.28147  -5284769.59446  20640920.6804                   20640918.2384
 -10045070.48847  -7818040.94545  21908229.3524                   21908227.3404
 -10355476.94947  -8053189.67645  22386818.6644                   22386816.1374
   6837020.03947   5322958.37545  21231680.6334                   21231678.2154
   3671636.87948   2860710.03146  21569744.8524                   21569739.9574
  13227955.75847  10292414.55945  22974680.5784                   22974679.3484
  -7319913.84447  -5688814.78945  22934305.1804                   22934302.7624
 11  8 24 17 15  0.0000000  0  9G03G24G07G08G11G13G19G23G28
  12712099.03547   9890606.59843  23561976.6564                   23561977.6724
   -576305.11346   -429098.04343  23806374.3444                   23806375.2504
  -6856934.64547  -5335158.19146  20628615.0474                   20628612.2584
 -10144674.57047  -7895654.50445  21889275.3134                   21889273.7504
 -10447431.59847  -8124842.62945  22369320.6724                   22369318.3204
   6891048.60948   5365058.46546  21241961.7814                   21241960.3014
   3707554.09048   2888697.44146  21576579.5164                   21576574.7544
  13309731.57847  10356135.80144  22990242.2894                   22990239.6954
  -7387421.68447  -5741418.25045  22921458.2734                   22921456.3244
 11  8 24 17 15 30.0000000  0  9G03G24G07G08G11G13G19G23G28
  12790492.29747   9951692.14543  23576896.2344                   23576895.0664
   -677292.65646   -507789.53543  23787156.6414                   23787160.7734
  -6921392.23847  -5385384.89146  20616349.3444                   20616346.8364
 -10244262.27747  -7973255.28945  21870324.8984                   21870322.6764
 -10539135.92247  -8196300.49645  22351869.4924                   22351866.3634
   6945437.57448   5407439.41446  21252312.3054                   21252310.1884
   3743897.05548   2917016.59846  21583495.0474                   21583490.6414
  13391607.31346  10419934.88344  23005821.5864                   23005820.8914
  -7454811.41847  -5793929.71145  22908635.0164                   22908632.6374
 11  8 24 17 16  0.0000000  0  9G03G24G07G08G11G13G19G23G28
  12868998.82846  10012865.96943  23591834.4774                   23591834.0164
   -778293.98046   -586491.77043  23767936.6094                   23767939.1414
  -6985633.37147  -5435442.90646  20604124.3364                   20604122.1414
 -10343825.36747  -8050836.89545  21851378.6644                   21851376.0044
 -10630580.32847  -8267555.83645  22334468.3524                   22334465.9414
   7000190.87948   5450104.26246  21262731.8204                   21262729.8674
   3780669.97347   2945670.78146  21590492.9384                   21590488.9494
  13473587.19147  10483815.12944  23021422.7194                   23021418.7234
  -7522077.10247  -5846344.49245  22895834.1804                   22895832.0044
 11  8 24 17 16 30.0000000  0  9G03G24G07G08G11G13G19G23G28
  12947625.02046  10074133.05543  23606796.8834                   23606794.6954
   -879297.48846   -665195.72343  23748717.0944                   23748719.6994
  -7049647.47347  -5485324.00446  20591943.3364                   20591940.9454
 -10443353.22347  -8128391.04345  21832439.1094                   21832436.3014
 -10721753.02047  -8338599.46945  22317118.7814                   22317117.2584
   7055314.50048   5493057.66846  21273220.5474                   21273218.8984
   3817879.26247   2974665.00046  21597573.5474                   21597569.6644
  13555676.65246  10547780.72744  23037042.8524                   23037042.8794
  -7589211.23847  -5898656.76645  22883058.6644                   22883057.3484
 11  8 24 17 17  0.0000000  0  9G03G24G07G08G11G13G19G23G28
  13026376.66446  10135497.90643  23621783.8364                   23621781.2894
   -980291.49646   -743892.21543  23729497.5634                   23729500.7854
  -7113423.99247  -5535019.98446  20579806.7974                   20579804.5744
 -10542835.44947  -8205909.65645  21813507.6804                   21813505.0904
 -10812642.53147  -8409422.41845  22299823.1644                   22299822.4414
   7110814.59448   5536304.43046  21283782.3054                   21283780.2814
   3855530.73047   3004003.79346  21604738.2114                   21604734.9304
  13637881.54747  10611836.29744  23052687.4694                   23052683.9184
  -7656205.97747  -5950860.42244  22870310.4694                   22870309.1094
 11  8 24 17 17 30.0000000  0  9G03G24G07G08G11G13G19G23G28
  13105261.63347  10196966.54743  23636794.1884                   23636794.1454
  -1081262.16447   -822570.60944  23710283.7974                   23710287.4224
  -7176950.16847  -5584520.89546  20567718.3134                   20567715.8054
 -10642259.72347  -8283383.10945  21794587.6484                   21794585.3874
 -10903235.19547  -8480014.07045  22282584.4924                   22282581.9344
   7166698.48048   5579850.24246  21294416.7424                   21294414.4774
   3893632.95347   3033693.79346  21611988.5944                   21611985.5864
  13720209.43446  10675987.69544  23068353.2114                   23068352.3014
  -7723051.87547  -6002948.10245  22857589.7894                   22857588.0234
 11  8 24 17 18  0.0000000  0  9G03G24G07G08G11G13G19G23G28
  13184287.71546  10258545.22343  23651832.0474                   23651832.2504
  -1182196.16447   -901220.43443  23691077.4924                   23691078.0164
  -7240213.64148  -5633817.10246  20555679.6174                   20555677.1724
 -10741613.54747  -8360801.66845  21775681.2664                   21775679.2194
 -10993517.55947  -8550363.90245  22265403.7664                   22265402.8594
   7222974.34848   5623701.48846  21305125.6094                   21305124.0004
   3932193.59848   3063741.03146  21619327.1724                   21619323.1174
  13802668.05147  10740240.93844  23084045.3284                   23084043.5514
  -7789739.00847  -6054912.05145  22844899.5474                   22844898.5944
 11  8 24 17 18 30.0000000  0  9G03G24G07G08G11G13G19G23G28
  13263465.77747  10320242.26244  23666900.4774                   23666899.1994
  -1283077.23447   -979829.00043  23671879.7344                   23671882.0084
  -7303199.09448  -5682896.66447  20543694.0554                   20543691.6334
 -10840882.25047  -8438153.88745  21756791.2814                   21756788.4454
 -11083473.75447  -8620459.61345  22248285.7344                   22248284.3634
   7279652.61348   5667866.30946  21315910.9454                   21315909.3054
   3971223.39848   3094153.84446  21626753.7424                   21626749.8984
  13885267.32447  10804603.86344  23099763.2274                   23099761.0314
  -7856254.80947  -6106742.50444  22832242.1254                   22832239.8484
 11  8 24 17 19  0.0000000  0  9G03G24G07G08G11G13G19G23G28
  13342805.73846  10382065.50844  23681997.7814                   23681997.4964
  -1383889.43447  -1058383.85544  23652695.9774                   23652699.5474
  -7365891.66048  -5731748.00847  20531764.2194                   20531761.6214
 -10940050.41447  -8515427.76645  21737920.6564                   21737918.4144
 -11173087.44947  -8690288.43445  22231232.6724                   22231230.9104
   7336743.67647   5712352.77046  21326775.2664                   21326774.0784
   4010733.26248   3124940.72346  21634272.9454                   21634268.7464
  13968017.78547  10869084.48444  23115510.3444                   23115509.3244
  -7922587.35947  -6158430.17244  22819619.3524                   22819617.7234
 11  8 24 17 19 30.0000000  0  9G03G24G07G08G11G13G19G23G28
  13422319.78946  10444024.40243  23697129.3674                   23697128.7074
  -1484615.06246  -1136871.32044  23633529.3914                   23633532.2814
  -7428275.44948  -5780358.75046  20519892.7034                   20519889.8594
 -11039101.90647  -8592610.73445  21719071.3524                   21719069.5784
 -11262341.29347  -8759836.84845  22214247.5704                   22214246.1604
   7394259.52048   5757170.27046  21337719.8444                   21337719.5744
   4050735.12948   3156110.98445  21641885.1094                   21641880.4804
  14050930.94147  10933691.98444  23131289.4694                   23131284.7814
  -7988722.85247  -6209964.26644  22807034.4614                   22807031.9304
 11  8 24 17 20  0.0000000  0  9G03G24G07G08G11G13G19G23G28
  13502019.48047  10506128.00843  23712294.7664                   23712294.0984
  -1585237.13747  -1215278.00444  23614380.3134                   23614383.5084
  -7490333.45348  -5828715.65246  20508083.7734                   20508080.5044
 -11138020.66047  -8669690.27345  21700247.5394                   21700245.7934
 -11351218.37947  -8829091.68445  22197334.9844                   22197334.0594
   7452211.35548   5802327.46946  21348748.3364                   21348746.7854
   4091240.38348   3187673.49245  21649592.8364                   21649587.5634
  14134017.98047  10998434.89544  23147099.4924                   23147099.2424
  -8054648.33247  -6261334.71144  22794489.0084                   22794487.1804
 11  8 24 17 20 30.0000000  0  9G03G24G07G08G11G13G19G23G28
  13581916.44946  10568385.33243  23727498.7344                   23727497.6804
  -1685737.48047  -1293589.92644  23595256.7424                   23595257.9144
  -7552048.73048  -5876805.47347  20496340.1644                   20496336.6414
 -11236789.85247  -8746653.26645  21681452.8674                   21681450.0204
 -11439700.75447  -8898038.94545  22180497.4454                   22180494.9344
   7510610.97348   5847833.60546  21359860.9774                   21359860.0664
   4132261.63748   3219638.07045  21657398.8834                   21657393.9184
  14217291.09047  11063322.78544  23162946.6644                   23162945.0744
  -8120349.45347  -6312530.33644  22781987.1484                   22781983.9414
 11  8 24 17 21  0.0000000  0  9G03G24G07G08G11G13G19G23G28
  13662024.37546  10630807.05943  23742742.3524                   23742742.8524
  -1786097.56247  -1371792.46144  23576157.9144                   23576158.8594
  -7613403.91048  -5924614.69947  20484664.2194                   20484661.3014
 -11335391.83247  -8823485.95345  21662689.3524                   21662687.0864
 -11527769.70747  -8966664.05945  22163738.5164                   22163735.6724
   7569471.51648   5893698.89845  21371062.2974                   21371060.5514
   4173812.11748   3252015.05145  21665305.8204                   21665301.0044
  14300763.07847  11128365.69944  23178830.0474                   23178829.9494
  -8185811.65647  -6363539.81244  22769529.8134                   22769527.8754
 11  8 24 17 21 30.0000000  0  9G03G24G07G08G11G13G19G23G28
  13742356.12946  10693403.20343  23758029.7664                   23758029.8364
  -1886298.87147  -1449871.32843  23557090.2194                   23557090.6054
  -7674381.48048  -5972129.68446  20473060.2274                   20473058.2194
 -11433809.32447  -8900174.90245  21643960.5944                   21643959.1484
 -11615407.03547  -9034952.84845  22147062.5164                   22147059.3204
   7628805.97748   5939933.45345  21382353.1254                   21382351.4734
   4215904.48848   3284814.27745  21673315.5314                   21673310.5354
  14384446.35547  11193573.17644  23194755.6804                   23194754.5744
  -8251019.89547  -6414351.37944  22757121.0864                   22757118.0274
 11  8 24 17 22  0.0000000  0  9G03G24G07G08G11G13G19G23G28
  13822924.69946  10756183.80943  23773361.4614                   23773362.4454
  -1986322.86347  -1527812.00043  23538056.4694                   23538057.0784
  -7734963.88747  -6019336.75446  20461531.7894                   20461529.3484
 -11532024.95747  -8976706.55145  21625271.5864                   21625268.9184
 -11702594.19547  -9102890.83645  22130470.6414                   22130468.7114
   7688626.86747   5986547.06646  21393736.7114                   21393734.8484
   4258551.69148   3318045.83246  21681431.1564                   21681426.3284
  14468353.66447  11258955.29744  23210722.0474                   23210720.4494
  -8315959.85947  -6464953.89844  22744763.1644                   22744761.1134
 11  8 24 17 22 30.0000000  0  8G24G07G08G11G13G19G23G28
  -2086151.86747  -1605600.77744  23519059.7194                   23519060.2734
  -7795134.75448  -6066223.13347  20450081.9144                   20450079.1844
 -11630022.14547  -9053067.97345  21606622.7664                   21606621.0434
 -11789313.59447  -9170464.35945  22113968.6724                   22113966.4844
   7748945.98047   6033548.88745  21405215.3054                   21405212.7304
   4301765.76248   3351719.10546  21689654.4144                   21689649.8874
  14552496.72347  11324521.04344  23226734.4614                   23226733.5274
  -8380617.72747  -6515336.60244  22732459.0234                   22732456.4694
 11  8 24 17 23  0.0000000  0  9G03G24G07G08G11G13G19G23G28
   3218417.25856  10860464.41053  23804169.1564                   23804169.9924
  -2185769.63347  -1683224.91843  23500101.8134                   23500104.4534
  -7854878.95348  -6112777.06247  20438713.1094                   20438709.8054
 -11727785.62947  -9129247.28145  21588018.7504                   21588017.5664
 -11875549.52047  -9237661.12545  22097558.6094                   22097556.8874
   7809773.55147   6080946.91045  21416790.4694                   21416788.6884
   4345557.68048   3385842.66046  21697987.9614                   21697983.9964
  14636885.33247  11390278.18844  23242793.2034                   23242793.0784
  -8444981.44947  -6565490.09044  22720210.9224                   22720208.5394
 11  8 24 17 23 30.0000000  0  9G03G24G07G08G11G13G19G23G28
   3299764.42246  10923851.76243  23819648.8364                   23819647.8794
  -2285159.00447  -1760671.07444  23481189.4534                   23481192.4104
  -7914180.44548  -6158986.02347  20427428.6564                   20427425.8554
 -11825299.39147  -9205232.00845  21569463.0164                   21569461.0944
 -11961284.74247  -9304467.74645  22081243.0234                   22081242.0004
   7871121.16847   6128750.15245  21428464.5394                   21428462.3134
   4389938.92648   3420425.41846  21706433.4924                   21706429.1214
  14721531.12547  11456235.70744  23258901.0704                   23258899.9804
  -8509037.65247  -6615403.97344  22708021.3914                   22708018.6484
 11  8 24 17 24  0.0000000  0  9G03G24G07G08G11G13G19G23G28
   4956807.94146  12215054.40243  24134973.9694                   24134973.6334
   -808882.28547   -610325.53944  23762115.7424                   23762118.6954
  -6397603.75848  -4977237.95747  20716023.3674                   20716020.2424
 -10347127.09847  -8053409.41445  21850749.2344                   21850747.3554
 -10471082.41447  -8143271.10245  22364819.2734                   22364818.0554
   9508414.98447   7404563.42245  21740031.3134                   21740028.9454
   6010336.39148   4683072.77045  22014784.6174                   22014780.3164
  16381859.53947  12749997.81344  23574851.0554                   23574850.2074
  -6997353.84847  -5437468.48844  22995685.3754                   22995682.4694
 11  8 24 17 24 30.0000000  0  9G03G24G07G08G11G13G19G23G28
   5038721.33646  12278882.89843  24150561.9694                   24150561.4344
   -907773.10946   -687383.19944  23743296.5314                   23743300.6414
  -6455980.85548  -5022726.61346  20704914.4384                   20704911.5234
 -10444102.85547  -8128974.91445  21832295.8204                   21832293.7344
 -10555775.22747  -8209265.46145  22348702.6334                   22348701.7704
   9570826.48047   7453195.68445  21751907.2664                   21751906.0044
   6055920.68048   4718592.96145  22023458.9224                   22023454.6914
  16467043.73447  12816374.88344  23591061.0784                   23591058.5824
  -7060764.87547  -5486879.64844  22983618.3444                   22983616.3404
 11  8 24 17 25  0.0000000  0  9G03G24G07G08G11G13G19G23G28
   5120926.09846  12342938.48043  24166205.0474                   24166202.6564
  -1006398.27746   -764233.89843  23724529.4304                   23724531.0704
  -6513881.19148  -5067843.75446  20693896.2974                   20693893.3324
 -10540795.02347  -8204319.43045  21813895.9304                   21813893.6024
 -10639930.73447  -8274841.14845  22332688.3204                   22332688.0314
   9633777.64147   7502248.46545  21763886.8674                   21763885.5904
   6102114.15648   4754587.84045  22032249.3444                   22032245.4184
  16552504.23847  12882967.27044  23607323.9694                   23607323.6804
  -7123842.97747  -5536031.36744  22971614.9384                   22971612.6254
 11  8 24 17 25 30.0000000  0  9G03G24G07G08G11G13G19G23G28
   5203421.96146  12407220.92643  24181903.6094                   24181901.9064
  -1104751.95746   -840873.03543  23705812.7424                   23705815.8444
  -6571299.62148  -5112585.37546  20682969.7734                   20682967.0904
 -10637198.96147  -8279439.35545  21795550.4144                   21795549.0004
 -10723543.64847  -8339994.03545  22316777.6724                   22316776.7624
   9697267.85947   7551721.30145  21775968.6804                   21775967.8634
   6148917.07448   4791057.62945  22041155.5634                   22041151.5904
  16638241.29747  12949775.05944  23623639.4614                   23623639.4104
  -7186586.49647  -5584922.43044  22959675.6024                   22959673.2274
 11  8 24 17 26  0.0000000  0  9G03G24G07G08G11G13G19G23G28
   5286206.99646  12471728.66443  24197656.7424                   24197656.8484
  -1202830.61347   -917297.91443  23687148.9144                   23687150.2114
  -6628234.09848  -5156949.89547  20672135.3834                   20672132.9844
 -10733311.93448  -8354332.56245  21777261.1414                   21777258.7854
 -10806610.18447  -8404721.14545  22300970.7114                   22300969.1254
   9761295.02347   7601612.53145  21788152.7034                   21788151.6484
   6196327.31347   4828000.65245  22050177.0944                   22050174.0904
  16724252.38347  13016796.47344  23640007.3134                   23640006.3484
  -7248995.68447  -5633552.90644  22947798.7664                   22947797.5084
 11  8 24 17 26 30.0000000  0  9G03G24G07G08G11G13G19G23G28
   5369275.15646  12536457.07843  24213463.3134                   24213464.9614
  -1300634.62947   -993508.75443  23668537.9844                   23668538.0394
  -6684686.20348  -5200938.53947  20661393.3054                   20661390.3524
 -10829135.35948  -8429000.15245  21759026.7034                   21759023.7854
 -10889130.96948  -8469023.00045  22285267.6484                   22285265.4804
   9825852.64547   7651917.08245  21800437.8914                   21800436.2934
   6244338.75848   4865412.13745  22059314.1334                   22059309.7974
  16810531.06647  13084026.36744  23656425.4774                   23656426.8324
  -7311074.84447  -5681926.25444  22935985.8754                   22935983.9224
 11  8 24 17 27  0.0000000  0  9G03G24G07G08G11G13G19G23G28
   5452618.20346  12601399.63743  24229323.4064                   24229323.5944
  -1398166.40247  -1069507.46543  23649978.2894                   23649980.3014
  -6740659.41048  -5244554.02047  20650741.9064                   20650738.8094
 -10924672.70748  -8503444.82445  21740846.3834                   21740843.9774
 -10971109.22348  -8532902.11745  22269667.9694                   22269664.8914
   9890932.37947   7702628.47745  21812822.1804                   21812820.8204
   6292943.41448   4903285.87145  22068563.1484                   22068558.6134
  16897069.09447  13151458.32844  23672893.6254                   23672893.8674
  -7372830.50847  -5730047.51644  22924234.2424                   22924232.2114
 11  8 24 17 27 30.0000000  0  9G03G24G07G08G11G13G19G23G28
   5536228.60246  12666550.52343  24245234.3674                   24245234.9144
  -1495428.41847  -1145295.98044  23631470.2194                   23631471.2074
  -6796157.07848  -5287798.96147  20640181.1024                   20640178.5634
 -11019927.37548  -8577669.21945  21722720.2114                   21722718.6294
 -11052547.42648  -8596360.40245  22254170.3284                   22254167.5944
   9956526.04747   7753740.32845  21825304.9304                   21825303.0744
   6342133.03948   4941615.44546  22077923.8594                   22077919.6254
  16983858.11747  13219085.89143  23689409.0394                   23689407.8754
  -7434269.15247  -5777921.75044  22912542.6724                   22912540.0664
 11  8 24 17 28  0.0000000  0  9G03G24G07G08G11G13G19G23G28
   5620094.76246  12731900.69543  24261193.6174                   24261194.3714
  -1592426.49647  -1220878.78143  23613010.9064                   23613013.3014
  -6851186.18748  -5330678.78147  20629709.5084                   20629706.3324
 -11114906.62548  -8651679.00445  21704645.7814                   21704644.5554
 -11133451.52047  -8659402.50445  22238774.4614                   22238771.0664
  10022622.09447   7805243.65245  21837882.1884                   21837880.6454
   6391896.04748   4980391.78545  22087393.2274                   22087389.0554
  17070886.30947  13286899.77343  23705970.8674                   23705968.6174
  -7495400.35247  -5825556.44144  22900910.1334                   22900907.5864
 11  8 24 17 28 30.0000000  0  8G24G07G08G11G13G19G23G28
  -1689168.64147  -1296262.19944  23594602.6174                   23594603.2424
  -6905755.62948  -5373200.42647  20619325.0634                   20619321.9964
 -11209619.29348  -8725481.07045  21686623.0944                   21686620.6094
 -11213830.20347  -8722035.20345  22223479.0944                   22223476.7274
  10089206.05547   7857127.13745  21850552.7734                   21850551.0204
   6442218.73048   5019604.22746  22096969.6254                   22096964.9694
  17158139.50047  13354888.99243  23722573.6484                   23722572.3914
  -7556236.35547  -5872961.08644  22889332.8134                   22889330.1804
 11  8 24 17 29  0.0000000  0  8G24G07G08G11G13G19G23G28
  -1785662.93447  -1371452.48044  23576239.0314                   23576240.9844
  -6959875.05148  -5415371.40246  20609026.7894                   20609023.4264
 -11304074.00448  -8799082.12945  21668648.7114                   21668646.1054
 -11293691.46947  -8784264.73845  22208281.5084                   22208279.0004
  10156263.91847   7909379.94945  21863313.2034                   21863311.6024
   6493086.97748   5059241.80546  22106649.2664                   22106644.8754
  17245604.05146  13423042.93843  23739217.9614                   23739216.8554
  -7616789.13747  -5920145.05544  22877809.8754                   22877807.6134
 11  8 24 17 29 30.0000000  0  8G24G07G08G11G13G19G23G28
  -1881916.69147  -1446455.33244  23557923.8284                   23557923.4534
  -7013552.84048  -5457198.25046  20598811.8284                   20598808.6454
 -11398279.55548  -8872489.05145  21650722.2344                   21650719.6374
 -11373043.19147  -8846097.21945  22193181.7734                   22193180.4884
  10223782.28147   7961991.57445  21876161.2894                   21876160.5594
   6544487.75448   5099294.32046  22116431.1414                   22116426.1724
  17333266.42647  13491351.02344  23755900.3914                   23755900.1294
  -7677069.72347  -5967116.89844  22866339.5164                   22866336.2154
 11  8 24 17 30  0.0000000  0  8G24G07G08G11G13G19G23G28
  -1977941.40647  -1521279.71944  23539650.3914                   23539652.1804
  -7066801.69548  -5498690.85946  20588679.1644                   20588675.8594
 -11492248.84448  -8945711.86745  21632839.7814                   21632838.1914
 -11451897.35248  -8907541.97745  22178176.5944                   22178174.5274
  10291743.65247   8014948.37945  21889094.0084                   21889093.0434
   6596403.88348   5139748.43046  22126309.7814                   22126305.3244
  17421109.13747  13559799.59444  23772616.3054                   23772616.9184
  -7737094.18747  -6013889.16844  22854916.8204                   22854914.5004
 11  8 24 17 30 30.0000000  0  8G24G07G08G11G13G19G23G28
  -2073752.46147  -1595937.56644  23521417.8914                   23521419.9224
  -7119638.11748  -5539862.10246  20578624.4454                   20578620.9924
 -11585997.97348  -9018763.12945  21614999.9144                   21614997.9024
 -11530269.46947  -8968611.15245  22163263.0864                   22163261.6884
  10360126.58247   8068233.69545  21902106.9844                   21902106.0944
   6648814.08648   5180587.51246  22136283.6954                   22136279.9734
  17509111.01247  13628372.21944  23789363.1724                   23789362.8754
  -7796881.68447  -6060476.80945  22843540.1724                   22843537.4734
 11  8 24 17 31  0.0000000  0  8G24G07G08G11G13G19G23G28
  -2169364.53547  -1670440.41444  23503223.8914                   23503224.0984
  -7172077.42648  -5580723.91847  20568645.9534                   20568642.9184
 -11679542.07448  -9091654.61745  21597199.3754                   21597197.0744
 -11608174.74648  -9029316.53945  22148438.0784                   22148436.3914
  10428910.57847   8121831.50845  21915196.9694                   21915195.4104
   6701698.12548   5221795.82446  22146347.1724                   22146343.7274
  17597251.42246  13697052.78144  23806135.2114                   23806135.3164
  -7856450.85547  -6106894.28545  22832204.0314                   22832202.2234
 11  8 24 17 31 30.0000000  0  8G24G07G08G11G13G19G23G28
  -2264790.61747  -1744798.28544  23485063.6804                   23485066.1094
  -7224134.16048  -5621287.60946  20558739.6254                   20558736.8324
 -11772895.32848  -9164397.41046  21579434.8524                   21579432.1484
 -11685626.02748  -9089668.14845  22133699.5004                   22133698.6804
  10498076.82047   8175727.19145  21928358.8204                   21928357.5044
   6755037.20748   5263358.68846  22156497.2424                   22156493.0084
  17685511.83247  13765826.83244  23822930.8444                   23822930.6414
  -7915818.66047  -6153154.86344  22820906.6884                   22820904.2074
 11  8 24 17 32  0.0000000  0  8G24G07G08G11G13G19G23G28
  -2360044.14146  -1819021.76644  23466937.8914                   23466939.1644
  -7275822.82048  -5661564.50447  20548903.7504                   20548900.9454
 -11866072.21948  -9237002.77746  21561703.4774                   21561701.5044
 -11762637.52747  -9149677.06645  22119044.1644                   22119042.7854
  10567605.58247   8229905.34845  21941589.7584                   21941588.4144
   6808812.01247   5305261.10546  22166730.1564                   22166726.0044
  17773872.35946  13834678.92644  23839745.7274                   23839745.9924
  -7975002.35247  -6199272.01244  22809644.8834                   22809642.7504
 11  8 24 17 32 30.0000000  0  8G24G07G08G11G13G19G23G28
  -2455137.64546  -1893120.46944  23448842.6024                   23448843.4654
  -7327156.93448  -5701565.12547  20539135.0084                   20539132.8364
 -11959086.11348  -9309481.11746  21544003.2584                   21544001.2934
 -11839221.78548  -9209353.07445  22104470.9774                   22104468.9064
  10637478.27047   8284351.52045  21954885.8674                   21954885.6294
   6863004.22347   5347488.77045  22177042.3674                   22177039.1334
  17862314.96146  13903594.93043  23856575.7344                   23856576.0904
  -8034018.61347  -6245258.66444  22798413.7504                   22798411.1844
 11  8 24 17 33  0.0000000  0  9G17G24G07G08G11G13G19G23G28
   4520095.51256   3548887.38352  24674408.0474                   24674409.9304
  -2550080.17246  -1967101.64144  23430774.8444                   23430776.5864
  -7378146.82048  -5741297.51247  20529432.1644                   20529429.5084
 -12051947.59448  -9381840.68746  21526332.8204                   21526330.7664
 -11915389.03948  -9268704.14845  22089976.7344                   22089973.6884
  10707679.65647   8339053.77745  21968245.0234                   21968243.7774
   6917598.82447   5390030.00446  22187431.8754                   22187427.8594
  17950824.38747  13972563.01644  23873419.0944                   23873419.1764
  -8092881.06247  -6291125.46944  22787212.3984                   22787211.1684
 11  8 24 17 33 30.0000000  0  9G17G24G07G08G11G13G19G23G28
   4390490.95346   3447897.03142  24649743.9304                   24649747.8244
  -2644885.13747  -2040975.57444  23412734.0554                   23412736.4264
  -7428806.81248  -5780772.82047  20519792.0704                   20519789.4574
 -12144670.59048  -9454092.35946  21508688.0784                   21508685.8794
 -11991152.93448  -9327740.90645  22075558.8054                   22075556.5514
  10778190.30547   8393997.04745  21981662.8284                   21981662.1884
   6972576.37147   5432869.61745  22197893.2894                   22197890.2464
  18039381.21547  14041568.02744  23890271.1024                   23890271.0784
  -8151606.59847  -6336885.57845  22776037.8054                   22776035.3754
 11  8 24 17 34  0.0000000  0  9G17G24G07G08G11G13G19G23G28
   4260979.66446   3346979.33642  24625098.3594                   24625102.6174
  -2739564.57846  -2114751.69944  23394716.6334                   23394719.8984
  -7479150.91848  -5820001.99246  20510211.2424                   20510208.9534
 -12237268.20748  -9526246.34046  21491067.4144                   21491064.7074
 -12066526.02747  -9386473.16045  22061215.8984                   22061212.9614
  10848991.79747   8449166.92245  21995135.9534                   21995134.8164
   7027919.22347   5475993.87145  22208424.7114                   22208420.5084
  18127967.44546  14110595.93844  23907128.9534                   23907127.8794
  -8210211.39847  -6382551.61345  22764885.6954                   22764884.0554
 11  8 24 17 34 30.0000000  0  9G17G24G07G08G11G13G19G23G28
   4131552.91845   3246127.41443  24600469.4844                   24600473.5824
  -2834126.51646  -2188436.26244  23376722.6094                   23376725.1214
  -7529188.13348  -5858992.02346  20500689.7504                   20500687.5204
 -12329749.62948  -9598309.77046  21473468.8444                   21473466.2504
 -12141516.63347  -9444907.35545  22046945.3524                   22046943.4304
  10920070.49647   8504552.82845  22008662.2194                   22008660.8484
   7083613.45347   5519391.93045  22219023.2114                   22219018.4264
  18216569.25446  14179636.00843  23923989.8594                   23923988.7464
  -8268707.64847  -6428133.04745  22753753.9384                   22753751.7584
 11  8 24 17 35  0.0000000  0  9G17G24G07G08G11G13G19G23G28
   4002203.78146   3145336.04343  24575856.8594                   24575859.5984
  -2928576.87546  -2262033.88344  23358749.7424                   23358751.5004
  -7578925.14548  -5897748.15246  20491225.4144                   20491222.6564
 -12422121.59448  -9670287.92246  21455891.1094                   21455888.7974
 -12216131.19147  -9503048.53945  22032747.0864                   22032745.1334
  10991414.12147   8560145.14545  22022238.1644                   22022237.1884
   7139647.11747   5563054.48045  22229686.2194                   22229681.8594
  18305174.57446  14248678.83243  23940849.9304                   23940851.1684
  -8327105.10947  -6473637.54345  22742641.7894                   22742639.5904
 11  8 24 17 35 30.0000000  0  9G17G24G07G08G11G13G19G23G28
   3872926.24246   3044600.44944  24551255.0164                   24551258.9304
  -3022920.57846  -2335548.42644  23340796.8914                   23340799.1914
  -7628368.29348  -5936275.28546  20481816.7894                   20481813.4964
 -12514389.47748  -9742184.96546  21438333.0704                   21438331.1334
 -12290375.00048  -9560900.83645  22018619.0004                   22018617.8244
  11063011.78147   8615935.43445  22035862.8914                   22035861.7504
   7196009.65647   5606973.32445  22240411.9844                   22240406.0164
  18393772.84846  14317716.14143  23957709.7974                   23957711.8014
  -8385413.14147  -6519072.33245  22731545.9384                   22731543.5394
 11  8 24 17 36  0.0000000  0  9G17G24G07G08G11G13G19G23G28
   3743715.18446   2943916.66443  24526666.6414                   24526670.0394
  -3117161.62547  -2408982.95344  23322863.6884                   23322865.3164
  -7677522.74248  -5974577.47746  20472463.0634                   20472459.7074
 -12606558.71948  -9814005.14846  21420793.2194                   21420791.9264
 -12364252.76248  -9618467.91445  22004560.3054                   22004558.1524
  11134853.12547   8671915.57445  22049533.8984                   22049532.6214
   7252690.88747   5651140.48445  22251198.0864                   22251192.2734
  18482353.90246  14386740.03143  23974566.8834                   23974568.1524
  -8443639.49647  -6564443.51244  22720466.1724                   22720463.7114
 11  8 24 17 36 30.0000000  0  9G17G24G07G08G11G13G19G23G28
   3614565.59047   2843280.76644  24502090.0634                   24502093.9494
  -3211304.24647  -2482340.73444  23304948.1484                   23304948.8014
  -7726393.95748  -6012658.96146  20463162.8444                   20463160.1684
 -12698634.49248  -9885752.49646  21403272.3204                   21403270.2734
 -12437769.12148  -9675753.36345  21990571.3134                   21990569.4384
  11206927.96547   8728077.68445  22063249.3444                   22063248.0044
   7309680.93847   5695548.30145  22262042.5944                   22262037.6484
  18570907.80946  14455742.78943  23991418.3204                   23991419.6844
  -8501792.57847  -6609757.55544  22709399.0474                   22709397.0554
 11  8 24 17 37  0.0000000  0  9G17G24G07G08G11G13G19G23G28
   3485472.92647   2742689.14844  24477525.4384                   24477528.2814
  -3305352.07047  -2555624.71944  23287051.8674                   23287052.4184
  -7774986.71148  -6050523.44946  20453915.9304                   20453913.0124
 -12790621.08248  -9957430.34846  21385767.6094                   21385765.3484
 -12510928.19548  -9732760.39845  21976648.9694                   21976647.6054
  11279226.84047   8784414.34445  22077006.9304                   22077006.0904
   7366970.17247   5740189.21145  22272944.4224                   22272939.8674
  18659425.11746  14524716.98043  24008263.2734                   24008264.1564
  -8559879.82447  -6655020.31244  22698345.3524                   22698342.6094
 11  8 24 17 37 30.0000000  0  9G17G24G07G08G11G13G19G23G28
   3356434.56346   2642139.93044  24452969.5474                   24452972.8674
  -3399306.53147  -2628835.91044  23269172.3594                   23269171.7624
  -7823303.29748  -6088172.73046  20444721.4454                   20444718.6604
 -12882520.64148 -10029040.38746  21368279.7114                   21368277.3914
 -12583732.14848  -9789490.72745  21962794.3054                   21962793.1994
  11351741.87147   8840919.47345  22090806.2274                   22090805.3674
   7424551.30147   5785057.60546  22283902.1094                   22283898.0234
  18747898.16046  14593656.70343  24025098.5554                   24025099.5354
  -8617906.84847  -6700236.14544  22687303.5704                   22687300.8914
 11  8 24 17 38  0.0000000  0  9G17G24G07G08G11G13G19G23G28
   3227446.56347   2541629.92244  24428424.3444                   24428426.2934
  -3493170.50047  -2701976.59444  23251310.2894                   23251309.9734
  -7871348.51648  -6125610.56647  20435578.7664                   20435576.1094
 -12974337.30548 -10100585.83646  21350808.1174                   21350805.4774
 -12656184.46147  -9845947.07045  21949007.4534                   21949006.2034
  11424463.65247   8897585.69945  22104644.5634                   22104643.8674
   7482415.54347   5830146.59445  22294912.6414                   22294908.9654
  18836318.68046  14662555.46543  24041924.6724                   24041925.6994
  -8675880.52047  -6745410.41844  22676271.4924                   22676268.3284
 11  8 24 17 38 30.0000000  0  9G17G24G07G08G11G13G19G23G28
   3098505.26647   2441156.34844  24403886.8754                   24403890.1094
  -3586946.62947  -2775048.83644  23233465.6954                   23233465.6914
  -7919126.04348  -6162839.80947  20426487.1564                   20426484.2974
 -13066074.51648 -10172069.36346  21333351.0084                   21333348.4344
 -12728287.91448  -9902131.54745  21935286.3594                   21935284.5394
  11497384.17247   8954406.78945  22118521.4774                   22118520.1724
   7540554.48047   5875449.63345  22305976.4694                   22305971.9694
  18924677.97346  14731406.51643  24058739.8594                   24058739.8794
  -8733807.56247  -6790548.36745  22665248.9384                   22665246.2504
 11  8 24 17 39  0.0000000  0  9G17G24G07G08G11G13G19G23G28
   2969607.03547   2340716.32044  24379358.9614                   24379361.6724
  -3680637.80147  -2848054.89543  23215637.0864                   23215637.2154
  -7966639.67248  -6199863.42247  20417445.6174                   20417442.3984
 -13157735.57448 -10243493.57046  21315908.4454                   21315906.1054
 -12800046.52347  -9958047.32845  21921631.7194                   21921629.1484
  11570494.31347   9011375.62145  22132434.0394                   22132433.7194
   7598959.40647   5920959.94545  22317089.9694                   22317086.6214
  19012967.04746  14800202.86743  24075540.7894                   24075542.3164
  -8791694.91447  -6835655.37144  22654233.5004                   22654230.2894
 11  8 24 17 39 30.0000000  0  9G17G24G07G08G11G13G19G23G28
   2840748.64547   2240307.32844  24354837.9304                   24354840.1174
  -3774246.27347  -2920996.46943  23197823.4924                   23197825.3164
  -8013892.95348  -6236684.18446  20408453.3364                   20408450.3914
 -13249323.92648 -10314861.10546  21298479.4614                   21298477.4774
 -12871462.75048 -10013696.28945  21908041.5554                   21908039.0634
  11643785.43047   9068485.46945  22146381.1724                   22146380.7304
   7657621.85547   5966670.91845  22328253.7344                   22328249.8404
  19101178.00046  14868938.36344  24092327.1024                   24092328.5164
  -8849548.71547  -6880736.20744  22643223.5314                   22643220.6564
 11  8 24 17 40  0.0000000  0  9G17G24G07G08G11G13G19G23G28
   2711927.47747   2139927.34844  24330324.1334                   24330326.5004
  -3867773.50846  -2993874.78543  23180025.2584                   23180026.8324
  -8060888.60248  -6273304.17646  20399510.5944                   20399507.7974
 -13340841.73848 -10386173.67246  21281064.3914                   21281062.2424
 -12942538.78148 -10069080.19145  21894516.2424                   21894513.9734
  11717250.36747   9125730.75045  22160361.0474                   22160360.5124
   7716534.77047   6012577.03545  22339463.9384                   22339460.6374
  19189303.38346  14937607.15643  24109097.0634                   24109098.6414
  -8907374.69947  -6925795.41444  22632219.1024                   22632215.9574
 11  8 24 17 40 30.0000000  0  9G17G24G07G08G11G13G19G23G28
   2583142.05946   2039575.27043  24305815.6334                   24305818.9614
  -3961220.03947  -3066690.21143  23162243.4614                   23162244.9104
  -8107628.30948  -6309724.73846  20390616.3054                   20390613.2274
 -13432290.52348 -10457432.44946  21263661.7344                   21263660.3594
 -13013275.81648 -10124199.92645  21881055.1564                   21881052.8674
  11790881.90647   9183105.87945  22174372.8834                   22174372.6884
   7775691.61747   6058673.22345  22350720.7814                   22350718.2704
  19277336.91446  15006204.36344  24125848.9924                   24125851.0634
  -8965177.16847  -6970836.28144  22621220.1174                   22621217.0984
 11  8 24 17 41  0.0000000  0  9G17G24G07G08G11G13G19G23G28
   2454391.97346   1939250.69143  24281315.8054                   24281317.4064
  -4054585.07047  -3139442.10944  23144476.1254                   23144477.5744
  -8154112.96548  -6345946.55946  20381770.5704                   20381767.4224
 -13523670.53548 -10528637.63746  21246272.9774                   21246271.1524
 -13083673.78548 -10179055.45745  21867659.1804                   21867656.6334
  11864674.53147   9240606.49645  22188414.6174                   22188414.2304
   7835087.12947   6104955.39845  22362023.6334                   22362020.3244
  19365273.38746  15074725.93844  24142583.9064                   24142585.0554
  -9022959.68047  -7015861.59044  22610224.8054                   22610221.5084
 11  8 24 17 41 30.0000000  0  9G17G24G07G08G11G13G19G23G28
   2325674.44146   1838951.49643  24256821.0164                   24256823.9844
  -4147870.30147  -3212131.80944  23126725.6254                   23126724.9804
  -8200345.09048  -6381971.59846  20372972.5234                   20372970.0004
 -13614984.09848 -10599791.05146  21228896.7894                   21228894.6374
 -13153735.13348 -10233648.66845  21854326.9844                   21854323.5514
  11938620.77047   9298226.83645  22202486.6094                   22202486.1604
   7894713.71547   6151417.61745  22373370.5084                   22373366.9104
  19453105.28146  15143166.07844  24159296.7584                   24159299.3054
  -9080727.97747  -7060875.82844  22599231.3674                   22599229.1484
 11  8 24 17 42  0.0000000  0  9G17G24G07G08G11G13G19G23G28
   2196990.17246   1738678.22343  24232333.2734                   24232336.4534
  -4241074.19147  -3284758.11744  23108989.2034                   23108991.1884
  -8246324.61348  -6417799.78547  20364223.3834                   20364220.6024
 -13706230.81248 -10670892.36746  21211533.0704                   21211531.1024
 -13223459.01648 -10287978.92645  21841058.2894                   21841056.0474
  12012715.76647   9355963.07045  22216586.2664                   22216585.7664
   7954566.89547   6198056.39845  22384760.4454                   22384755.7424
  19540828.21546  15211521.27743  24175990.3594                   24175992.9454
  -9138484.44547  -7105880.80944  22588240.9384                   22588237.7034
 11  8 24 17 42 30.0000000  0  9G17G24G07G08G11G13G19G23G28
   2068339.31646   1638431.02743  24207850.8834                   24207854.4924
  -4334195.60947  -3357320.18044  23091268.7894                   23091270.4064
  -8292051.72748  -6453431.30147  20355522.2274                   20355519.3634
 -13797410.07048 -10741941.12946  21194182.0314                   21194179.8914
 -13292844.91448 -10342045.83245  21827854.5944                   21827852.4964
  12086954.66447   9413811.44545  22230713.7424                   22230712.1254
   8014642.07047   6244868.18045  22396192.4064                   22396187.8014
  19628437.41046  15279787.79743  24192662.3444                   24192664.2384
  -9196231.94147  -7150878.85544  22577251.8204                   22577249.9964
 11  8 24 17 43  0.0000000  0  9G17G24G07G08G11G13G19G23G28
   1939722.19946   1538210.05143  24183377.3054                   24183379.1844
  -4427233.11746  -3429816.85943  23073563.7894                   23073564.9144
  -8337525.96948  -6488865.79347  20346868.3834                   20346865.6334
 -13888521.02748 -10812936.66446  21176844.1644                   21176842.2774
 -13361892.04748 -10395848.78145  21814715.3594                   21814713.1804
  12161332.94547   9471768.42645  22244867.7194                   22244866.3134
   8074934.88347   6291849.53545  22407665.7664                   22407661.0594
  19715928.78546  15347962.53943  24209312.0084                   24209313.5664
  -9253973.27347  -7195872.02744  22566263.7974                   22566260.8594
 11  8 24 17 43 30.0000000  0  9G17G24G07G08G11G13G19G23G28
   1811139.04346   1438015.56643  24158907.8914                   24158909.0354
  -4520184.99647  -3502246.82444  23055875.2734                   23055876.3404
  -8382747.11748  -6524103.05947  20338263.1414                   20338260.4224
 -13979562.99248 -10883878.45346  21159519.9304                   21159517.7464
 -13430599.62548 -10449387.10245  21801640.8284                   21801638.7774
  12235845.78147   9529830.24645  22259047.1804                   22259045.5594
   8135440.66447   6338996.84845  22419180.0554                   22419174.3794
  19803298.02746  15416042.10943  24225938.8134                   24225940.4184
  -9311710.59047  -7240862.12944  22555276.9774                   22555274.6844
 11  8 24 17 44  0.0000000  0  9G17G24G07G08G11G13G19G23G28
   1682591.77746   1337849.01243  24134446.1954                   24134447.7034
  -4613048.63347  -3574608.02344  23038203.4844                   23038205.5744
  -8427713.85248  -6559142.08247  20329706.2114                   20329703.2114
 -14070533.89548 -10954764.85946  21142208.6884                   21142206.0554
 -13498965.59848 -10502659.26645  21788631.6024                   21788629.6644
  12310489.55547   9587994.09045  22273251.3524                   22273249.5984
   8196156.15647   6386307.59045  22430733.3674                   22430730.3714
  19890541.90246  15484024.01243  24242541.3594                   24242543.2704
  -9369445.51247  -7285850.32844  22544290.1094                   22544288.5904
 11  8 24 17 44 30.0000000  0  9G17G24G07G08G11G13G19G23G28
   1554080.85246   1237710.82043  24109991.0784                   24109992.8594
  -4705822.55946  -3646899.32444  23020549.5234                   23020551.7464
  -8472425.88348  -6593982.62947  20321197.6804                   20321195.1334
 -14161433.48448 -11025595.70746  21124910.9694                   21124908.6374
 -13566989.26648 -10555664.68445  21775687.4534                   21775684.2934
  12385260.02047   9646256.64145  22287479.6564                   22287478.5434
   8257077.34047   6433778.59045  22442326.4924                   22442322.1724
  19977656.11746  15551904.86343  24259117.8834                   24259120.5314
  -9427180.27347  -7330838.41844  22533304.2034                   22533301.5274
 11  8 24 17 45  0.0000000  0  9G17G24G07G08G11G13G19G23G28
   1425606.45346   1137601.07844  24085543.6644                   24085546.1994
  -4798505.61746  -3719119.82044  23002913.5234                   23002913.5394
  -8516883.43448  -6628624.87947  20312737.7194                   20312735.1054
 -14252261.06648 -11096370.42646  21107626.9064                   21107625.2704
 -13634670.20348 -10608403.03945  21762808.2504                   21762805.4344
  12460151.84047   9704613.76245  22301731.6804                   22301730.8284
   8318199.18447   6481405.94145  22453957.5234                   22453953.7034
  20064636.25446  15619681.29743  24275669.5634                   24275672.4774
  -9484917.92647  -7375828.77344  22522316.5784                   22522314.5704
 11  8 24 17 45 30.0000000  0  9G17G24G07G08G11G13G19G23G28
   1297167.69546   1037519.08644  24061102.2894                   24061104.5434
  -4891097.47347  -3791269.23444  22985292.9774                   22985294.1524
  -8561087.45348  -6663069.57447  20304326.1564                   20304323.2734
 -14343017.07848 -11167089.38746  21090356.4774                   21090354.6374
 -13702009.16448 -10660874.93045  21749993.6644                   21749990.7544
  12535159.38347   9763061.05545  22316005.0554                   22316004.2664
   8379516.27747   6529185.45745  22465625.1724                   22465621.1024
  20151476.48446  15687348.62943  24292195.4384                   24292196.8284
  -9542662.07446  -7420824.18044  22511328.1724                   22511325.5824
 11  8 24 17 46  0.0000000  0  9G17G24G07G08G11G13G19G23G28
   1168767.07446    937466.86344  24036668.3134                   24036670.5044
  -4983595.02747  -3863345.19544  22967690.9924                   22967692.1524
  -8605036.04748  -6697315.23447  20295963.1174                   20295959.9494
 -14433699.19548 -11237750.76646  21073100.2894                   21073097.9304
 -13769003.48047 -10713078.25445  21737244.3834                   21737243.2814
  12610279.56647   9821596.12945  22330299.6254                   22330298.9344
   8441025.62147   6577114.78145  22477330.6414                   22477327.7234
  20238174.19146  15754904.93443  24308694.3054                   24308694.7504
  -9600413.72346  -7465825.39844  22500339.0234                   22500335.3244
 11  8 24 17 46 30.0000000  0  9G17G24G07G08G11G13G19G23G28
   1040405.28146    837444.81644  24012241.6564                   24012243.8404
  -5075995.98847  -3935345.86744  22950107.9924                   22950108.6414
  -8648728.15248  -6731361.04347  20287648.7664                   20287645.7854
 -14524305.71148 -11308353.23446  21055858.5164                   21055855.8134
 -13835651.72747 -10765011.94545  21724561.9614                   21724560.6604
  12685508.35547   9880215.83645  22344615.5704                   22344615.1844
   8502723.57047   6625191.06345  22489071.5164                   22489067.7814
  20324726.03146  15822347.55143  24325164.6724                   24325164.9964
  -9658174.46546  -7510833.72343  22489346.6254                   22489344.0394
 11  8 24 17 47  0.0000000  0  9G17G24G07G08G11G13G19G23G28
    912085.44546    737455.53944  23987822.7034                   23987824.7384
  -5168295.76247  -4007267.68444  22932544.0164                   22932545.1134
  -8692160.82448  -6765204.69147  20279384.1334                   20279381.0234
 -14614833.04748 -11378894.01646  21038631.9144                   21038629.3164
 -13901950.33247 -10816673.19145  21711945.3204                   21711944.7854
  12760843.90247   9938918.72345  22358951.5234                   22358951.5634
   8564608.72747   6673413.21545  22500847.8674                   22500844.9804
  20411130.48446  15889675.40243  24341606.5004                   24341607.9184
  -9715944.23446  -7555849.09443  22478353.2584                   22478351.2034
 11  8 24 17 47 30.0000000  0  9G17G24G07G08G11G13G19G23G28
    783810.23446    637500.98444  23963412.8914                   23963415.0984
  -5260491.54746  -4079108.44544  22914999.4694                   22915000.5124
  -8735332.21148  -6798844.74647  20271168.6094                   20271165.6804
 -14705278.97348 -11449371.34046  21021420.6094                   21021418.3444
 -13967896.93748 -10868060.14845  21699396.0554                   21699395.7464
  12836283.67647   9997702.83245  22373307.2114                   22373307.9924
   8626678.45347   6721779.17645  22512659.2274                   22512656.7034
  20497385.07446  15956886.41043  24358020.5704                   24358023.1524
  -9773723.72346  -7600872.04343  22467358.1564                   22467354.8524
 11  8 24 17 48  0.0000000  0  8G17G24G07G08G11G13G19G28
    655581.24647    537582.45344  23939011.5704                   23939013.3324
  -5352580.36747  -4150865.88744  22897475.6724                   22897476.9924
  -8778240.89148  -6832280.10547  20263003.2424                   20263000.0944
 -14795641.07848 -11519783.36346  21004225.3524                   21004222.6604
 -14033489.67647 -10919171.36345  21686914.5474                   21686914.4614
  12911823.82847  10056565.14145  22387682.6174                   22387683.1994
   8688929.38747   6770286.36745  22524505.4614                   22524502.8054
  -9831514.08246  -7645903.46143  22456361.9384                   22456357.4224
 11  8 24 17 48 30.0000000  0  8G17G24G07G08G11G13G19G28
    527402.73847    437703.26644  23914619.9384                   23914621.1484
  -5444556.71147  -4222535.67244  22879972.6804                   22879974.4654
  -8820882.57848  -6865507.39847  20254888.5944                   20254885.8484
 -14885914.73848 -11590126.46946  20987046.4614                   20987043.8164
 -14098724.32048 -10970003.53146  21674501.6564                   21674499.8754
  12987463.99647  10115505.39545  22402076.2664                   22402076.1294
   8751361.07447   6818934.39545  22536385.3524                   22536382.6994
  -9889313.78546  -7690942.21943  22445361.6804                   22445359.3554
 11  8 24 17 49  0.0000000  0  8G17G24G07G08G11G13G19G28
    399283.18847    337869.99244  23890239.3444                   23890241.3134
  -5536410.97347  -4294110.36344  22862493.4144                   22862495.1254
  -8863249.25048  -6898520.40246  20246826.4454                   20246823.6604
 -14976091.23848 -11660393.86746  20969886.6024                   20969884.1214
 -14163591.85948 -11020549.62945  21662157.6884                   21662155.9494
  13063207.34847  10174526.03144  22416489.6884                   22416489.3484
   8813977.13347   6867726.08245  22548300.7034                   22548298.7464
  -9947117.54346  -7735984.05143  22434362.0944                   22434359.0204
 11  8 24 17 49 30.0000000  0  8G17G24G07G08G11G13G19G28
    271234.79347    238092.14144  23865873.2734                   23865874.5004
  -5628130.32047  -4365579.92244  22845039.2504                   22845041.0784
  -8905329.11748  -6931309.93447  20238819.3204                   20238815.9454
 -15066158.20348 -11730575.90246  20952747.3444                   20952745.3634
 -14228080.28947 -11070800.32445  21649885.3364                   21649882.9574
  13139060.52347  10233632.24644  22430923.7814                   22430923.8014
   8876784.75047   6916667.02045  22560252.9774                   22560249.2624
 -10004916.24246  -7781021.95343  22423363.3984                   22423360.8794
 11  8 24 17 50  0.0000000  0  8G17G24G07G08G11G13G19G28
    143262.91447    138373.93844  23841520.4144                   23841522.3914
  -5719708.20746  -4436939.26644  22827612.4454                   22827614.2894
  -8947116.64848  -6963871.65647  20230867.0864                   20230864.6054
 -15156109.53148 -11800667.84046  20935630.1564                   20935627.8714
 -14292183.91847 -11120751.16445  21637686.8284                   21637684.5664
  13215024.18447  10292824.55944  22445379.8594                   22445379.4774
   8939784.59847   6965757.73445  22572241.6414                   22572237.4414
 -10062707.25046  -7826053.90643  22412366.4064                   22412364.4494
 11  8 24 17 50 30.0000000  0  8G17G24G07G08G11G13G19G28
     15373.10947     38719.68444  23817183.6174                   23817185.1524
  -5811138.10246  -4508183.24244  22810214.4454                   22810215.6134
  -8988607.06248  -6996201.87547  20222971.9694                   20222969.1374
 -15245939.66848 -11870665.31646  20918536.2504                   20918533.7584
 -14355897.09047 -11170397.78145  21625562.1724                   21625559.8444
  13291098.84447  10352103.35244  22459856.8754                   22459855.4304
   9002977.21147   7014998.68845  22584266.8754                   22584262.7464
 -10120488.27046  -7871078.09443  22401371.7814                   22401368.6994
 11  8 24 17 51  0.0000000  0  9G17G24G07G08G26G11G13G19G28
   -112431.08247    -60867.86744  23792862.7664                   23792865.1804
  -5902415.12147  -4579308.12144  22792844.8834                   22792846.3674
  -9029796.98048  -7028297.94547  20215133.6644                   20215130.3524
 -15335644.28148 -11940565.00446  20901465.8364                   20901463.3874
   4542911.62557   3563459.18854  24112556.2734                   24112556.8484
 -14419215.96547 -11219737.13745  21613512.6334                   21613511.5164
  13367283.06647  10411467.53544  22474353.7344                   22474353.3404
   9066361.56647   7064389.03545  22596329.2114                   22596324.1604
 -10178258.12946  -7916093.56243  22390377.9064                   22390375.7894
 11  8 24 17 51 30.0000000  0  9G17G24G07G08G26G11G13G19G28
   -240149.69147   -160388.68744  23768558.6334                   23768560.3714
  -5993538.07846  -4650312.98444  22775505.2274                   22775505.6214
  -9070686.47348  -7060159.90647  20207352.7974                   20207349.6024
 -15425222.63348 -12010366.30146  20884419.5004                   20884417.1414
   4428103.55546   3473998.35944  24090709.3754                   24090708.7384
 -14482140.55547 -11268769.29345  21601538.8914                   21601537.9064
  13443571.80147  10470913.13744  22488870.9774                   22488869.9924
   9129932.98847   7113925.15245  22608425.9224                   22608421.3794
 -10236019.68046  -7961102.55943  22379385.5234                   22379383.2584
 11  8 24 17 52  0.0000000  0  9G17G24G07G08G26G11G13G19G28
   -367785.11746   -259844.71544  23744269.4384                   23744272.3364
  -6084508.50847  -4721198.94944  22758194.0554                   22758192.8984
  -9111278.29748  -7091789.90247  20199628.1414                   20199625.4064
 -15514677.31648 -12080071.23846  20867396.9144                   20867394.8594
   4313589.49246   3384766.68043  24068917.1804                   24068917.1844
 -14544673.09847 -11317495.93445  21589639.1644                   21589637.4734
  13519957.69147  10530434.45744  22503407.4774                   22503406.1684
   9193684.06647   7163601.25445  22620557.3594                   22620553.5044
 -10293778.24246  -8006109.22743  22368395.6174                   22368393.3134
 11  8 24 17 52 30.0000000  0  9G17G24G07G08G26G11G13G19G28
   -495333.21147   -359232.65644  23719998.3524                   23719999.6564
  -6175321.12947  -4791961.94144  22740913.1564                   22740912.8164
  -9151568.78548  -7123185.10247  20191961.1094                   20191958.5704
 -15604003.69548 -12149676.19546  20850398.8054                   20850396.9884
   4199374.48446   3295767.91843  24047182.4924                   24047182.0664
 -14606809.54348 -11365913.93046  21577815.9924                   21577812.9924
  13596439.53147  10590030.51644  22517961.9144                   22517960.8134
   9257614.25447   7213416.88345  22632722.4774                   22632719.0904
 -10351532.88746  -8051112.82443  22357404.7424                   22357403.3094
 11  8 24 17 53  0.0000000  0  9G17G24G07G08G26G11G13G19G28
   -622789.82847   -458549.33244  23695744.9774                   23695745.9064
  -6265970.83247  -4862598.02344  22723662.6644                   22723663.1054
  -9191553.98048  -7154342.40247  20184352.4384                   20184349.9224
 -15693197.01248 -12219177.47746  20833425.7584                   20833423.8794
   4085463.09445   3207005.80142  24025505.4924                   24025504.3404
 -14668545.72747 -11414020.02045  21566067.3134                   21566065.2464
  13673016.05548  10649700.38345  22532534.0784                   22532533.9534
   9321722.15647   7263371.03145  22644922.2504                   22644918.9344
 -10409282.51246  -8096112.50043  22346416.0314                   22346414.0944
 11  8 24 17 53 30.0000000  0  9G17G24G07G08G26G11G13G19G28
    825274.37947    669812.57844  23971301.7814                   23971303.7974
  -4781028.12547  -3705499.75844  23006237.5314                   23006238.5984
  -7655807.53148  -5957656.86347  20476595.2734                   20476592.1334
 -14206828.33648 -11060968.10946  21116272.5704                   21116270.1844
   5547285.176 5                  24303678.016
 -13154454.04347 -10234208.28945  21854189.0394                   21854186.2304
  15325105.54748  11937042.68845  22846916.2584                   22846916.1564
  10961427.03147   8541063.06645  22956947.8984                   22956942.9884
  -8891602.48446  -6913504.68043  22635220.7584                   22635218.1254
 11  8 24 17 54  0.0000000  0  9G17G24G07G08G26G11G13G19G28
    698017.55147    570651.57444  23947085.5944                   23947087.8674
  -4871331.81646  -3775866.21544  22989052.9844                   22989054.5004
  -7695166.20748  -5988325.98047  20469105.7894                   20469102.0354
 -14295737.03948 -11130247.61346  21099353.5554                   21099351.6764
   5434000.438 6                  24282123.266
 -13215372.45747 -10281677.17645  21842596.3204                   21842592.6954
  15401874.05947  11996862.14545  22861524.9304                   22861525.4654
  11025894.45747   8591297.37545  22969215.5004                   22969210.5634
  -8949333.28946  -6958489.69143  22624234.2664                   22624230.9884
 11  8 24 17 54 30.0000000  0  9G17G24G07G08G26G11G13G19G28
    570868.36346    471574.50044  23922889.1414                   23922891.3954
  -4961452.70347  -3846090.23444  22971903.2424                   22971905.0864
  -7734204.02048  -6018745.07847  20461677.1644                   20461673.8054
 -14384495.07848 -11199409.71146  21082463.6564                   21082460.9774
   5321038.30547   4169791.81653  24260628.7034                   24260629.6804
 -13275873.96147 -10328821.18745  21831083.1484                   21831080.2114
  15478739.15247  12056756.82444  22876152.1254                   22876151.8714
  11090542.28547   8641672.25845  22981517.5474                   22981514.1804
  -9007051.04746  -7003464.53943  22613251.0554                   22613247.6484
 11  8 24 17 55  0.0000000  0  9G17G24G07G08G26G11G13G19G28
    443833.84846    372586.72744  23898715.3914                   23898716.9454
  -5051383.40247  -3916166.07444  22954790.8134                   22954791.1644
  -7772914.73048  -6048909.28147  20454310.6644                   20454307.2304
 -14473094.89548 -11268448.52746  21065603.6724                   21065601.2584
   5208405.91847   4082026.32053  24239194.6644                   24239194.6524
 -13335951.66847 -10375635.00045  21819651.6804                   21819648.4884
  15555702.34447  12116727.96144  22890797.9064                   22890796.7074
  11155372.31347   8692189.10545  22993853.7424                   22993850.2734
  -9064751.93747  -7048426.26243  22602270.8204                   22602267.6254
 11  8 24 17 55 30.0000000  0  9G17G24G07G08G26G11G13G19G28
    316918.81346    273692.07444  23874564.5944                   23874565.6604
  -5141117.64147  -3986088.78144  22937715.1804                   22937715.2274
  -7811293.61348  -6078814.91447  20447007.1804                   20447004.6094
 -14561530.91048 -11337359.71146  21048774.5314                   21048772.2344
   5096109.44147   3994522.60543  24217825.3204                   24217825.9844
 -13395600.94947 -10422114.94545  21808300.7974                   21808298.4804
  15632763.35547  12176775.31344  22905461.7274                   22905461.5314
  11220384.86347   8742848.16045  23006225.3444                   23006222.8014
  -9122433.64547  -7093373.03144  22591294.8984                   22591291.8984
 11  8 24 17 56  0.0000000  0  9G17G24G07G08G26G11G13G19G28
    190130.02046    174895.83644  23850436.7034                   23850438.1724
  -5230647.34847  -4055852.11744  22920678.2974                   22920678.3054
  -7849334.11748  -6108456.86347  20439768.5084                   20439765.8754
 -14649795.88348 -11406137.60546  21031978.5784                   21031976.4144
   4984156.11747   3907286.28944  24196520.9454                   24196522.2814
 -13454814.75447 -10468255.56245  21797033.2504                   21797030.6884
  15709924.24647  12236900.52344  22920144.8054                   22920144.8674
  11285581.96947   8793651.00445  23018632.3984                   23018628.5944
  -9180092.47346  -7138301.96144  22580321.9304                   22580320.3954
 11  8 24 17 56 30.0000000  0  9G17G24G07G08G26G11G13G19G28
     63472.67646     76201.98844  23826334.3674                   23826336.0664
  -5319966.40247  -4125451.30944  22903681.0314                   22903679.6334
  -7887031.45348  -6137831.41047  20432594.7114                   20432592.1604
 -14737884.27748 -11474777.91846  21015215.7274                   21015213.5434
   4872551.85947   3820322.02044  24175283.3834                   24175283.4774
 -13513588.10947 -10514052.96546  21785849.4064                   21785846.6804
  15787185.37147  12297103.81644  22934847.6564                   22934846.9694
  11350964.33647   8844598.25845  23031074.0784                   23031070.5634
  -9237725.84047  -7183211.03544  22569355.2814                   22569353.2814
 11  8 24 17 57  0.0000000  0  9G17G24G07G08G26G11G13G19G28
    -63049.55946    -22386.53944  23802258.4384                   23802259.4024
  -5409070.26247  -4194882.79344  22886725.4774                   22886724.4304
  -7924382.32048  -6166936.00447  20425487.3134                   20425484.5634
 -14825791.69547 -11543277.20346  20998487.6024                   20998485.0124
   4761301.20747   3733633.20344  24154114.2584                   24154111.2274
 -13571917.25847 -10559504.23046  21774749.6414                   21774747.0594
  15864544.94147  12357383.82444  22949568.9844                   22949568.6054
  11416530.43447   8895688.65645  23043551.4774                   23043548.3014
  -9295332.92547  -7228099.65344  22558393.0084                   22558390.3594
 11  8 24 17 57 30.0000000  0  9G17G24G07G08G26G11G13G19G28
   -189433.10546   -120867.05944  23778208.3134                   23778209.3874
  -5497954.18047  -4264142.90644  22869810.6024                   22869810.5314
  -7961383.18448  -6195767.85547  20418446.7194                   20418443.0824
 -14913514.31248 -11611632.49646  20981794.2734                   20981791.9734
   4650408.11347   3647223.03544  24133011.4384                   24133010.5084
 -13629798.89147 -10604606.78145  21763734.2424                   21763732.6254
  15942001.50847  12417739.39144  22964308.7344                   22964308.7464
  11482279.19547   8946921.38345  23056062.5084                   23056060.0784
  -9352913.12147  -7272967.34844  22547436.0164                   22547433.6764
 11  8 24 17 58  0.0000000  0  9G17G24G07G08G26G11G13G19G28
   -315672.85246   -219235.51644  23754185.3364                   23754187.0984
  -5586611.87147  -4333226.73444  22852939.9774                   22852940.5864
  -7998029.72348  -6224323.62147  20411472.4844                   20411469.4654
 -15001046.34048 -11679839.26646  20965137.2344                   20965135.0984
   4539878.60947   3561096.18844  24111978.5704                   24111978.0234
 -13687227.87547 -10649356.62945  21752805.3674                   21752803.9804
  16019555.39547  12478170.78544  22979066.6804                   22979066.5634
  11548211.02347   8998296.76645  23068608.1954                   23068606.5084
  -9410463.84847  -7317812.07044  22536484.5944                   22536481.8674
 11  8 24 17 58 30.0000000  0  9G17G24G07G08G26G11G13G19G28
   -441765.68446   -317489.48044  23730190.6254                   23730191.8714
  -5675039.15247  -4402131.04745  22836112.8364                   22836113.8444
  -8034319.20348  -6252601.16046  20404566.9224                   20404563.8984
 -15088384.09448 -11747894.66846  20948517.5944                   20948515.8284
   4429716.46947   3475255.62144  24091014.8134                   24091014.9774
 -13744201.12547 -10693751.35545  21741963.8594                   21741961.4224
  16097204.64147  12538676.50044  22993843.0164                   22993843.6954
  11614324.15647   9049813.44945  23081190.6254                   23081185.9024
  -9467985.05947  -7362633.78545  22525538.6174                   22525535.8984
 11  8 24 17 59  0.0000000  0  9G17G24G07G08G26G11G13G19G28
   -567708.19946   -415626.38744  23706224.4924                   23706225.3014
  -5763231.67247  -4470852.39544  22819329.8284                   22819331.5474
  -8070248.18048  -6280597.78547  20397729.5084                   20397726.5004
 -15175523.57448 -11815795.55146  20931935.8204                   20931933.3674
   4319925.84847   3389704.55544  24070122.8914                   24070122.1174
 -13800715.47347 -10737788.50045  21731210.0234                   21731207.6294
  16174947.81647  12599255.36344  23008637.9534                   23008637.2894
  11680617.74247   9101470.75045  23093806.6024                   23093802.2544
  -9525475.95347  -7407431.88745  22514598.5474                   22514595.6294
 11  8 24 17 59 30.0000000  0  9G17G24G07G08G26G11G13G19G28
   -693497.33246   -513643.70344  23682287.0234                   23682287.8984
  -5851185.05547  -4539387.43744  22802592.7424                   22802593.8204
  -8105814.05148  -6308311.47747  20390961.8834                   20390959.1524
 -15262460.66448 -11883538.73046  20915392.2504                   20915389.9734
   4210510.96147   3304446.24244  24049301.4454                   24049301.1844
 -13856767.60947 -10781465.46545  21720543.6484                   21720540.4574
  16252783.19947  12659906.12144  23023448.9844                   23023449.2194
  11747090.29347   9153267.46945  23106455.5004                   23106451.9304
  -9582936.21947  -7452206.09444  22503663.6564                   22503660.5354
 11  8 24 18  0  0.0000000  0  9G17G24G07G08G26G11G13G19G28
   -819129.64546   -611538.86744  23658379.9534                   23658381.6254
  -5938894.87547  -4607732.68044  22785902.4924                   22785903.0084
  -8141013.76648  -6335739.84447  20384263.6954                   20384261.1884
 -15349191.71148 -11951121.36346  20898887.7424                   20898885.7154
   4101475.52046   3219483.56343  24028552.1094                   24028551.8244
 -13912354.57848 -10824779.94946  21709966.2114                   21709963.0984
  16330708.87547  12720627.22744  23038278.0004                   23038278.3164
  11813739.87947   9205202.16845  23119138.2584                   23119135.1294
  -9640365.11347  -7496955.87545  22492735.7114                   22492732.7424
 11  8 24 18  0 30.0000000  0  9G17G24G07G08G26G11G13G19G28
   -944603.43047   -709310.44544  23634503.2274                   23634504.7194
  -6026358.14847  -4675885.81244  22769258.5784                   22769259.5084
  -8175845.77048  -6362881.68747  20377635.6254                   20377632.4844
 -15435713.91848 -12018541.26246  20882423.0784                   20882420.6684
   3992822.07446   3134818.56343  24007877.5784                   24007876.3984
 -13967474.50448 -10867730.51646  21699477.3524                   21699474.5434
  16408721.83647  12781416.34044  23053122.9144                   23053123.3164
  11880564.17647   9257273.01645  23131854.7114                   23131851.2194
  -9697763.58247  -7541681.94545  22481813.0164                   22481810.3014
 11  8 24 18  1  0.0000000  0  9G17G24G07G08G26G11G13G19G28
  -1069913.16446   -806954.25044  23610657.0784                   23610658.4454
  -6113568.52347  -4743841.86744  22752662.4774                   22752663.1914
  -8210305.19148  -6389733.20347  20371078.3364                   20371075.6294
 -15522021.55148 -12085793.95346  20865999.2504                   20865997.3794
   3884556.68046   3050455.96144  23987274.3834                   23987274.9264
 -14022122.39147 -10910313.26246  21689077.0164                   21689075.3094
  16486822.46947  12842273.78944  23067985.2814                   23067985.3204
  11947563.91447   9309480.53545  23144603.8674                   23144600.2034
  -9755129.13347  -7586382.36345  22470896.2504                   22470894.0124
 11  8 24 18  1 30.0000000  0  9G17G24G07G08G26G11G13G19G28
  -1195057.19146   -904469.00844  23586843.3204                   23586844.6334
  -6200523.14547  -4811598.62944  22736115.9384                   22736115.8674
  -8244390.60247  -6416293.29347  20364591.6804                   20364589.3204
 -15608112.44148 -12152877.77046  20849616.8054                   20849614.3954
   3776681.75446   2966397.63343  23966745.1564                   23966746.5904
 -14076296.51247 -10952526.84045  21678767.5474                   21678766.7774
  16565007.80147  12903197.24244  23082863.9924                   23082863.6134
  12014735.83647   9361822.21544  23157386.0234                   23157383.2154
  -9812462.59847  -7631057.78145  22459986.4534                   22459983.5784
 11  8 24 18  2  0.0000000  0  9G17G24G07G08G26G11G13G19G28
  -1320032.14847  -1001851.89145  23563062.1334                   23563062.5784
  -6287217.14847  -4879152.32444  22719618.4384                   22719618.5164
  -8278098.96148  -6442559.57847  20358177.3364                   20358174.5434
 -15693982.14148 -12219789.21946  20833276.1254                   20833273.5944
   3669201.47347   2882646.79743  23946294.9534                   23946292.6564
 -14129993.44147 -10994368.59845  21668549.2814                   21668548.8094
  16643276.45747  12964185.57844  23097757.3524                   23097758.2194
  12082079.07447   9414297.39544  23170200.9534                   23170197.4064
  -9869763.25847  -7675707.63345  22449081.8284                   22449080.2624
 11  8 24 18  2 30.0000000  0  9G17G24G07G08G26G11G13G19G28
  -1444833.65647  -1099099.69144  23539312.4454                   23539313.3404
  -6373645.65647  -4946499.14144  22703171.4064                   22703172.0704
  -8311426.50048  -6468529.11347  20351835.6094                   20351832.9064
 -15779626.25848 -12286524.89846  20816978.5704                   20816976.0744
   3562120.71147   2799207.27344  23925916.8524                   23925916.3164
 -14183209.50847 -11035835.68045  21658423.1024                   21658421.8054
  16721627.44147  13025238.06344  23112667.2504                   23112668.7154
  12149592.93447   9466905.54344  23183049.0944                   23183045.3284
  -9927029.88347  -7720330.96545  22438185.1094                   22438182.3714
 11  8 24 18  3  0.0000000  0  9G17G24G07G08G26G11G13G19G28
  -1569457.94547  -1196209.41045  23515597.0864                   23515597.7274
  -6459803.73847  -5013635.25444  22686775.9694                   22686777.9494
  -8344369.74248  -6494199.19547  20345566.5944                   20345563.6724
 -15865039.97748 -12353081.03546  20800725.1804                   20800723.0004
   3455443.97746   2716082.56643  23905616.3204                   23905616.9024
 -14235941.11347 -11076925.23045  21648388.9534                   21648386.6454
  16800059.73047  13086353.92244  23127592.9924                   23127593.4454
  12217276.52747   9519645.94944  23195928.1954                   23195924.7894
  -9984261.13747  -7764926.72745  22427293.9224                   22427291.6334
 11  8 24 18  3 30.0000000  0  9G17G24G07G08G26G11G13G19G28
  -1693899.48047  -1293176.70745  23491916.4844                   23491917.6054
  -6545684.45747  -5080555.25044  22670433.2974                   22670434.9104
  -8376923.21548  -6519565.57447  20339372.2344                   20339368.9694
 -15950216.79348 -12419452.58246  20784516.4224                   20784514.4774
   3349177.54746   2633277.58243  23885393.4384                   23885395.9844
 -14288182.70748 -11117632.95746  21638448.5634                   21638445.3484
  16878574.11747  13147533.71944  23142534.6024                   23142535.5944
  12285131.28947   9572519.70744  23208840.8984                   23208837.5044
 -10041453.98847  -7809492.57445  22416410.5944                   22416408.0164
 11  8 24 18  4  0.0000000  0  9G17G24G07G08G26G11G13G19G28
  -1818155.14847  -1389999.19144  23468271.5944                   23468272.9574
  -6631283.60547  -5147255.83244  22654144.9774                   22654146.3914
  -8409084.44548  -6544626.29747  20333251.8754                   20333248.8134
 -16035153.02748 -12485636.64846  20768353.5314                   20768351.6134
   3243325.41447   2550795.44544  23865251.7344                   23865252.2154
 -14339931.39548 -11157956.57445  21628601.0864                   21628597.4144
  16957168.92247  13208776.20744  23157491.2034                   23157491.6804
  12353155.76247   9625525.71545  23221785.9774                   23221783.6054
 -10098608.08247  -7854028.21945  22405534.8054                   22405532.5514
 11  8 24 18  4 30.0000000  0  9G17G24G07G08G26G11G13G19G28
  -1942220.03947  -1486673.02045  23444662.5004                   23444664.2894
  -6716595.55947  -5213732.61744  22637910.5234                   22637910.7734
  -8440848.97748  -6569377.89547  20327207.1564                   20327204.4494
 -16119843.03548 -12551628.85246  20752237.8204                   20752235.7584
   3137892.84447   2468640.18043  23845188.1644                   23845187.7894
 -14391182.77348 -11197892.69945  21618847.7034                   21618844.7234
  17035844.26647  13270081.43444  23172462.2114                   23172462.9184
  12421349.94947   9678663.93844  23234761.8594                   23234760.0864
 -10155721.21547  -7898531.93045  22394666.4064                   22394663.9534
 11  8 24 18  5  0.0000000  0  9G17G24G07G08G26G11G13G19G28
  -2066089.35247  -1583194.44145  23421090.9774                   23421091.6564
  -6801614.37947  -5279980.97744  22621731.6804                   22621732.0084
  -8472212.48048  -6593817.00447  20321238.7664                   20321236.2344
 -16204281.49248 -12617425.04746  20736169.4924                   20736167.3244
   3032885.30147   2386816.13743  23825206.0634                   23825206.2734
 -14441932.11348 -11237437.63345  21609190.1884                   21609187.5984
  17114599.58647  13331449.01244  23187449.1174                   23187449.7974
  12489713.80147   9731934.37144  23247772.3364                   23247768.7894
 -10212791.50447  -7943002.28145  22383806.1724                   22383803.7114
 11  8 24 18  5 30.0000000  0  9G17G24G07G08G26G11G13G19G28
  -2189760.91447  -1679561.77044  23397556.3054                   23397557.2624
  -6886336.89847  -5345998.48044  22605609.4064                   22605609.7074
  -8503172.80148  -6617941.93746  20315347.5234                   20315344.7504
 -16288465.80548 -12683023.21546  20720149.5554                   20720147.4144
   2928305.45747   2305325.36343  23805306.0314                   23805305.6914
 -14492177.77748 -11276590.09445  21599628.4144                   21599626.5204
  17193432.31647  13392876.87144  23202450.6414                   23202451.4144
  12558245.22347   9785335.39545  23260813.9694                   23260809.7154
 -10269819.15248  -7987439.38745  22372953.9304                   22372951.4774
 11  8 24 18  6  0.0000000  0  9G17G24G07G08G26G11G13G19G28
  -2313231.27047  -1775772.30944  23374060.9844                   23374061.1334
  -6970758.23847  -5411781.27344  22589544.5944                   22589544.0354
  -8533727.62948  -6641750.91847  20309533.0554                   20309529.9534
 -16372391.26248 -12748419.67646  20704179.2194                   20704177.2464
   2824157.40647   2224171.09443  23785487.0474                   23785486.6844
 -14541916.43447 -11315347.50445  21590163.5634                   21590162.1054
  17272341.19947  13454364.07844  23217466.4224                   23217468.2274
  12626943.39147   9838866.38744  23273886.1174                   23273882.8794
 -10326803.12948  -8031842.48045  22362110.3284                   22362107.9264
 11  8 24 18  6 30.0000000  0  9G17G24G07G08G26G11G13G19G28
  -2436497.19147  -1871823.55144  23350603.7664                   23350605.2074
  -7054874.07847  -5477326.03544  22573537.8524                   22573537.4844
  -8563873.52748  -6665241.25447  20303796.6414                   20303793.3134
 -16456054.10948 -12813611.51246  20688258.7424                   20688256.2544
   2720445.39847   2143356.59043  23765751.5004                   23765750.3284
 -14591145.03148 -11353707.46145  21580795.9384                   21580793.7154
  17351324.91047  13515909.59444  23232496.0084                   23232499.2624
  12695806.96147   9892526.21545  23286990.6724                   23286987.2584
 -10383742.63748  -8076210.91045  22351275.5394                   22351272.5944
 11  8 24 18  7  0.0000000  0  9G17G24G07G08G26G11G13G19G28
  -2559556.84047  -1967714.02044  23327186.2664                   23327187.1334
  -7138681.46147  -5542630.43744  22557589.9774                   22557589.9844
  -8593608.98048  -6688411.76246  20298138.1484                   20298134.8714
 -16539451.91848 -12878596.80946  20672388.7664                   20672386.8714
   2617171.72747   2062883.64143  23746099.1724                   23746097.9884
 -14639862.03948 -11391668.75446  21571526.0314                   21571523.3714
  17430380.47747  13577511.10244  23247540.5634                   23247541.9304
  12764833.18047   9946312.85245  23300125.9694                   23300122.2544
 -10440638.76647  -8120545.55545  22340448.9304                   22340445.4884
 11  8 24 18  7 30.0000000  0  9G17G24G07G08G26G11G13G19G28
  -2682407.83247  -2063441.95344  23303809.3754                   23303809.2234
  -7222176.86347  -5607691.74244  22541701.1024                   22541701.1254
  -8622932.46148  -6711261.25047  20292557.9774                   20292554.6914
 -16622581.19548 -12943372.88746  20656569.6644                   20656567.5354
   2514339.34447   1982754.54743  23726530.1644                   23726529.3284
 -14688065.60548 -11429229.95745  21562353.4064                   21562349.4614
  17509505.23447  13639166.48444  23262598.3674                   23262598.4024
  12834020.06647  10000224.64544  23313291.8674                   23313288.9184
 -10497491.89147  -8164846.68045  22329629.7034                   22329626.9144
 11  8 24 18  8  0.0000000  0  9G17G24G07G08G26G11G13G19G28
  -2805048.75047  -2159006.15244  23280470.4774                   23280471.1454
  -7305358.32047  -5672508.41445  22525872.4534                   22525872.9574
  -8651842.73048  -6733788.76647  20287056.5944                   20287053.4534
 -16705440.31648 -13007938.43046  20640802.0314                   20640799.8984
   2411949.98046   1902970.68443  23707045.4774                   23707044.8954
 -14735754.70748 -11466390.27346  21553278.4924                   21553275.3404
  17588695.57047  13700872.98044  23277667.1094                   23277667.4964
  12903364.35947  10054259.12544  23326486.5634                   23326484.6454
 -10554302.59447  -8209114.74645  22318818.7894                   22318815.8554
 11  8 24 18  8 30.0000000  0  9G17G24G07G08G26G11G13G19G28
  -2927476.82047  -2254404.53545  23257172.9144                   23257174.4494
  -7388221.72747  -5737077.26245  22510104.1024                   22510104.1804
  -8680337.48848  -6755992.48847  20281634.2274                   20281631.8364
 -16788025.22348 -13072290.30146  20625086.5634                   20625084.8674
   2310007.31647   1823534.89843  23687647.9224                   23687646.1174
 -14782926.98448 -11503147.84845  21544301.5394                   21544297.9924
  17667949.98847  13762629.37944  23292749.3674                   23292748.9414
  12972864.08247  10108414.65244  23339713.1484                   23339711.1804
 -10611071.46547  -8253350.22745  22308015.8444                   22308013.4654
 11  8 24 18  9  0.0000000  0  9G17G24G07G08G26G11G13G19G28
  -3049689.10947  -2349634.72745  23233916.5394                   23233918.3754
  -7470763.35947  -5801395.37945  22494396.9454                   22494396.8164
  -8708414.58248  -6777870.76647  20276291.7424                   20276288.9614
 -16870332.20748 -13136425.62946  20609424.1484                   20609421.9804
   2208514.61346   1744449.71143  23668333.6334                   23668333.4884
 -14829580.01648 -11539500.84846  21535423.3284                   21535420.6684
  17747266.06647  13824433.86744  23307842.1094                   23307844.0044
  13042517.56646  10162690.06344  23352967.3594                   23352964.4144
 -10667798.07047  -8297552.75845  22297221.8594                   22297218.1484
 11  8 24 18  9 30.0000000  0  9G17G24G07G08G26G11G13G19G28
  -3171683.27747  -2444694.96945  23210702.4384                   23210703.6294
  -7552979.38347  -5865459.76345  22478751.1884                   22478751.1094
  -8736072.10948  -6799422.11747  20271028.4924                   20271025.3984
 -16952358.18448 -13200341.96546  20593815.2344                   20593813.0004
   2107475.10546   1665717.66843  23649106.5704                   23649105.9104
 -14875711.78948 -11575447.68746  21526644.4304                   21526642.6884
  17826641.83247  13886284.87943  23322947.6644                   23322949.0664
  13112323.36746  10217084.12144  23366251.0704                   23366248.3984
 -10724482.45747  -8341722.38345  22286434.4534                   22286432.5354
 11  8 24 18 10  0.0000000  0  9G17G24G07G08G26G11G13G19G28
  -3293457.63347  -2539583.92245  23187529.4384                   23187529.8404
  -7634866.70347  -5929268.02344  22463168.5554                   22463166.9694
  -8763308.11348  -6820644.99647  20265845.3594                   20265842.6334
 -17034100.19147 -13264037.03546  20578260.2664                   20578258.1374
   2006891.53146   1587340.83643  23629966.0314                   23629965.2034
 -14921320.85948 -11610987.22746  21517965.5084                   21517963.5554
  17906074.71547  13948180.37944  23338063.0634                   23338065.8554
  13182278.75446  10271594.79344  23379563.6484                   23379560.1024
 -10781124.48847  -8385859.00445  22275655.5784                   22275653.3134
 11  8 24 18 10 30.0000000  0  9G17G24G07G08G26G11G13G19G28
  -3415009.12147  -2634299.21545  23164398.5784                   23164398.5904
  -7716421.64147  -5992817.27744  22447649.8204                   22447649.5904
  -8790120.45348  -6841537.76647  20260743.1564                   20260740.0004
 -17115554.89848 -13327508.23046  20562759.5084                   20562757.3014
   1906766.73446   1509321.55943  23610912.3364                   23610912.2114
 -14966404.75048 -11646117.53146  21509386.4224                   21509384.1884
  17985562.53147  14010118.71144  23353190.1644                   23353190.9614
  13252382.15246  10326220.78944  23392903.7894                   23392900.7854
 -10837724.40246  -8429962.84844  22264885.8134                   22264882.6954
 11  8 24 18 11  0.0000000  0  9G17G24G07G08G26G11G13G19G28
  -3536334.64547  -2728838.43745  23141311.3834                   23141310.9804
  -7797640.03947  -6056104.27744  22432195.0164                   22432194.2154
  -8816507.04748  -6862098.76646  20255721.6414                   20255718.5664
 -17196718.66848 -13390752.72746  20547314.4924                   20547312.7304
   1807104.50846   1431662.80943  23591946.8204                   23591947.3834
 -15010960.99248 -11680836.66446  21500907.8524                   21500905.5434
  18065103.33647  14072098.30544  23368325.6804                   23368328.4144
  13322631.98846  10380960.84844  23406270.3134                   23406267.3954
 -10894282.30547  -8474033.90644  22254122.8754                   22254120.0864
 11  8 24 18 11 30.0000000  0  9G17G24G07G08G26G11G13G19G28
  -3657432.66847  -2823200.36745  23118267.4224                   23118266.7234
  -7878519.19947  -6119126.96145  22416803.5864                   22416804.2344
  -8842466.14148  -6882326.66847  20250781.9384                   20250778.9494
 -17277588.64548 -13453768.29746  20531926.1094                   20531923.6564
   1707906.84446   1354365.93443  23573071.0784                   23573070.5704
 -15054988.26648 -11715143.62946  21492529.6334                   21492528.0744
  18144694.30147  14134116.95744  23383471.7664                   23383473.6644
  13393025.43846  10435812.77344  23419667.4224                   23419663.7854
 -10950798.15647  -8518072.19944  22243368.1804                   22243365.3594
 11  8 24 18 12  0.0000000  0  9G17G24G07G08G26G11G13G19G28
  -3778301.97347  -2917384.07845  23095265.8674                   23095265.9414
  -7959056.75447  -6181883.44145  22401476.8204                   22401476.9304
  -8867996.93448  -6902220.82447  20245923.6564                   20245920.7544
 -17358162.71548 -13516553.29346  20516593.4774                   20516591.3984
   1609176.00447   1277432.83643  23554284.4694                   23554281.7194
 -15098485.74248 -11749037.75046  21484252.5704                   21484250.2384
  18224332.25447  14196172.20743  23398626.8054                   23398628.2704
  13463559.76247  10490774.49645  23433090.3134                   23433087.1954
 -11007273.14146  -8562078.70344  22232620.8364                   22232618.4024
 11  8 24 18 12 30.0000000  0  9G17G24G07G08G26G11G13G19G28
  -3898941.21147  -3011388.53944  23072309.0944                   23072308.2154
  -8039250.22747  -6244371.82845  22386217.4774                   22386217.4884
  -8893098.63748  -6921780.62547  20241147.2274                   20241144.7034
 -17438438.73048 -13579106.03146  20501317.3364                   20501315.0634
   1510913.76247   1200864.92243  23535584.8204                   23535584.2664
 -15141452.80948 -11782518.56645  21476075.9384                   21476073.5434
  18304013.62947  14258261.32443  23413789.5944                   23413789.9384
  13534231.84847  10545843.57444  23446538.9064                   23446535.2814
 -11063708.30147  -8606054.12544  22221882.9924                   22221878.8874
 11  8 24 18 13  0.0000000  0  9G17G24G07G08G26G11G13G19G28
  -4019347.37947  -3105211.38344  23049396.8444                   23049395.9104
  -8119095.93047  -6306589.22745  22371022.9774                   22371022.7274
  -8917768.86748  -6941004.20347  20236452.4774                   20236450.2894
 -17518413.32448 -13641423.91046  20486098.4924                   20486096.5434
   1413123.56646   1124664.78943  23516974.8834                   23516975.2274
 -15183886.69148 -11815583.93046  21468001.0394                   21467998.2304
  18383736.57847  14320382.82043  23428960.7734                   23428961.3554
  13605040.48047  10601019.03144  23460012.9064                   23460009.3594
 -11120103.53147  -8649998.47344  22211149.8284                   22211147.2584
 11  8 24 18 13 30.0000000  0  9G17G24G07G08G26G11G13G19G28
  -4139519.53947  -3198851.91444  23026528.2664                   23026528.0904
  -8198591.71147  -6368533.94545  22355895.4694                   22355895.2344
  -8942007.26248  -6959891.29347  20231840.3364                   20231837.7274
 -17598084.08248 -13703505.02046  20470937.7344                   20470935.5824
   1315806.53946   1048833.36743  23498456.0474                   23498456.5474
 -15225787.06648 -11848233.57045  21460027.2974                   21460024.4224
  18463497.52046  14382533.89143  23444137.5944                   23444140.5514
  13675982.06646  10656298.13344  23473512.7344                   23473508.4344
 -11176460.35247  -8693912.88744  22200425.9304                   22200422.4844
 11  8 24 18 14  0.0000000  0  9G17G24G07G08G26G11G13G19G28
  -4259455.75447  -3292308.57844  23003705.2504                   23003704.3014
  -8277734.59047  -6430203.66045  22340835.2894                   22340834.6804
  -8965812.43048  -6978440.79347  20227310.4774                   20227307.7544
 -17677448.16848 -13765347.17246  20455835.2424                   20455833.2504
   1218965.50047    973372.83243  23480029.3754                   23480028.6644
 -15267153.00848 -11880466.76645  21452155.9064                   21452153.3554
  18543293.81346  14444712.53143  23459323.5554                   23459326.4024
  13747053.88346  10711678.71944  23487036.9774                   23487032.3364
 -11232779.18047  -8737797.69144  22189708.5234                   22189705.5554
 11  8 24 18 14 30.0000000  0  9G17G24G07G08G26G11G13G19G28
  -4379154.45347  -3385580.14144  22980927.0704                   22980926.7544
  -8356521.84447  -6491596.29745  22325841.7584                   22325842.1644
  -8989183.31248  -6996651.89547  20222863.1024                   20222860.4844
 -17756503.21547 -13826948.52746  20440791.3594                   20440789.3204
   1122602.44946    898284.75043  23461692.1954                   23461690.4734
 -15307983.15248 -11912282.45746  21444386.2734                   21444383.6764
  18623122.33646  14506916.25444  23474514.2814                   23474517.8204
  13818253.55546  10767158.90644  23500585.5784                   23500581.6764
 -11289060.47747  -8781653.25844  22178998.5164                   22178994.7424
 11  8 24 18 15  0.0000000  0  9G17G24G07G08G26G11G13G19G28
  -4498612.27347  -3478664.03144  22958194.1484                   22958194.1804
  -8434948.90647  -6552708.23845  22310918.1804                   22310917.8524
  -9012117.02748  -7014522.34846  20218498.3914                   20218495.7664
 -17835245.00048 -13888305.75846  20425807.4144                   20425805.4024
   1026721.23046    823572.14843  23443445.8594                   23443446.4964
 -15348274.62948 -11943678.40246  21436719.0314                   21436716.7154
  18702981.89146  14569144.20343  23489711.8134                   23489714.5204
  13889580.03946  10822737.90244  23514158.6884                   23514155.2504
 -11345303.63347  -8825479.09844  22168295.7664                   22168292.5044
 11  8 24 18 15 30.0000000  0  9G17G24G07G08G26G11G13G19G28
  -4617827.76647  -3571559.08645  22935509.3834                   22935508.9264
  -8513013.15247  -6613537.45745  22296062.8364                   22296062.8914
  -9034612.18748  -7032051.07447  20214218.2114                   20214215.6564
 -17913671.16448 -13949417.05946  20410883.1724                   20410881.6844
    931323.86746    749236.59043  23425292.1094                   23425292.4804
 -15388026.53148 -11974653.89846  21429154.5314                   21429151.6844
  18782869.64546  14631394.09443  23504914.1804                   23504917.1454
  13961030.77746  10878413.72744  23527755.2974                   23527752.7464
 -11401509.18747  -8869275.63344  22157600.6954                   22157598.8674
 11  8 24 18 16  0.0000000  0  9G17G24G07G08G26G11G13G19G28
  -4736798.69547  -3664263.62545  22912869.8914                   22912869.6884
  -8590711.74647  -6674081.76245  22281276.7034                   22281277.1214
  -9056667.87548  -7049237.34847  20210021.1174                   20210018.9694
 -17991778.85548 -14010280.19546  20396020.2894                   20396017.9144
    836412.93046    675279.99243  23407231.2814                   23407230.2894
 -15427237.65648 -12005208.02045  21421692.5944                   21421689.8324
  18862782.73446  14693663.73443  23520121.2114                   23520124.0904
  14032603.75447  10934184.81644  23541375.6644                   23541372.1374
 -11457677.59847  -8913043.19944  22146912.4534                   22146910.0904
 11  8 24 18 16 30.0000000  0  9G17G24G07G08G26G11G13G19G28
  -4855522.03547  -3756775.21945  22890277.0084                   22890277.2154
  -8668040.52047  -6734337.90645  22266562.0864                   22266562.3914
  -9078281.07048  -7066078.81647  20205908.1094                   20205906.0434
 -18069564.36748 -14070892.28546  20381217.7504                   20381215.9694
    741991.94147    601705.20343  23389264.1414                   23389262.7814
 -15465905.24648 -12035338.61345  21414334.1804                   21414331.8984
  18942719.98047  14755952.17643  23535333.5314                   23535335.9534
  14104297.67646  10990050.16844  23555017.3204                   23555015.1454
 -11513808.35947  -8956781.44544  22136231.2344                   22136228.8834
 11  8 24 18 17  0.0000000  0  9G17G24G07G08G26G11G13G19G28
  -4973997.08647  -3849093.35945  22867731.8594                   22867732.8714
  -8744997.69547  -6794304.50045  22251917.3594                   22251917.6254
  -9099451.66448  -7082575.41047  20201879.4924                   20201877.3674
 -18147025.69148 -14131251.77746  20366477.6254                   20366475.5594
    648062.19546    528513.18043  23371388.9144                   23371389.0634
 -15504029.45748 -12065045.79345  21407079.1024                   21407076.6994
  19022677.33247  14818256.25443  23550549.0394                   23550551.3794
  14176109.02346  11046006.96544  23568683.1094                   23568680.7234
 -11569902.31247  -9000491.03544  22125556.7734                   22125553.1134
 11  8 24 18 17 30.0000000  0  9G17G24G07G08G26G11G13G19G28
  -5092221.10947  -3941215.88345  22845234.4534                   22845234.7504
  -8821579.52347  -6853978.60945  22237343.2894                   22237344.4884
  -9120177.85948  -7098725.71547  20197935.5084                   20197933.6524
 -18224159.07448 -14191355.72746  20351799.4144                   20351797.3714
    554626.43846    455706.09443  23353608.9144                   23353609.6484
 -15541608.43048 -12094328.10245  21399928.3594                   21399924.8554
  19102652.96146  14880574.61743  23565767.8444                   23565771.2074
  14248036.02347  11102053.94544  23582371.7504                   23582367.0514
 -11625959.99647  -9044172.32044  22114888.7664                   22114887.0394
 11  8 24 18 18  0.0000000  0  9G17G24G07G08G26G11G13G19G28
  -5210191.59447  -4033140.82445  22822785.6804                   22822785.6484
  -8897782.37947  -6913357.39144  22222842.7504                   22222842.9884
  -9140457.34848  -7114527.92647  20194076.7734                   20194073.7504
 -18300960.78148 -14251201.22746  20337184.8594                   20337182.7664
    461688.10946    383286.65643  23335922.9534                   23335924.5554
 -15578639.79748 -12123183.71945  21392882.1804                   21392878.3554
  19182645.35546  14942906.05143  23580990.1094                   23580993.1524
  14320077.28147  11158189.91445  23596080.4844                   23596077.1564
 -11681980.66447  -9087824.79744  22104228.6334                   22104226.3244
 11  8 24 18 18 30.0000000  0  9G17G24G07G08G26G11G13G19G28
  -5327903.70747  -4124864.47745  22800385.5004                   22800386.2424
  -8973600.39147  -6972436.29745  22208415.1094                   22208415.6994
  -9160285.50448  -7129978.48047  20190303.5864                   20190300.2774
 -18377425.59448 -14310784.21546  20322633.7344                   20322631.6994
    369252.32446    311258.79343  23318333.2344                   23318333.2894
 -15615119.64148 -12151609.56245  21385940.5554                   21385936.6134
  19262654.13347  15005250.25043  23596215.3284                   23596218.8204
  14392233.39847  11214415.39145  23609812.1644                   23609807.8014
 -11737961.67647  -9131446.35544  22093575.5474                   22093572.2424
 11  8 24 18 19  0.0000000  0  9G17G24G07G08G26G11G13G19G28
  -5445354.48047  -4216384.46145  22778035.5084                   22778035.8714
  -9049029.62547  -7031212.29745  22194061.6094                   22194061.7734
  -9179660.60548  -7145075.99647  20186616.9454                   20186613.4734
 -18453549.33248 -14370101.41446  20308148.4774                   20308146.2194
    277322.48046    239625.09443  23300840.1094                   23300839.1454
 -15651045.73847 -12179603.91045  21379103.4694                   21379101.4414
  19342678.07446  15067606.20343  23611443.3674                   23611447.4104
  14464503.21547  11270729.50045  23623563.5314                   23623560.9884
 -11793902.59447  -9175036.68444  22082930.9224                   22082926.7774
 11  8 24 18 19 30.0000000  0  9G17G24G07G08G26G11G13G19G28
  -3987115.75047  -3080094.43045  23055529.4844                   23055529.3714
  -7548642.39147  -5862079.32844  22479575.4144                   22479575.9144
  -7623158.47748  -5932217.23047  20482809.1884                   20482806.2854
 -16953904.16848 -13201546.75846  20593521.1644                   20593519.1054
   1761326.11746   1395991.51643  23583237.6174                   23583235.0084
 -14110993.41448 -10979563.14845  21672165.7194                   21672163.8444
  20998134.23047  16357571.74643  23926466.9144                   23926469.6844
  16112304.30147  12554730.23044  23937130.3204                   23937127.1564
 -10274379.59447  -7990992.79344  22372085.9454                   22372082.2034
 11  8 24 18 20  0.0000000  0  9G17G24G07G08G26G11G13G19G28
  -4104031.60547  -3171197.62145  23033280.5314                   23033280.9884
  -7623279.02747  -5920237.71945  22465373.3444                   22465372.5474
  -7641616.84448  -5946600.40647  20479296.5164                   20479293.9184
 -17029330.80148 -13260320.77046  20579167.7584                   20579166.0354
   1670421.42246   1325156.68043  23565938.2344                   23565936.0594
 -14145801.99247 -11006686.74245  21665541.3914                   21665539.8014
  21078187.46547  16419950.52043  23941700.8674                   23941703.1764
  16184801.33246  12611221.31644  23950926.2344                   23950922.8634
 -10330234.66847  -8034516.23045  22361457.1804                   22361454.5204
 11  8 24 18 20 30.0000000  0  9G17G24G07G08G26G11G13G19G28
  -4220675.94547  -3262089.20345  23011083.7274                   23011084.2624
  -7697513.40647  -5978082.64545  22451246.7424                   22451246.7194
  -7659613.27348  -5960623.62947  20475871.9064                   20475869.7814
 -17104403.31248 -13318818.83246  20564882.0164                   20564880.4614
   1580034.09046   1254725.02743  23548736.8364                   23548735.5514
 -14180048.77748 -11033372.58246  21659025.0784                   21659022.6024
  21158252.84446  16482338.79343  23956937.0784                   23956939.1414
  16257410.15246  12667799.52044  23964742.9924                   23964739.0434
 -10386045.94547  -8078005.53944  22350836.4064                   22350833.5554
 11  8 24 18 21  0.0000000  0  9G17G24G07G08G26G11G13G19G28
  -4337048.36747  -3352768.92645  22988938.6564                   22988938.5514
  -7771344.25047  -6035613.13345  22437196.9924                   22437197.2974
  -7677148.26248  -5974287.27747  20472535.2504                   20472532.8594
 -17179120.39148 -13377039.92246  20550663.9844                   20550662.1914
   1490164.90646   1184697.10242  23531635.9924                   23531633.0904
 -14213734.22348 -11059620.97345  21652615.0234                   21652611.2894
  21238326.15246  16544733.29343  23972175.0164                   23972178.4574
  16330126.93446  12724461.90643  23978579.9144                   23978577.2234
 -10441815.22347  -8121462.10945  22340224.1954                   22340221.7424
 11  8 24 18 21 30.0000000  0  9G17G24G07G08G26G11G13G19G28
  -4453145.65247  -3443234.23845  22966846.0234                   22966846.1844
  -7844767.69547  -6092826.18044  22423224.7894                   22423224.3754
  -7694219.19548  -5987589.32447  20469286.7344                   20469284.6374
 -17253477.87148 -13434980.82446  20536514.1254                   20536512.0784
   1400817.37546   1115075.71943  23514634.4064                   23514631.6604
 -14246856.23847 -11085430.34445  21646311.8054                   21646308.9304
  21318406.21946  16607133.01243  23987413.1174                   23987417.3754
  16402950.75046  12781207.68444  23992438.4144                   23992434.5434
 -10497541.55147  -8164885.19544  22329620.1024                   22329618.0084
 11  8 24 18 22  0.0000000  0  9G17G24G07G08G26G11G13G19G28
  -4568966.79347  -3533484.36345  22944805.7194                   22944805.4264
  -7917781.68747  -6149720.18045  22409330.2274                   22409330.2304
  -7710825.64548  -6000529.46147  20466126.6804                   20466124.2854
 -17327473.82448 -13492640.01246  20522433.0314                   20522431.2734
   1311992.71546   1045861.76642  23497730.9304                   23497729.2704
 -14279414.19548 -11110800.18445  21640116.1644                   21640113.3054
  21398489.59847  16669535.31643  24002653.1644                   24002656.7624
  16475878.23446  12838034.21144  24006315.4384                   24006312.5664
 -10553226.08247  -8208275.74644  22319024.2424                   22319021.3914
 11  8 24 18 22 30.0000000  0  9G17G24G07G08G26G11G13G19G28
  -4684511.24247  -3623518.90245  22922818.5554                   22922818.7584
  -7990384.54347  -6206293.81245  22395514.5634                   22395515.2464
  -7726967.57048  -6013107.62147  20463055.1564                   20463052.2624
 -17401106.23048 -13550015.91446  20508421.3444                   20508418.8594
   1223692.09046    977056.07042  23480927.6254                   23480925.2154
 -14311408.43748 -11135730.75445  21634027.7194                   21634025.3244
  21478572.62946  16731937.33243  24017892.5234                   24017895.3874
  16548906.43846  12894939.18444  24020212.3834                   24020210.4534
 -10608870.39847  -8251634.94144  22308434.0084                   22308433.2504
 11  8 24 18 23  0.0000000  0  9G17G24G07G08G26G11G13G19G28
  -4799775.46147  -3713335.06645  22900884.2114                   22900884.3834
  -8062571.52347  -6262543.39145  22381778.7664                   22381777.8164
  -7742642.28548  -6025321.71947  20460072.0004                   20460069.5984
 -17474370.35948 -13607104.85946  20494479.8444                   20494477.4304
   1135919.43446    908661.84842  23464225.1954                   23464222.9414
 -14342836.12148 -11160219.85945  21628047.6954                   21628045.0634
  21558654.45747  16794338.38343  24033132.0554                   24033134.5594
  16622034.81647  12951922.31644  24034128.0704                   24034125.8324
 -10664473.08647  -8294961.69144  22297854.3204                   22297851.4224
 11  8 24 18 23 30.0000000  0  9G17G24G07G08G26G11G13G19G28
  -4914757.67647  -3802931.50845  22879003.7504                   22879004.2154
  -8134339.87147  -6318466.76245  22368121.1954                   22368121.3754
  -7757848.35548  -6037170.65247  20457178.7814                   20457175.7424
 -17547263.86748 -13663905.00046  20480608.5474                   20480606.6954
   1048676.88746    840680.63742  23447624.1724                   23447620.4304
 -14373696.54347 -11184266.95746  21622175.4144                   21622173.0044
  21638732.53146  16856736.48843  24048370.2034                   24048373.7814
  16695261.02047  13008981.65644  24048063.6644                   24048060.1564
 -10720034.42646  -8338256.21144  22287280.1954                   22287279.0124
 11  8 24 18 24  0.0000000  0  9G17G24G07G08G26G11G13G19G28
  -5029460.16847  -3892310.00045  22857176.1484                   22857176.9414
  -8205691.20747  -6374065.16445  22354543.1174                   22354542.7774
  -7772589.00848  -6048656.90647  20454373.4694                   20454370.6174
 -17619788.23048 -13720417.50046  20466807.6024                   20466805.2664
    961962.05546    773110.67243  23431122.6174                   23431122.3164
 -14403992.84048 -11207874.46546  21616409.7894                   21616407.8094
  21718800.00446  16919126.37943  24063607.1334                   24063611.1334
  16768578.42647  13066112.06344  24062015.6414                   24062012.9734
 -10775559.23446  -8381522.27044  22276714.9924                   22276712.8754
 11  8 24 18 24 30.0000000  0  9G17G24G07G08G26G11G13G19G28
  -5143884.08247  -3981471.40645  22835402.0314                   22835401.9344
  -8276625.56647  -6429338.67245  22341045.2894                   22341045.4534
  -7786866.06648  -6059781.92647  20451656.7974                   20451654.0234
 -17691943.84048 -13776642.65646  20453076.6644                   20453075.0744
    875774.20346    705951.35543  23414720.6094                   23414721.4574
 -14433727.12548 -11231044.04746  21610751.6024                   21610749.5124
  21798851.52746  16981503.86343  24078840.7274                   24078845.6844
  16841982.50847  13123309.97744  24075984.2424                   24075981.4414
 -10831050.28946  -8424762.02744  22266154.7584                   22266152.7234
 11  8 24 18 25  0.0000000  0  9G17G24G07G08G26G11G13G19G28
  -5258030.91447  -4070416.91045  22813681.1954                   22813680.6914
  -8347143.18447  -6484287.43445  22327626.1724                   22327626.0554
  -7800680.94548  -6070546.79747  20449028.1884                   20449025.5474
 -17763730.59448 -13832580.38746  20439416.7274                   20439414.0314
    790112.52346    639202.04343  23398419.9304                   23398421.1134
 -14462901.20747 -11253777.07045  21605199.9384                   21605197.7934
  21878881.59046  17043864.60544  24094070.6484                   24094075.7974
  16915468.03547  13180571.36744  24089966.8834                   24089965.2504
 -10886511.00847  -8467978.15644  22255601.2344                   22255599.4654
 11  8 24 18 25 30.0000000  0  9G17G24G07G08G26G11G13G19G28
  -5371899.41047  -4159145.51645  22792012.7664                   22792012.6524
  -8417242.06247  -6538909.91445  22314286.2664                   22314286.5044
  -7814033.85248  -6080951.70347  20446487.2504                   20446484.7584
 -17835146.50848 -13888229.16046  20425826.3444                   20425824.2734
    704978.09846    572863.59443  23382219.7584                   23382219.7384
 -14491515.34448 -11276073.80545  21599754.5944                   21599753.2194
  21958886.69946  17106205.89843  24109294.7424                   24109300.3444
  16989031.86747  13237893.75044  24103966.8134                   24103963.5744
 -10941942.60547  -8511171.59444  22245052.7974                   22245049.8134
 11  8 24 18 26  0.0000000  0  9G17G24G07G08G26G11G13G19G28
  -5485491.69147  -4247658.90245  22770396.8754                   22770396.6134
  -8486923.47748  -6593207.08645  22301027.1804                   22301026.2734
  -7826927.43048  -6090998.68746  20444033.7894                   20444031.1414
 -17906192.53148 -13943589.69146  20412306.6334                   20412304.4804
    620369.46146    506934.78143  23366119.7504                   23366118.6254
 -14519572.74648 -11297936.71946  21594415.6644                   21594413.4454
  22038860.89846  17168523.10543  24124513.6644                   24124518.2734
  17062668.00447  13295272.44944  24117978.9924                   24117975.9694
 -10997348.93047  -8554345.35944  22234509.8204                   22234506.1994
 11  8 24 18 26 30.0000000  0  9G17G24G07G08G26G11G13G19G28
  -5598806.85547  -4335956.37545  22748833.6024                   22748832.1954
  -8556185.51247  -6647177.47345  22287847.2584                   22287846.2384
  -7839361.40248  -6100687.53946  20441667.2734                   20441664.7894
 -17976866.47748 -13998660.30946  20398858.0944                   20398855.5554
    536287.74246    441416.53543  23350119.4774                   23350115.7974
 -14547073.07848 -11319365.52745  21589182.8444                   21589179.6294
  22118800.80546  17230813.53943  24139726.2894                   24139730.1994
  17136373.41046  13352705.09044  24132004.6094                   24132001.2664
 -11052731.18047  -8597500.37944  22223970.3284                   22223967.1564
 11  8 24 18 27  0.0000000  0  9G17G24G07G08G26G11G13G19G28
  -5711844.79747  -4424037.81245  22727322.8364                   22727322.1524
  -8625027.22348  -6700820.32445  22274747.2194                   22274746.5784
  -7851336.48448  -6110018.80946  20439388.5864                   20439386.0204
 -18047167.40248 -14053440.25846  20385480.0634                   20385478.0354
    452733.12546    376309.04743  23334218.8444                   23334216.8554
 -14574017.11348 -11340360.87546  21584055.2114                   21584052.8984
  22198702.30546  17293074.03543  24154930.9064                   24154934.8094
  17210144.56646  13410189.03943  24146041.5864                   24146039.2194
 -11108091.25847  -8640638.12944  22213436.0314                   22213430.9494
 11  8 24 18 27 30.0000000  0  9G17G24G07G08G26G11G13G19G28
  -5824605.68448  -4511903.37145  22705865.1024                   22705864.2234
  -8693447.79747  -6754135.02345  22261727.1564                   22261726.2584
  -7862853.41847  -6118993.08246  20437197.2114                   20437194.5704
 -18117094.27348 -14107928.74646  20372173.2034                   20372171.5124
    369705.78545    311612.40642  23318418.6174                   23318418.9694
 -14600406.25047 -11360923.83645  21579033.5314                   21579031.1994
  22278560.73946  17355300.99543  24170128.7664                   24170131.9614
  17283977.43046  13467721.05143  24160092.2194                   24160089.0944
 -11163431.09447  -8683760.10244  22202904.9614                   22202900.3204
 11  8 24 18 28  0.0000000  0  8G17G24G07G08G11G13G19G28
  -5937088.45747  -4599552.19945  22684460.5164                   22684459.2894
  -8761444.79347  -6807119.64845  22248786.5164                   22248787.0744
  -7873911.23847  -6127609.60246  20435092.8204                   20435089.9534
 -18186644.95348 -14162124.10246  20358938.5084                   20358936.4144
 -14626240.08248 -11381054.09446  21574117.6484                   21574115.8674
  22358373.43446  17417492.36343  24185316.1094                   24185320.8954
  17357869.63346  13525299.27743  24174153.5784                   24174149.9924
 -11218751.76247  -8726867.15244  22192378.4534                   22192372.5744
 11  8 24 18 28 30.0000000  0  9G17G24G07G08G26G11G13G19G28
  -6049292.30547  -4686983.69145  22663108.6094                   22663107.4654
  -8829017.18747  -6859773.48045  22235928.7274                   22235927.2234
  -7884510.94948  -6135869.17246  20433076.2734                   20433073.0474
 -18255817.85248 -14216025.07046  20345775.2114                   20345773.1954
    205230.66415                  23287120.969
 -14651519.34848 -11400752.23446  21569306.8674                   21569305.9024
  22438136.45746  17479645.00043  24200495.8524                   24200500.5434
  17431817.44146  13582920.84443  24188225.3444                   24188222.4344
 -11274054.89847  -8769960.52044  22181854.6564                   22181850.3054
 11  8 24 18 29  0.0000000  0  9G17G24G07G08G26G11G13G19G28
  -6161217.32847  -4774197.92645  22641809.2584                   22641809.6334
  -8896163.78547  -6912095.47745  22223151.0634                   22223150.1644
  -7894652.64848  -6143771.82846  20431146.2734                   20431143.6294
 -18324611.80548 -14269630.76246  20332683.8204                   20332681.9344
    123790.988 4                  23271622.508
 -14676244.85548 -11420018.88346  21564602.0394                   21564600.3404
  22517846.06346  17541755.98843  24215664.5164                   24215669.1374
  17505817.51247  13640583.19544  24202307.0944                   24202305.2074
 -11329341.76247  -8813041.19144  22171333.7274                   22171330.7704
 11  8 24 18 29 30.0000000  0  9G17G24G07G08G26G11G13G19G28
  -6272862.89147  -4861194.41045  22620564.5944                   22620564.0864
  -8962882.89548  -6964084.34445  22210455.0634                   22210454.8324
  -7904336.60947  -6151317.80546  20429303.1724                   20429300.8364
 -18393025.27348 -14322939.97746  20319665.4844                   20319663.4104
     42881.68415                  23256227.148
 -14700416.82448 -11438854.16446  21560002.0004                   21559999.9454
  22597498.64546  17603822.58243  24230821.2504                   24230827.1134
  17579866.68447  13698283.78145  24216399.9454                   24216396.6024
 -11384613.89547  -8856110.40644  22160815.5474                   22160813.0314
 11  8 24 18 30  0.0000000  0  9G17G24G07G08G26G11G13G19G28
  -6384228.41447  -4947972.66445  22599371.7664                   22599372.0744
  -9029173.01247  -7015738.94945  22197840.2274                   22197840.8324
  -7913562.97347  -6158507.21946  20427547.2664                   20427544.5594
 -18461056.39848 -14375951.27046  20306719.6484                   20306717.8094
    -37496.223 5                  23240932.922
 -14724035.68747 -11457258.49645  21555507.6334                   21555505.4304
  22677090.87146  17665842.17643  24245966.9224                   24245972.7544
  17653961.39547  13756019.85544  24230498.8444                   24230496.7424
 -11439872.62147  -8899169.15244  22150300.9144                   22150299.2464
 11  8 24 18 30 30.0000000  0  9G17G24G07G08G26G11G13G19G28
  -6495313.62547  -5034532.51646  22578233.3364                   22578233.2894
  -9095033.12147  -7067058.48045  22185307.5234                   22185306.8284
  -7922332.13748  -6165340.35946  20425878.4924                   20425876.1764
 -18528703.98448 -14428663.69146  20293846.9924                   20293844.4844
   -117342.41046    -67906.30552  23225739.3054                   23225738.3594
 -14747102.64848 -11475232.76645  21551117.6644                   21551114.9304
  22756618.58246  17727811.32843  24261102.0004                   24261106.7624
  17728098.62547  13813789.06644  24244607.0314                   24244604.1294
 -11495119.54347  -8942218.69144  22139786.9224                   22139785.0824
 11  8 24 18 31  0.0000000  0  9G17G24G07G08G26G11G13G19G28
  -6606116.42648  -5120872.29346  22557148.6334                   22557147.8204
  -9160460.27047  -7118040.67245  22172856.7114                   22172858.3444
  -7930642.66848  -6171816.14147  20424297.5004                   20424294.9184
 -18595964.63348 -14481074.61346  20281047.5704                   20281045.3524
   -196654.59446   -129707.97342  23210645.8984                   23210645.4264
 -14769616.43048 -11492775.95745  21546834.0314                   21546830.7664
  22836079.71146  17789728.65243  24276222.5944                   24276226.8714
  17802276.53547  13871590.00044  24258722.7734                   24258720.1914
 -11550354.32847  -8985258.75044  22129275.5234                   22129274.2234
 11  8 24 18 31 30.0000000  0  9G17G24G07G08G26G11G13G19G28
  -6716636.15647  -5206991.49646  22536117.1564                   22536116.5554
  -9225452.94547  -7168684.29345  22160488.3444                   22160488.8954
  -7938494.85248  -6177934.77747  20422803.4144                   20422800.6524
 -18662836.85548 -14533182.86746  20268322.1644                   20268320.1094
   -275432.00046   -191092.90643  23195655.0234                   23195656.2154
 -14791577.60948 -11509888.56645  21542655.1024                   21542652.6804
  22915470.88046  17851591.51843  24291331.2114                   24291334.2384
  17876492.18846  13929420.31343  24272844.0944                   24272843.2074
 -11605578.18047  -9028290.32844  22118767.1094                   22118765.2894
 11  8 24 18 32  0.0000000  0  9G17G24G07G08G26G11G13G19G28
  -6826870.87947  -5292888.60945  22515139.5634                   22515139.9614
  -9290008.18047  -7218987.06245  22148204.0784                   22148204.5434
  -7945887.67248  -6183695.45747  20421396.5944                   20421394.4064
 -18729317.64148 -14584986.08246  20255671.2734                   20255669.1844
   -353672.84846   -252059.78543  23180765.9454                   23180766.7274
 -14812985.55548 -11526570.08646  21538580.8984                   21538578.9654
  22994789.93446  17913398.16043  24306425.0704                   24306428.4964
  17950743.75047  13987278.61743  24286975.3204                   24286970.9494
 -11660791.14547  -9071313.40644  22108260.5634                   22108258.2544
 11  8 24 18 32 30.0000000  0  9G17G24G07G08G26G11G13G19G28
  -6936819.09447  -5378562.46945  22494217.4614                   22494216.7774
  -9354123.29747  -7268946.87945  22136004.1884                   22136004.2774
  -7952819.74647  -6189097.09846  20420077.4844                   20420074.5704
 -18795403.82448 -14636481.83646  20243095.4694                   20243093.5514
   -431374.83646   -312606.72343  23165980.5784                   23165981.0394
 -14833839.09448 -11542819.62145  21534612.8984                   21534610.8014
  23074035.16846  17975147.35243  24321505.0164                   24321509.0664
  18025029.58647  14045163.61743  24301110.7504                   24301106.9804
 -11715993.22747  -9114328.02044  22097755.5394                   22097753.6994
 11  8 24 18 33  0.0000000  0  9G17G24G07G08G26G11G13G19G28
  -7046477.68447  -5464010.65645  22473349.7894                   22473349.5634
  -9417794.71147  -7318560.92245  22123887.7734                   22123887.6134
  -7959289.34848  -6194138.37147  20418846.3134                   20418843.9964
 -18861091.47348 -14687667.03546  20230595.6334                   20230593.6484
   -508535.18746   -372731.64143  23151296.5554                   23151298.1094
 -14854136.72748 -11558635.97746  21530750.4224                   21530748.5554
  23153205.10547  18036837.77743  24336571.2814                   24336576.8594
  18099348.96546  14103074.74243  24315252.5634                   24315249.7854
 -11771183.03947  -9157333.05944  22087254.4614                   22087251.1804
 11  8 24 18 33 30.0000000  0  9G17G24G07G08G26G11G13G19G28
  -7155843.87147  -5549231.00845  22452538.7664                   22452537.1994
  -9481019.01247  -7367826.59845  22111856.8204                   22111856.7894
  -7965294.30548  -6198817.59447  20417703.7344                   20417701.1564
 -18926377.24648 -14738539.09046  20218172.3914                   20218170.2894
   -585151.17646   -432432.44142  23136717.0084                   23136714.8014
 -14873877.23448 -11574018.21945  21526993.8914                   21526991.5634
  23232298.21546  18098468.37143  24351622.8204                   24351627.7034
  18173700.75046  14161011.14844  24329400.6024                   24329400.7974
 -11826360.41047  -9200328.40244  22076754.1254                   22076750.7584
 11  8 24 18 34  0.0000000  0  9G17G24G07G08G26G11G13G19G28
  -7264914.96547  -5634221.42245  22431782.4384                   22431782.5004
  -9543792.14847  -7416740.69145  22099911.2114                   22099910.6994
  -7970832.62948  -6203133.21146  20416649.9144                   20416647.5864
 -18991257.24648 -14789094.95746  20205825.8204                   20205823.6764
   -661219.53946   -491706.50842  23122241.8524                   23122238.3404
 -14893058.36748 -11588964.54345  21523343.8364                   21523341.5514
  23311313.64547  18160038.45743  24366659.0944                   24366663.2274
  18248084.48046  14218972.42244  24343556.4144                   24343555.6414
 -11881523.33647  -9243312.48844  22066257.0004                   22066253.7034
 11  8 24 18 34 30.0000000  0  9G17G24G07G08G26G11G13G19G28
  -7373688.95747  -5718980.34845  22411083.2734                   22411083.0084
  -9606111.58647  -7465301.28945  22088051.6024                   22088051.0944
  -7975902.93048  -6207084.14147  20415684.7424                   20415682.6804
 -19055727.98048 -14839331.91046  20193557.3594                   20193555.8244
   -736738.57046   -550552.53543  23107872.0554                   23107869.5634
 -14911679.71148 -11603474.70745  21519799.8364                   21519797.6884
  23390249.14546  18221546.19543  24381679.8914                   24381685.2704
  18322498.29746  14276957.09844  24357717.5474                   24357715.5434
 -11936671.75047  -9286285.27745  22055762.2894                   22055759.2384
 11  8 24 18 35  0.0000000  0  9G17G24G07G08G26G11G13G19G28
  -7482163.87947  -5803506.23445  22390441.5234                   22390441.3364
  -9667974.34847  -7513506.00844  22076278.3134                   22076278.4654
  -7980504.46948  -6210669.79746  20414809.2504                   20414806.8634
 -19119786.02348 -14889247.28946  20181368.1254                   20181365.9694
   -811706.02346   -608968.72743  23093605.7584                   23093605.7664
 -14929740.52348 -11617548.08245  21516363.3834                   21516360.4844
  23469103.16046  18282990.43843  24396685.5084                   24396690.4224
  18396940.86347  14334964.19544  24371883.1954                   24371880.3484
 -11991805.55948  -9329246.68445  22045271.1484                   22045268.0514
 11  8 24 18 35 30.0000000  0  9G17G24G07G08G26G11G13G19G28
  -7590334.71547  -5887795.14545  22369857.4304                   22369857.1254
  -9729374.82447  -7561350.53145  22064595.8914                   22064594.3484
  -7984633.09048  -6213886.94546  20414023.8134                   20414020.9304
 -19183425.87148 -14938836.80947  20169257.5704                   20169255.3054
   -886117.01247   -666951.34443  23079446.0784                   23079446.5944
 -14947236.96148 -11631181.64845  21513034.0084                   21513030.1294
  23547876.46546  18344371.89543  24411676.2194                   24411681.4224
  18471413.32846  14392994.61344  24386055.5234                   24386051.4264
 -12046921.58247  -9372194.23045  22034782.3834                   22034780.1644
 11  8 24 18 36  0.0000000  0  9G17G24G07G08G26G11G13G19G28
  -7698199.16047  -5971845.29345  22349331.4064                   22349331.3324
  -9790309.32447  -7608831.94545  22053000.5704                   22052999.5274
  -7988286.86748  -6216734.08246  20413328.0474                   20413325.6374
 -19246643.62548 -14988097.41046  20157227.5784                   20157225.4264
   -959969.03146   -724498.34843  23065391.7584                   23065393.4614
 -14964167.60247 -11644374.33645  21509812.1254                   21509808.9384
  23626567.93846  18405689.51643  24426650.8364                   24426656.3324
  18545915.13347  14451047.87144  24400232.7894                   24400229.1134
 -12102018.70348  -9415127.04345  22024297.7034                   22024294.7034
 11  8 24 18 36 30.0000000  0  9G17G24G07G08G26G11G13G19G28
  -7805753.66047  -6055653.93445  22328863.9454                   22328863.8914
  -9850773.77047  -7655947.05145  22041494.6804                   22041493.8244
  -7991462.87147  -6219208.92646  20412723.9064                   20412721.6884
 -19309434.94148 -15037025.71946  20145278.6094                   20145276.5984
  -1033258.64546   -781607.13343  23051445.5084                   23051445.8754
 -14980530.26248 -11657124.47345  21506698.7504                   21506695.7704
  23705177.05146  18466943.00042  24441610.0314                   24441615.2464
  18620446.09847  14509123.86344  24414415.2734                   24414411.9414
 -12157095.32848  -9458043.89545  22013817.1334                   22013814.5274
 11  8 24 18 37  0.0000000  0  9G17G24G07G08G26G11G13G19G28
  -7912994.16447  -6139217.86745  22308457.2034                   22308456.8164
  -9910763.51647  -7702692.28545  22030078.3754                   22030078.8794
  -7994158.67247  -6221309.57446  20412211.1724                   20412208.8404
 -19371794.68048 -15085617.73846  20133412.0944                   20133410.2774
  -1105981.93746   -838274.58643  23037606.0944                   23037607.3204
 -14996322.41848 -11669430.04345  21503693.7034                   21503690.0124
  23783703.70346  18528132.16443  24456553.4064                   24456558.5394
  18695006.26647  14567222.62944  24428604.1804                   24428601.4144
 -12212149.09848  -9500942.94545  22003341.0634                   22003337.6054
 11  8 24 18 37 30.0000000  0  9G17G24G07G08G26G11G13G19G28
  -8019917.94547  -6222535.06245  22288110.0864                   22288109.8874
  -9970274.71547  -7749064.61745  22018753.5004                   22018753.8554
  -7996372.03148  -6223034.31246  20411790.1804                   20411788.0354
 -19433719.07448 -15133870.53146  20121628.4534                   20121627.0044
  -1178135.87546   -894498.43743  23023876.4454                   23023876.0784
 -15011542.50448 -11681289.86346  21500797.2274                   21500794.5234
  23862147.03546  18589256.45342  24471481.6024                   24471486.4614
  18769595.45346  14625344.05143  24442797.4694                   24442795.2424
 -12267178.66048  -9543823.12145  21992869.5944                   21992866.2774
 11  8 24 18 38  0.0000000  0  9G17G24G07G08G26G11G13G19G28
  -8126522.97347  -6305603.89845  22267823.6724                   22267822.7974
 -10029304.84447  -7795062.14545  22007520.8594                   22007521.1294
  -7998101.65648  -6224382.11746  20411460.8674                   20411458.5984
 -19495204.89148 -15181781.56246  20109928.0004                   20109926.5514
  -1249718.46946   -950277.10943  23010255.1564                   23010254.2304
 -15026189.89148 -11692703.43446  21498009.2894                   21498007.5234
  23940505.23045  18650314.39842  24486391.8444                   24486398.4144
  18844212.68846  14683487.32443  24456996.7034                   24456994.4654
 -12322183.65648  -9586684.17645  21982401.9304                   21982399.0864
 11  8 24 18 38 30.0000000  0  9G17G24G07G08G26G11G13G19G28
  -8232806.54348  -6388422.21945  22247598.8914                   22247598.0744
 -10087850.17247  -7840681.85545  21996380.5084                   21996380.0274
  -7999345.80948  -6225351.63747  20411224.5944                   20411222.1844
 -19556247.93748 -15229347.58246  20098311.7734                   20098310.1724
  -1320727.29746  -1005608.68743  22996741.8524                   22996741.6094
 -15040262.99648 -11703669.49245  21495331.3914                   21495329.3634
  24018777.69146  18711305.55942  24501286.2274                   24501294.5274
  18918856.98046  14741651.65243  24471201.6644                   24471198.1214
 -12377162.97348  -9629525.21945  21971940.0944                   21971936.3324
 11  8 24 18 39  0.0000000  0  9G17G24G07G08G26G11G13G19G28
  -8338767.24247  -6470988.93745  22227435.2194                   22227434.0514
 -10145908.68047  -7885922.21145  21985332.4774                   21985332.3674
  -8000103.86348  -6225942.37546  20411079.9224                   20411078.1454
 -19616845.92648 -15276566.80546  20086780.4534                   20086778.6024
  -1391160.73846  -1060491.92643  22983338.7584                   22983338.3794
 -15053761.75048 -11714188.03145  21492763.1174                   21492760.2114
  24096961.37946  18772227.63742  24516164.5784                   24516172.8794
  18993526.11746  14799835.29343  24485409.6174                   24485407.1884
 -12432116.62147  -9672346.25445  21961482.6254                   21961479.7114
 11  8 24 18 39 30.0000000  0  9G17G24G07G08G26G11G13G19G28
  -8444404.11748  -6553303.30145  22207333.2814                   22207332.6024
 -10203478.28547  -7930781.60945  21974376.6254                   21974376.7424
  -8000375.67648  -6226154.21946  20411027.9534                   20411025.6844
 -19676996.57448 -15323437.46946  20075334.4064                   20075332.2734
  -1461017.77346  -1114926.03943  22970045.5944                   22970044.5554
 -15066686.28148 -11724259.08645  21490303.5704                   21490300.7774
  24175053.98046  18833078.71143  24531026.0164                   24531033.0514
  19068218.32045  14858036.92243  24499621.9614                   24499620.7704
 -12487045.06648  -9715147.64545  21951029.6334                   21951026.9574
 11  8 24 18 40  0.0000000  0  9G17G24G07G08G26G11G13G19G28
  -8549715.59848  -6635364.16446  22187293.0394                   22187292.2664
 -10260556.89847  -7975258.41845  21963515.3204                   21963515.6054
  -8000160.37948  -6225986.49646  20411068.9384                   20411066.6174
 -19736697.53948 -15369957.72346  20063973.6644                   20063971.6024
  -1530296.98046  -1168909.87543  22956862.0394                   22956861.4344
 -15079036.66048 -11733882.78945  21487953.4384                   21487950.1764
  24253053.12546  18893856.89542  24545868.8984                   24545876.2074
  19142931.44946  14916254.90243  24513839.9774                   24513837.8164
 -12541948.52747  -9757929.56645  21940582.2504                   21940579.5784
 11  8 24 18 40 30.0000000  0  9G17G24G07G08G26G11G13G19G28
  -8654698.24248  -6717168.75046  22167315.1254                   22167314.6524
 -10317140.32847  -8019349.41045  21952747.0084                   21952747.2274
  -7999455.77748  -6225437.51246  20411203.6334                   20411200.9224
 -19795944.25848 -15416124.02046  20052699.4224                   20052697.3054
  -1598995.50446  -1222441.16843  22943789.5004                   22943788.5664
 -15090810.87548 -11743057.48045  21485712.6884                   21485708.4844
  24330958.41846  18954561.95343  24560694.4844                   24560701.8634
  19217665.61746  14974489.25844  24528063.0784                   24528060.4884
 -12596824.92647  -9800690.40245  21930139.5234                   21930137.3874
 11  8 24 18 41  0.0000000  0  8G17G24G07G08G26G11G19G28
  -8759350.61348  -6798716.01245  22147400.5864                   22147400.5864
 -10373226.44147  -8063052.84845  21942074.1484                   21942074.5124
  -7998261.28948  -6224506.78547  20411431.1024                   20411428.3714
 -19854734.01248 -15461934.23446  20041511.8134                   20041510.0274
  -1667111.50447  -1275518.62144  22930827.8594                   22930827.2704
 -15102008.39848 -11751782.82045  21483581.7194                   21483578.4574
  19292419.17246  15032738.70344  24542288.0004                   24542285.3594
 -12651674.33247  -9843430.20745  21919701.9304                   21919700.2664
 11  8 24 18 41 30.0000000  0  8G17G24G07G08G26G11G19G28
  -8863671.89547  -6880005.28945  22127548.5234                   22127547.5204
 -10428813.33647  -8106367.33645  21931497.2584                   21931495.9184
  -7996576.78148  -6223194.23846  20411751.1094                   20411748.9144
 -19913064.33648 -15507386.44946  20030411.9144                   20030410.0554
  -1734644.23847  -1328141.48443  22917976.6174                   22917976.5124
 -15112630.05148 -11760059.45345  21481560.5554                   21481558.5984
  19367189.64547  15091001.39144  24556516.8524                   24556514.3674
 -12706496.99248  -9886149.15245  21909269.8524                   21909267.2154
 11  8 24 18 42  0.0000000  0  8G17G24G07G08G26G11G19G28
  -8967653.03548  -6961029.49645  22107762.1644                   22107760.6844
 -10483891.91847  -8149285.67245  21921015.7664                   21921014.6994
  -7994394.69948  -6221493.96546  20412166.5394                   20412164.6914
 -19970926.12948 -15552473.57046  20019401.4774                   20019399.6764
  -1801585.44547  -1380303.49644  22905238.5164                   22905237.9224
 -15122668.60548 -11767881.72345  21479650.4774                   21479648.5514
  19441982.46147  15149281.46544  24570749.3134                   24570746.8984
 -12761285.84448  -9928841.76645  21898844.0704                   21898840.8364
 11  8 24 18 42 30.0000000  0  8G17G24G07G08G26G11G19G28
  -9071289.93448  -7041785.47745  22088040.6414                   22088039.2344
 -10538456.60247  -8191803.60245  21910633.2034                   21910632.2664
  -7991711.15648  -6219402.92646  20412677.2194                   20412675.4694
 -20028313.42648 -15597190.96546  20008480.8914                   20008479.0984
  -1867930.36747  -1432000.86344  22892613.1414                   22892613.2504
 -15132120.72748 -11775247.03945  21477851.5234                   21477849.2624
  19516799.13346  15207580.09844  24584987.1254                   24584983.9494
 -12816037.95348  -9971505.74245  21888424.9774                   21888422.0354
 11  8 24 18 43  0.0000000  0  8G17G24G07G08G26G11G19G28
  -9174579.75048  -7122271.01245  22068385.4064                   22068383.8444
 -10592504.16847  -8233918.56245  21900347.1094                   21900346.7114
  -7988524.55147  -6216919.89546  20413283.2974                   20413281.7854
 -20085222.57848 -15641535.76246  19997651.3984                   19997649.6804
  -1933676.59847  -1483231.70744  22880101.5634                   22880100.6174
 -15140985.34048 -11782154.56645  21476165.3134                   21476162.3874
  19591639.08646  15265896.89843  24599227.4064                   24599225.5394
 -12870751.67647 -10014139.81245  21878012.8284                   21878010.4574
 11  8 24 18 43 30.0000000  0  8G17G24G07G08G26G11G19G28
  -9277524.41448  -7202487.60946  22048795.1724                   22048794.2504
 -10646035.73047  -8275631.46945  21890161.1024                   21890161.5124
  -7984837.37547  -6214046.81246  20413985.3674                   20413983.1994
 -20141653.97748 -15685508.28547  19986912.9614                   19986910.9614
  -1998826.15647  -1533997.61344  22867703.9534                   22867704.3134
 -15149265.20748 -11788606.41445  21474589.1174                   21474586.1884
  19666497.47346  15324228.00843  24613472.9534                   24613469.4804
 -12925430.57848 -10056746.73446  21867608.1334                   21867605.6914
 11  8 24 18 44  0.0000000  0  8G17G24G07G08G26G11G19G28
  -9380126.07847  -7282436.92645  22029271.1254                   22029269.8554
 -10699052.67247  -8316943.37545  21880071.9614                   21880071.6454
  -7980652.98047  -6210786.30946  20414781.8914                   20414778.6374
 -20197608.72748 -15729109.41446  19976265.0704                   19976262.8014
  -2063381.37547  -1584300.37543  22855419.5084                   22855418.6454
 -15156964.50447 -11794605.86345  21473123.5164                   21473120.5984
  19741368.81346  15382569.30143  24627720.4144                   24627716.9024
 -12980077.78147 -10099328.96546  21857209.3834                   21857206.2894
 11  8 24 18 44 30.0000000  0  8G17G24G07G08G26G11G19G28
  -9482386.62147  -7362120.45346  22009811.2344                   22009810.7664
 -10751556.21547  -8357855.19945  21870081.1564                   21870081.8364
  -7975974.15248  -6207140.54346  20415671.9304                   20415669.4024
 -20253087.59848 -15772339.73046  19965707.7974                   19965706.0044
  -2127344.42647  -1634141.73443  22843248.2194                   22843246.5474
 -15164086.28948 -11800155.30945  21471769.2894                   21471765.3444
  19816248.11346  15440916.72343  24641969.5004                   24641966.5314
 -13034696.56248 -10141889.05146  21846815.3524                   21846812.3014
 11  8 24 18 45  0.0000000  0  7G17G24G07G08G26G11G28
  -8008884.62547  -6213937.06246  22290208.6024                   22290208.9734
  -9228126.06647  -7170766.76645  22159979.7344                   22159979.6914
  -6395383.85548  -4975511.79346  20716448.4064                   20716445.8714
 -18732669.49248 -14587598.36746  20255033.7194                   20255032.3914
   -615295.21147   -455921.57843  23130981.0634                   23130980.6454
 -13595213.59848 -10577657.10945  21770315.3754                   21770312.3134
 -11513868.39548  -8956828.12946  22136219.1174                   22136216.2854
 11  8 24 18 45 30.0000000  0  7G17G24G07G08G26G11G28
  -8110466.17248  -6293091.49646  22270878.8134                   22270878.2934
  -9279604.32048  -7210879.67645  22150184.4454                   22150183.2304
  -6389722.37548  -4971100.30546  20717525.9774                   20717523.3524
 -18787196.46948 -14630086.93446  20244657.7034                   20244656.3834
   -678077.64547   -504842.95343  23119034.6334                   23119033.6994
 -13601187.91048 -10582312.43445  21769178.3914                   21769176.2034
 -11568437.43048  -8999349.43746  22125835.0164                   22125832.5394
 11  8 24 18 46  0.0000000  0  7G17G24G07G08G26G11G28
  -8211705.27348  -6371979.07846  22251613.5084                   22251612.8444
  -9330565.99247  -7250590.06245  22140486.1564                   22140485.5824
  -6383568.04348  -4966304.78546  20718697.0004                   20718694.8364
 -18841243.06248 -14672201.18046  20234372.5784                   20234371.3364
   -740267.20747   -553302.38343  23107200.5084                   23107199.4024
 -13606588.21548 -10586520.46945  21768151.3284                   21768149.4884
 -11622980.55148  -9041850.57046  22115455.7504                   22115453.2854
 11  8 24 18 46 30.0000000  0  7G17G24G07G08G26G11G28
  -8312597.29748  -6450596.19146  22232414.3134                   22232414.0044
  -9381005.69147  -7289893.71145  22130887.4774                   22130886.5784
  -6376916.78948  -4961122.02746  20719962.4384                   20719961.0004
 -18894803.20748 -14713936.38347  20224180.8444                   20224178.9844
   -801859.43447   -601296.33243  23095480.4144                   23095479.2344
 -13611411.19548 -10590278.65646  21767233.2034                   21767231.7624
 -11677494.42247  -9084328.90645  22105081.9384                   22105079.1994
 11  8 24 18 47  0.0000000  0  7G17G24G07G08G26G11G28
  -8413144.00848  -6528944.25446  22213281.4694                   22213280.5744
  -9430924.43047  -7328791.42245  22121388.5554                   22121388.5084
  -6369772.01248  -4955554.71546  20721322.6174                   20721320.6374
 -18947877.36348 -14755292.89146  20214081.2814                   20214079.1454
   -862856.38747   -648826.42643  23083872.4694                   23083871.4264
 -13615659.80148 -10593589.27745  21766424.6644                   21766422.8914
 -11731982.13748  -9126786.86745  22094713.5164                   22094710.6844
 11  8 24 18 47 30.0000000  0  7G17G24G07G08G26G11G28
  -8513346.06248  -6607023.73846  22194213.2974                   22194212.6724
  -9480322.52047  -7367283.43045  22111989.0474                   22111988.3914
  -6362135.37948  -4949604.14846  20722775.8914                   20722773.3324
 -19000465.76648 -14796270.87947  20204073.8984                   20204071.8674
   -923259.07446   -695893.48043  23072378.4454                   23072377.3874
 -13619336.66047 -10596454.39545  21765724.8364                   21765722.8134
 -11786445.43747  -9169225.80946  22084349.5704                   22084346.9844
 11  8 24 18 48  0.0000000  0  7G17G24G07G08G26G11G28
  -8613206.15648  -6684836.77046  22175210.5234                   22175210.2704
  -9529202.03548  -7405371.32445  22102687.4304                   22102687.5744
  -6354010.12148  -4943272.84846  20724322.1334                   20724319.4804
 -19052569.55148 -14836871.26247  20194158.9844                   20194156.9694
   -983070.50446   -742499.78943  23060996.1724                   23060995.3914
 -13622445.66048 -10598877.00045  21765133.4224                   21765131.2664
 -11840888.06648  -9211648.63745  22073989.3914                   22073986.6954
 11  8 24 18 48 30.0000000  0  7G17G24G07G08G26G11G28
  -8712727.71548  -6762385.98846  22156272.4454                   22156271.2814
  -9577565.64847  -7443057.23445  22093483.7894                   22093484.3954
  -6345400.77748  -4936564.34046  20725960.1724                   20725957.6524
 -19104191.03548 -14877095.83246  20184335.7344                   20184333.9614
  -1042294.35246   -788648.23443  23049726.6484                   23049725.6214
 -13624992.10948 -10600861.25845  21764649.1334                   21764646.3244
 -11895314.62147  -9254058.93745  22063632.4694                   22063629.5634
 11  8 24 18 49  0.0000000  0  7G17G24G07G08G26G11G28
  -8811911.22748  -6839671.80546  22137397.7344                   22137397.9144
  -9625412.92247  -7480340.81245  22084378.7274                   22084378.4144
  -6336308.99648  -4929479.88346  20727690.4614                   20727687.7344
 -19155329.69548 -14916944.15246  20174604.3754                   20174602.7934
  -1100931.30946   -834339.37143  23038568.1644                   23038567.9804
 -13626977.65248 -10602408.45745  21764271.1414                   21764267.4384
 -11949726.50448  -9296457.81245  22053277.7734                   22053275.0044
 11  8 24 18 49 30.0000000  0  7G17G24G07G08G26G11G28
  -8910758.00047  -6916695.21946  22118587.7034                   22118587.2584
  -9672744.86747  -7517222.83645  22075371.4064                   22075371.9574
  -6326736.78948  -4922021.07046  20729511.6884                   20729510.0354
 -19205985.44548 -14956416.20346  20164964.8984                   20164963.1524
  -1158982.94946   -879574.42643  23027520.1954                   23027520.7974
 -13628405.26648 -10603520.89845  21763999.9924                   21763997.1954
 -12004126.30548  -9338847.27745  22042926.2114                   22042923.0234
 11  8 24 18 50  0.0000000  0  7G17G24G07G08G26G11G28
  -9009268.05547  -6993456.27746  22099841.7664                   22099841.5634
  -9719560.96147  -7553702.91045  22066462.5944                   22066461.8364
  -6316685.47748  -4914188.92646  20731424.4144                   20731422.4104
 -19256157.38348 -14995511.24246  20155417.5944                   20155415.7424
  -1216450.00446   -924354.03543  23016585.8054                   23016584.3954
 -13629276.77047 -10604199.98045  21763833.2894                   21763831.5784
 -12058515.28548  -9381228.30545  22032576.5084                   22032573.6294
 11  8 24 18 50 30.0000000  0  7G17G24G07G08G26G11G28
  -9107441.37548  -7069954.93746  22081160.5944                   22081160.3594
  -9765860.57847  -7589780.49245  22057652.7974                   22057652.0084
  -6306156.02348  -4905984.20746  20733428.2894                   20733426.2734
 -19305844.50048 -15034228.50446  20145962.2814                   20145960.6994
  -1273332.70745   -968678.20743  23005761.9534                   23005760.5044
 -13629593.36747 -10604446.69945  21763773.3134                   21763772.2624
 -12112894.35548  -9423601.60546  22022228.5004                   22022225.7384
 11  8 24 18 51  0.0000000  0  7G17G24G07G08G26G11G28
  -9205279.21148  -7146192.16446  22062542.7974                   22062542.1254
  -9811644.07848  -7625455.94545  22048940.1724                   22048938.7974
  -6295150.43048  -4897408.46946  20735522.8674                   20735520.7424
 -19355046.84048 -15072568.00846  20136599.8834                   20136597.6024
  -1329632.28146  -1012548.07042  22995048.0084                   22995046.9574
 -13629357.91447 -10604263.25045  21763818.4534                   21763816.9224
 -12167265.84048  -9465969.00446  22011881.9694                   22011879.1684
 11  8 24 18 51 30.0000000  0  7G17G24G07G08G26G11G28
  -9302780.79748  -7222167.37546  22043988.9454                   22043988.0044
  -9856910.44947  -7660728.41845  22040325.9694                   22040325.5354
  -6283669.23448  -4888462.13746  20737707.4614                   20737705.4144
 -19403762.59048 -15110528.36346  20127329.4614                   20127327.2154
  -1385348.81246  -1055963.64142  22984446.0084                   22984444.4774
 -13628571.64847 -10603650.60945  21763967.5864                   21763966.0744
 -12221629.74248  -9508330.48046  22001536.6414                   22001533.9804
 11  8 24 18 52  0.0000000  0  7G17G24G07G08G26G11G28
  -9399946.50048  -7297880.84846  22025498.6564                   22025497.8914
  -9901659.47347  -7695597.78545  22031810.2274                   22031811.1884
  -6271713.96148  -4879146.39546  20739982.4384                   20739980.4924
 -19451990.79348 -15148108.82046  20118151.7894                   20118149.5594
  -1440482.91846  -1098925.27743  22973953.6024                   22973953.8324
 -13627236.52047 -10602610.30545  21764221.7734                   21764219.3634
 -12275987.42248  -9550687.11346  21991192.7734                   21991190.4654
 11  8 24 18 52 30.0000000  0  7G17G24G07G08G26G11G28
  -9496773.61748  -7373330.50446  22007073.1174                   22007072.2774
  -9945887.80547  -7730061.42245  22023394.2114                   22023394.1884
  -6259282.64148  -4869459.70346  20742348.0004                   20742346.1684
 -19499727.19548 -15185306.04346  20109067.9774                   20109066.2934
  -1495032.02746  -1141431.16843  22963573.0864                   22963572.8204
 -13625351.05147 -10601141.13345  21764580.2974                   21764578.3984
 -12330337.02048  -9593037.43746  21980850.5164                   21980847.9614
 11  8 24 18 53  0.0000000  0  7G17G24G07G08G26G11G28
  -9593261.26648  -7448515.62546  21988711.8204                   21988711.0824
  -9989594.47348  -7764118.55545  22015077.8284                   22015077.7894
  -6246375.55148  -4859402.30146  20744804.2274                   20744802.3914
 -19546970.35548 -15222118.92246  20100077.9144                   20100076.0434
  -1548996.21945  -1183481.21143  22953304.9774                   22953304.6054
 -13622916.16047 -10599243.83645  21765044.4304                   21765041.8634
 -12384678.93048  -9635381.77046  21970509.3594                   21970506.7194
 11  8 24 18 53 30.0000000  0  7G17G24G07G08G26G11G28
  -9689406.64548  -7523434.05546  21970415.9534                   21970415.0124
 -10032775.92648  -7797766.42245  22006860.2194                   22006858.6804
  -6232991.27348  -4848973.04746  20747351.4304                   20747349.1294
 -19593716.52048 -15258544.52346  20091182.5784                   20091180.4494
  -1602372.87146  -1225073.43043  22943148.1334                   22943146.7304
 -13619930.85247 -10596917.64845  21765612.0234                   21765610.4884
 -12439011.25448  -9677718.64546  21960170.6644                   21960167.2194
 11  8 24 18 54  0.0000000  0  7G17G24G07G08G26G11G28
  -9785208.48447  -7598084.80546  21952186.1484                   21952184.4494
 -10075430.16048  -7831003.47745  21998743.4224                   21998740.9144
  -6219129.22748  -4838171.51246  20749989.0394                   20749986.8754
 -19639962.84448 -15294580.65246  20082382.2424                   20082380.4494
  -1655161.18446  -1266207.21943  22933101.7114                   22933101.3094
 -13616395.38347 -10594162.77045  21766285.5634                   21766282.4884
 -12493333.45348  -9720047.62146  21949833.4384                   21949830.1094
 11  8 24 18 54 30.0000000  0  7G17G24G07G08G26G11G28
  -9880666.73448  -7672467.80946  21934020.0474                   21934020.1994
 -10117557.04747  -7863829.60945  21990726.5234                   21990726.4614
  -6204790.43448  -4826998.48046  20752718.1094                   20752716.1844
 -19685708.44548 -15330226.59846  20073676.6484                   20073674.9144
  -1707361.45746  -1306882.77743  22923168.4224                   22923168.7274
 -13612311.51647 -10590980.53545  21767061.6334                   21767059.9184
 -12547646.40248  -9762369.39546  21939497.6334                   21939495.0784
 11  8 24 18 55  0.0000000  0  7G17G24G07G08G26G11G28
  -9975781.13748  -7746582.88346  21915920.2974                   21915920.0744
 -10159155.52047  -7896243.98845  21982810.4224                   21982810.4774
  -6189975.83248  -4815454.68746  20755537.3364                   20755535.3874
 -19730951.97348 -15365481.31646  20065067.2894                   20065065.6764
  -1758974.19946  -1347100.53143  22913346.2114                   22913346.2234
 -13607680.59047 -10587372.05545  21767942.8594                   21767940.7074
 -12601950.46147  -9804684.23046  21929163.5234                   21929161.2194
 11  8 24 18 55 30.0000000  0  7G17G24G07G08G26G11G28
 -10070551.59048  -7820429.95746  21897886.5234                   21897884.9574
 -10200225.10947  -7928246.26245  21974995.7814                   21974995.8754
  -6174686.46148  -4803540.94546  20758446.5704                   20758445.3714
 -19775692.26248 -15400343.91046  20056553.7504                   20056551.6374
  -1809999.30547  -1386860.36744  22903637.5394                   22903636.8444
 -13602504.25048 -10583338.59045  21768928.4534                   21768926.2114
 -12656246.50048  -9846992.81246  21918831.5004                   21918829.4104
 11  8 24 18 56  0.0000000  0  7G17G24G07G08G26G11G28
 -10164975.85948  -7894007.26646  21879918.4844                   21879917.0234
 -10240762.91848  -7959834.17245  21967281.5554                   21967281.8284
  -6158921.13748  -4791256.33246  20761446.9304                   20761445.0084
 -19819925.76248 -15434811.60546  20048135.9774                   20048134.1764
  -1860435.45746  -1426161.29344  22894039.5164                   22894039.4344
 -13596781.66847 -10578879.46945  21770017.3754                   21770014.7154
 -12710532.82848  -9889293.85246  21908501.5634                   21908498.8364
 11  8 24 18 56 30.0000000  0  7G17G24G07G08G26G11G28
 -10259050.76647  -7967312.35246  21862015.6804                   21862014.6334
 -10280765.49248  -7991005.00045  21959669.5474                   21959669.0124
  -6142677.96148  -4778599.37146  20764537.8054                   20764536.1804
 -19863648.78548 -15468881.51646  20039816.1094                   20039813.8754
  -1910280.09047  -1465001.31644  22884554.4304                   22884553.9264
 -13590511.89547 -10573993.95345  21771210.5474                   21771209.1884
 -12764807.72747  -9931585.97345  21898173.2424                   21898170.4304
 11  8 24 18 57  0.0000000  0  7G17G24G07G08G26G11G28
 -10352773.96148  -8040343.37946  21844181.2034                   21844180.3714
 -10320229.98848  -8021756.53145  21952159.9454                   21952159.3754
  -6125955.58248  -4765569.00446  20767719.8524                   20767717.9264
 -19906857.43748 -15502550.62946  20031593.5784                   20031591.8164
  -1959531.33647  -1503378.93744  22875182.1174                   22875181.3014
 -13583694.01648 -10568681.34445  21772508.7734                   21772507.0004
 -12819069.29747  -9973867.70745  21887847.4614                   21887844.8914
 11  8 24 18 57 30.0000000  0  7G17G24G07G08G26G11G28
 -10446144.08247  -8113099.27346  21826413.1484                   21826412.6454
 -10359154.37947  -8052087.21545  21944751.8204                   21944750.9064
  -6108753.43048  -4752164.78546  20770993.1174                   20770991.3284
 -19949549.52348 -15535817.21946  20023469.7814                   20023468.0824
  -2008188.20347  -1541293.43044  22865923.3364                   22865922.2814
 -13576328.20348 -10562941.73845  21773909.7664                   21773906.8404
 -12873316.59847 -10016138.32445  21877524.2504                   21877521.8594
 11  8 24 18 58  0.0000000  0  7G17G24G07G08G26G11G28
 -10539158.40647  -8185577.93046  21808713.6414                   21808712.9064
 -10397535.64148  -8081994.66445  21937448.4384                   21937447.3244
  -6091069.87548  -4738385.45346  20774358.4224                   20774356.6334
 -19991720.91448 -15568678.05146  20015444.6564                   20015442.8014
  -2056248.39847  -1578742.94544  22856777.3984                   22856777.0164
 -13568413.47747 -10556774.43745  21775415.6724                   21775412.6454
 -12927547.66848 -10058396.29745  21867205.0554                   21867201.9454
 11  8 24 18 58 30.0000000  0  7G17G24G07G08G26G11G28
 -10631814.77048  -8257777.65646  21791081.7114                   21791080.7624
 -10435371.54747  -8111477.22745  21930248.3674                   21930248.2584
  -6072904.57848  -4724230.71946  20777815.4534                   20777813.4494
 -20033368.75848 -15601130.94546  20007519.3284                   20007517.7894
  -2103710.90646  -1615726.76244  22847746.0004                   22847745.5984
 -13559949.93748 -10550179.46945  21777026.4384                   21777023.5554
 -12981761.44148 -10100640.81245  21856888.7194                   21856885.1604
 11  8 24 18 59  0.0000000  0  7G17G24G07G08G26G11G28
 -10724112.59048  -8329698.00046  21773517.9064                   21773516.6024
 -10472660.93747  -8140533.88745  21923152.6804                   21923153.0314
  -6054257.57848  -4709700.63746  20781364.0704                   20781362.4224
 -20074491.02748 -15633174.30546  19999694.3524                   19999692.2734
  -2150575.32847  -1652244.52744  22838827.7664                   22838827.7814
 -13550938.39548 -10543157.49645  21778741.3984                   21778739.4804
 -13035957.35248 -10142871.38345  21846575.7344                   21846572.4224
 11  8 24 18 59 30.0000000  0  7G17G24G07G08G26G11G28
 -10816049.52747  -8401337.13346  21756022.3134                   21756021.4144
 -10509400.84847  -8169162.40645  21916160.9924                   21916161.8094
  -6035127.49648  -4694794.14546  20785004.0784                   20785002.1094
 -20115084.48448 -15664805.59446  19991969.8284                   19991967.3874
  -2196839.77347  -1688294.78944  22830023.9534                   22830023.9924
 -13541378.00848 -10535707.86745  21780561.2344                   21780558.7274
 -13090133.94548 -10185086.92645  21836265.7274                   21836263.0044
 11  8 24 19  0  0.0000000  0  7G17G24G07G08G26G11G28
 -10907625.73847  -8472695.19146  21738595.9844                   21738594.8444
 -10545591.22747  -8197362.69945  21909273.9614                   21909274.6954
  -6015515.78548  -4679512.34046  20788736.0394                   20788734.6024
 -20155148.24648 -15696024.14146  19984346.0394                   19984343.7734
  -2242505.19947  -1723878.25444  22821334.2664                   22821333.3134
 -13531270.87548 -10527832.20345  21782484.2584                   21782481.3014
 -13144292.27748 -10227288.23045  21825959.9224                   21825956.7114
 11  8 24 19  0 30.0000000  0  7G17G24G07G08G26G11G28
 -10998840.65247  -8543771.74246  21721238.7734                   21721237.6844
 -10581231.38347  -8225134.25045  21902491.5704                   21902490.3984
  -5995423.53548  -4663856.10946  20792559.7974                   20792557.9614
 -20194680.73848 -15726828.72346  19976823.0314                   19976821.2464
  -2287572.20747  -1758995.44543  22812757.8984                   22812758.1054
 -13520618.75848 -10519531.88345  21784511.5944                   21784509.2154
 -13198432.43748 -10269475.37545  21815657.4694                   21815654.0594
 11  8 24 19  1  0.0000000  0  7G17G24G07G08G26G11G28
 -11089693.93747  -8614566.45346  21703949.5474                   21703948.9494
 -10616320.55147  -8252476.44945  21895814.8054                   21895813.3204
  -5974851.32848  -4647825.87946  20796474.4144                   20796472.4414
 -20233680.62948 -15757218.28146  19969401.6484                   19969399.6804
  -2332040.67647  -1793646.24644  22804295.9844                   22804295.4924
 -13509422.64548 -10510807.66045  21786641.7894                   21786639.7464
 -13252554.59448 -10311648.49245  21805358.4774                   21805355.9414
 11  8 24 19  1 30.0000000  0  7G17G24G07G08G26G11G28
 -11180186.33647  -8685079.98046  21686729.6884                   21686728.8444
 -10650858.82847  -8279389.39145  21889242.3914                   21889240.7034
  -5953800.83648  -4631422.95346  20800480.0314                   20800478.1374
 -20272147.63748 -15787192.59846  19962081.3594                   19962080.1724
  -2375911.98447  -1827831.71544  22795948.2664                   22795947.3794
 -13497685.12548 -10501661.55145  21788875.9844                   21788873.5044
 -13306659.87948 -10353808.44946  21795062.2974                   21795060.1684
 11  8 24 19  2  0.0000000  0  7G17G24G07G08G26G11G28
 -11270316.88748  -8755311.53946  21669578.2814                   21669577.5044
 -10684845.46548  -8305872.45345  21882775.3364                   21882775.0124
  -5932272.46148  -4614647.67246  20804577.2734                   20804575.4184
 -20310079.78148 -15816750.13346  19954863.3204                   19954861.9964
  -2419186.05547  -1861551.80944  22787713.5784                   22787712.5044
 -13485407.13748 -10492094.30545  21791211.6644                   21791209.8094
 -13360747.68448 -10395954.78946  21784769.6564                   21784767.2814
 11  8 24 19  2 30.0000000  0  7G17G24G07G08G26G11G28
 -11360086.19948  -8825261.60546  21652495.4064                   21652495.0354
 -10718280.06648  -8331925.39845  21876412.6644                   21876413.5044
  -5910267.20748  -4597500.78146  20808764.7274                   20808763.0204
 -20347476.03148 -15845890.08646  19947746.8914                   19947745.5274
  -2461863.45746  -1894806.98043  22779592.5704                   22779591.9574
 -13472590.46947 -10482107.34045  21793650.3594                   21793647.6954
 -13414818.94947 -10438088.22345  21774479.8594                   21774477.6644
 11  8 24 19  3  0.0000000  0  7G17G24G07G08G26G11G28
 -11449494.16048  -8894930.09846  21635482.0784                   21635480.6374
 -10751162.21147  -8357547.84445  21870155.5394                   21870156.2814
  -5887786.81648  -4579983.65246  20813042.4614                   20813040.4384
 -20384335.66448 -15874611.89146  19940733.0944                   19940731.1644
  -2503945.33646  -1927598.09843  22771583.6724                   22771583.4414
 -13459236.86348 -10471701.97745  21796191.7504                   21796189.4304
 -13468874.22347 -10480209.19145  21764193.5164                   21764191.2424
 11  8 24 19  3 30.0000000  0  7G17G24G07G08G26G11G28
 -11538539.36748  -8964315.93446  21618537.3524                   21618536.3714
 -10783490.40647  -8382738.66445  21864003.3674                   21864003.5594
  -5864830.80548  -4562095.91046  20817410.8284                   20817409.2034
 -20420655.95348 -15902913.46146  19933821.5784                   19933819.8364
  -2545430.93746  -1959924.58643  22763689.9144                   22763688.5704
 -13445347.47748 -10460879.07045  21798835.5234                   21798832.9774
 -13522912.65247 -10522317.04745  21753910.4924                   21753908.1214
 11  8 24 19  4  0.0000000  0  7G17G24G07G08G26G11G28
 -11627220.64848  -9033418.18446  21601661.8674                   21601660.5314
 -10815263.51247  -8407496.91845  21857957.1094                   21857956.5664
  -5841399.99647  -4543838.19946  20821869.4614                   20821868.0204
 -20456435.44548 -15930793.61746  19927012.8524                   19927011.3164
  -2586320.38747  -1991786.51243  22755909.4304                   22755907.7424
 -13430923.06248 -10449639.29345  21801580.0084                   21801577.8484
 -13576933.78948 -10564411.43745  21743631.1254                   21743628.3554
 11  8 24 19  4 30.0000000  0  7G17G24G07G08G26G11G28
 -11715535.16848  -9102234.65646  21584855.8284                   21584855.0984
 -10846478.32447  -8431820.10945  21852017.2664                   21852014.3594
  -5817492.36747  -4525208.94546  20826419.0234                   20826417.5554
 -20491670.45748 -15958249.49246  19920308.0394                   19920306.1214
  -2626611.12547  -2023181.95743  22748241.8204                   22748241.4964
 -13415962.12148 -10437981.42245  21804427.0164                   21804424.4884
 -13630935.16448 -10606490.41445  21733354.6414                   21733352.0354
 11  8 24 19  5  0.0000000  0  7G17G24G07G08G26G11G28
 -11803482.87948  -9170765.31246  21568120.3284                   21568119.0984
 -10877134.10948  -8455707.71545  21846184.2344                   21846183.4694
  -5793108.58647  -4506208.65246  20831059.1024                   20831057.6094
 -20526359.59448 -15985280.02046  19913706.5394                   19913704.3244
  -2666303.74647  -2054111.30543  22740689.1334                   22740688.3594
 -13400466.48447 -10425906.94145  21807375.1724                   21807374.3554
 -13684916.44148 -10648553.73846  21723082.5314                   21723080.0864
 11  8 24 19  5 30.0000000  0  7G17G24G07G08G26G11G28
 -11891060.64848  -9239007.71946  21551454.6804                   21551453.7974
 -10907227.95347  -8479157.45745  21840457.0004                   21840456.4534
  -5768246.87148  -4486835.96546  20835790.3914                   20835788.4224
 -20560498.62148 -16011881.91046  19907210.1954                   19907208.5864
  -2705396.06646  -2084572.88743  22733249.6414                   22733249.1804
 -13384434.96147 -10413414.89145  21810425.8204                   21810425.7384
 -13738875.30948 -10690599.63346  21712814.5634                   21712812.2734
 11  8 24 19  6  0.0000000  0  7G17G24G07G08G26G11G28
 -11978267.98848  -9306961.45746  21534859.2974                   21534858.3674
 -10936759.09847  -8502168.75845  21834837.2894                   21834837.7304
  -5742908.34848  -4467091.73046  20840612.3914                   20840610.0474
 -20594086.15648 -16038054.03946  19900819.1804                   19900817.0864
  -2743888.66846  -2114567.12543  22725925.5634                   22725923.8794
 -13367869.21547 -10400506.57045  21813578.1564                   21813576.9494
 -13792811.68448 -10732627.98046  21702550.7894                   21702548.1684
 11  8 24 19  6 30.0000000  0  7G17G24G07G08G26G11G28
 -12065103.00047  -9374625.09046  21518335.1954                   21518334.7424
 -10965724.92247  -8524739.55945  21829326.1884                   21829326.2234
  -5717092.01647  -4446975.16846  20845525.0704                   20845523.0004
 -20627118.96548 -16063793.91846  19894532.8674                   19894530.9654
  -2781779.98046  -2144092.87543  22718713.9224                   22718713.6254
 -13350768.54747 -10387181.40245  21816832.5004                   21816829.6954
 -13846723.40248 -10774637.11346  21692291.6254                   21692288.8754
 11  8 24 19  7  0.0000000  0  7G17G24G07G08G26G11G28
 -12151563.71547  -9441997.05146  21501882.0004                   21501881.2344
 -10994123.65647  -8546868.50445  21823921.8524                   21823921.2114
  -5690797.37147  -4426485.89546  20850528.2194                   20850527.1174
 -20659594.45748 -16089099.53146  19888353.0004                   19888351.5234
  -2819069.09846  -2173149.39542  22711618.5394                   22711616.0514
 -13333133.20348 -10373439.57445  21820188.1884                   21820186.2194
 -13900609.22748 -10816626.07846  21682037.8444                   21682034.6294
 11  8 24 19  7 30.0000000  0  7G17G24G07G08G26G11G28
 -12237648.71148  -9509076.23446  21485500.8524                   21485499.9264
 -11021953.72747  -8568554.24645  21818626.0944                   21818623.9654
  -5664024.14547  -4405623.72346  20855623.4534                   20855621.8524
 -20691510.50448 -16113969.20346  19882279.6954                   19882278.4264
  -2855755.49246  -2201736.19942  22704637.5234                   22704635.0044
 -13314963.67648 -10359281.52745  21823646.1884                   21823644.1174
 -13954468.09848 -10858594.05146  21671788.5314                   21671785.5044
 11  8 24 19  8  0.0000000  0  7G17G24G07G08G26G11G28
 -12323356.09047  -9575861.18046  21469191.3204                   21469189.8484
 -11049212.97347  -8589795.20745  21813437.9304                   21813437.0664
  -5636771.39148  -4384387.87146  20860809.5084                   20860808.2154
 -20722864.02048 -16138400.53946  19876313.3364                   19876311.8754
  -2891838.09846  -2229852.57042  22697771.4614                   22697768.3164
 -13296260.14848 -10344707.38745  21827205.6414                   21827203.3404
 -14008298.35548 -10900539.71945  21661544.9924                   21661542.5084
 11  8 24 19  8 30.0000000  0  7G17G24G07G08G26G11G28
 -12408683.72747  -9642350.20746  21452953.6414                   21452951.8714
 -11075898.84447  -8610589.39845  21808360.2504                   21808359.8554
  -5609038.50048  -4362777.89146  20866087.1564                   20866085.8204
 -20753651.61748 -16162390.90646  19870454.7194                   19870452.9494
  -2927315.48846  -2257497.34442  22691019.5704                   22691016.4304
 -13277021.85248 -10329716.51645  21830866.2274                   21830863.4414
 -14062097.69147 -10942461.28945  21651307.5004                   21651304.5904
 11  8 24 19  9  0.0000000  0  7G17G24G07G08G26G11G28
 -12493631.50447  -9708543.23846  21436788.7664                   21436787.3754
 -11102011.47347  -8630936.91845  21803390.9774                   21803391.8364
  -5580826.39148  -4340794.51646  20871456.3594                   20871453.9614
 -20783872.84448 -16185939.95746  19864703.4144                   19864701.8594
  -2962188.59446  -2284671.21142  22684383.9924                   22684380.9414
 -13257250.85247 -10314310.57845  21834628.3204                   21834625.7194
 -14115866.49247 -10984359.06245  21641074.9614                   21641072.5314
 11  8 24 19  9 30.0000000  0  7G17G24G07G08G26G11G28
 -12578198.33647  -9774439.43746  21420696.2034                   21420694.7504
 -11127549.62547  -8650836.82045  21798531.7344                   21798532.2974
  -5552135.51248  -4318438.07846  20876916.1024                   20876913.8554
 -20813525.41048 -16209045.89146  19859061.1804                   19859059.5784
  -2996457.42646  -2311374.24243  22677862.6724                   22677861.2854
 -13236948.14147 -10298490.32845  21838492.1564                   21838489.9694
 -14169604.11747 -11026232.53545  21630849.4224                   21630846.7544
 11  8 24 19 10  0.0000000  0  7G17G24G07G08G26G11G28
 -11086960.30147  -8612435.73846  21704469.2194                   21704468.7664
  -9577090.81247  -7442687.10245  22093574.0864                   22093574.4804
  -3947546.65248  -3068109.17246  21182259.3674                   21182257.2664
 -19267186.04348 -15004106.16446  20153319.9144                   20153317.9494
  -1454700.02046  -1110004.88342  22971250.1644                   22971248.5784
 -11640694.99647  -9054656.71945  22142249.0314                   22142246.6214
 -12647887.21947  -9840479.11745  21920422.4144                   21920419.8244
 11  8 24 19 10 30.0000000  0  7G17G24G07G08G26G11G28
 -11170760.10248  -8677734.24646  21688522.5164                   21688522.0234
  -9601473.70347  -7461686.78145  22088934.1644                   22088934.9454
  -3917896.36747  -3045005.12946  21187900.9384                   21187899.5234
 -19295693.22748 -15026319.59046  20147894.9694                   20147893.5234
  -1487757.16046  -1135763.75043  22964958.6954                   22964958.6414
 -11619328.92647  -9038007.83645  22146314.3284                   22146312.5744
 -12701556.90248  -9882299.65645  21910209.5234                   21910207.2034
 11  8 24 19 11  0.0000000  0  7G17G24G07G08G26G11G28
 -11254174.03147  -8742732.09846  21672649.7734                   21672648.6724
  -9625276.34047  -7480234.30145  22084404.7274                   22084404.3404
  -3887765.75447  -3021526.79746  21193634.2894                   21193632.4654
 -19323624.09448 -15048083.93746  20142580.1414                   20142578.4064
  -1520207.57046  -1161049.82843  22958783.3284                   22958783.1724
 -11597431.71548  -9020945.12945  22150481.5234                   22150480.0164
 -12755189.97348  -9924091.66446  21900003.1094                   21900000.7854
 11  8 24 19 11 30.0000000  0  7G17G24G07G08G26G11G28
 -11337201.66047  -8807428.93446  21656850.2344                   21656849.2704
  -9648498.38747  -7498329.41045  22079984.9064                   22079984.2704
  -3857155.75047  -2997674.91846  21199459.5864                   21199457.9104
 -19350977.07848 -15069397.97346  20137374.8444                   20137373.6644
  -1552051.62946  -1185863.43443  22952724.4694                   22952724.8914
 -11575004.62548  -9003469.53945  22154749.2894                   22154747.3674
 -12808786.55148  -9965855.23446  21889804.3134                   21889802.0434
 11  8 24 19 12  0.0000000  0  7G17G24G07G08G26G11G28
 -11419843.72347  -8871825.33246  21641123.9534                   21641122.7344
  -9671140.73847  -7515972.78145  22075676.7504                   22075675.8444
  -3826068.88748  -2973451.45346  21205375.7274                   21205374.4884
 -19377752.59848 -15090262.03546  20132279.6024                   20132278.2624
  -1583291.70746  -1210206.39843  22946779.8364                   22946780.8054
 -11552050.79747  -8985583.46145  22159117.8834                   22159115.0394
 -12862347.94548 -10007591.39546  21879612.1804                   21879609.6524
